<?xml version="1.0" encoding="UTF-8" standalone="no" ?>
<gpx xmlns="http://www.topografix.com/GPX/1/1" xmlns:xsi="http://www.w3.org/2001/XMLSchema-instance" xsi:schemaLocation="http://www.topografix.com/GPX/1/1 http://www.topografix.com/GPX/1/1/gpx.xsd" version="1.1" creator="VisuGPX - https://www.visugpx.com">
  <metadata>
    <name>2613 m_Pic du Ger, secteur Gourette (en skis de randonnée)</name>
    <desc><![CDATA[Superbe belvédère sur les Pyrénées occidentales, parmi les plus beaux !
Skis aux pieds jusqu\'au sommet. Passage dans le creux derrière le Col de Plaa Ségouné, avant d\'attaquer le dernier ressaut sous le sommet
Bonne neige et temps magnifique !]]></desc>
  </metadata>
  <trk>
    <name><![CDATA[2613 m_Pic de Ger, avec Jacques Resplandy]]></name>
    <desc><![CDATA[Magnifique journée pour ce belvédère, parmi les plus beaux des Pyrénées !]]></desc>
    <trkseg>
      <trkpt lat="42.95755" lon="-0.334">
        <ele>1353.5999755859</ele>
        <time>2013-01-08T07:19:18Z</time>
      </trkpt>
      <trkpt lat="42.95755" lon="-0.33399">
        <ele>1353.5999755859</ele>
        <time>2013-01-08T07:19:19Z</time>
      </trkpt>
      <trkpt lat="42.95752" lon="-0.33393">
        <ele>1354</ele>
        <time>2013-01-08T07:19:25Z</time>
      </trkpt>
      <trkpt lat="42.95748" lon="-0.33385">
        <ele>1354.8000488281</ele>
        <time>2013-01-08T07:19:33Z</time>
      </trkpt>
      <trkpt lat="42.95745" lon="-0.3338">
        <ele>1355.5999755859</ele>
        <time>2013-01-08T07:19:38Z</time>
      </trkpt>
      <trkpt lat="42.95743" lon="-0.33375">
        <ele>1356.4000244141</ele>
        <time>2013-01-08T07:19:42Z</time>
      </trkpt>
      <trkpt lat="42.95741" lon="-0.33373">
        <ele>1356.5999755859</ele>
        <time>2013-01-08T07:19:44Z</time>
      </trkpt>
      <trkpt lat="42.9574" lon="-0.33371">
        <ele>1357</ele>
        <time>2013-01-08T07:19:46Z</time>
      </trkpt>
      <trkpt lat="42.95738" lon="-0.33368">
        <ele>1357.4000244141</ele>
        <time>2013-01-08T07:19:49Z</time>
      </trkpt>
      <trkpt lat="42.95737" lon="-0.33368">
        <ele>1357.4000244141</ele>
        <time>2013-01-08T07:19:50Z</time>
      </trkpt>
      <trkpt lat="42.95736" lon="-0.33366">
        <ele>1357.8000488281</ele>
        <time>2013-01-08T07:19:52Z</time>
      </trkpt>
      <trkpt lat="42.95734" lon="-0.33363">
        <ele>1358</ele>
        <time>2013-01-08T07:19:54Z</time>
      </trkpt>
      <trkpt lat="42.95732" lon="-0.33359">
        <ele>1358.5999755859</ele>
        <time>2013-01-08T07:19:58Z</time>
      </trkpt>
      <trkpt lat="42.95727" lon="-0.33352">
        <ele>1359.4000244141</ele>
        <time>2013-01-08T07:20:05Z</time>
      </trkpt>
      <trkpt lat="42.95726" lon="-0.3335">
        <ele>1359.5999755859</ele>
        <time>2013-01-08T07:20:07Z</time>
      </trkpt>
      <trkpt lat="42.95721" lon="-0.33342">
        <ele>1360.1999511719</ele>
        <time>2013-01-08T07:20:14Z</time>
      </trkpt>
      <trkpt lat="42.95719" lon="-0.33339">
        <ele>1360.5999755859</ele>
        <time>2013-01-08T07:20:17Z</time>
      </trkpt>
      <trkpt lat="42.95716" lon="-0.33335">
        <ele>1361</ele>
        <time>2013-01-08T07:20:22Z</time>
      </trkpt>
      <trkpt lat="42.95713" lon="-0.3333">
        <ele>1361.1999511719</ele>
        <time>2013-01-08T07:20:26Z</time>
      </trkpt>
      <trkpt lat="42.95708" lon="-0.33324">
        <ele>1361.5999755859</ele>
        <time>2013-01-08T07:20:34Z</time>
      </trkpt>
      <trkpt lat="42.95707" lon="-0.33323">
        <ele>1361.5999755859</ele>
        <time>2013-01-08T07:20:35Z</time>
      </trkpt>
      <trkpt lat="42.95703" lon="-0.33318">
        <ele>1361.8000488281</ele>
        <time>2013-01-08T07:20:43Z</time>
      </trkpt>
      <trkpt lat="42.95701" lon="-0.33316">
        <ele>1362</ele>
        <time>2013-01-08T07:20:45Z</time>
      </trkpt>
      <trkpt lat="42.95693" lon="-0.33309">
        <ele>1362.4000244141</ele>
        <time>2013-01-08T07:20:56Z</time>
      </trkpt>
      <trkpt lat="42.95688" lon="-0.33302">
        <ele>1362.5999755859</ele>
        <time>2013-01-08T07:21:04Z</time>
      </trkpt>
      <trkpt lat="42.95687" lon="-0.33301">
        <ele>1362.5999755859</ele>
        <time>2013-01-08T07:21:05Z</time>
      </trkpt>
      <trkpt lat="42.95682" lon="-0.33295">
        <ele>1362.8000488281</ele>
        <time>2013-01-08T07:21:13Z</time>
      </trkpt>
      <trkpt lat="42.95676" lon="-0.33289">
        <ele>1363</ele>
        <time>2013-01-08T07:21:21Z</time>
      </trkpt>
      <trkpt lat="42.95669" lon="-0.33288">
        <ele>1363.1999511719</ele>
        <time>2013-01-08T07:21:30Z</time>
      </trkpt>
      <trkpt lat="42.95661" lon="-0.33288">
        <ele>1364.4000244141</ele>
        <time>2013-01-08T07:21:39Z</time>
      </trkpt>
      <trkpt lat="42.95661" lon="-0.33289">
        <ele>1364.5999755859</ele>
        <time>2013-01-08T07:21:40Z</time>
      </trkpt>
      <trkpt lat="42.95657" lon="-0.33291">
        <ele>1365.1999511719</ele>
        <time>2013-01-08T07:21:44Z</time>
      </trkpt>
      <trkpt lat="42.95654" lon="-0.33292">
        <ele>1366</ele>
        <time>2013-01-08T07:21:51Z</time>
      </trkpt>
      <trkpt lat="42.95647" lon="-0.33293">
        <ele>1367.4000244141</ele>
        <time>2013-01-08T07:22:00Z</time>
      </trkpt>
      <trkpt lat="42.9564" lon="-0.33294">
        <ele>1368.5999755859</ele>
        <time>2013-01-08T07:22:09Z</time>
      </trkpt>
      <trkpt lat="42.95636" lon="-0.33298">
        <ele>1369.5999755859</ele>
        <time>2013-01-08T07:22:17Z</time>
      </trkpt>
      <trkpt lat="42.95631" lon="-0.33305">
        <ele>1370.4000244141</ele>
        <time>2013-01-08T07:22:27Z</time>
      </trkpt>
      <trkpt lat="42.95625" lon="-0.33311">
        <ele>1371.4000244141</ele>
        <time>2013-01-08T07:22:38Z</time>
      </trkpt>
      <trkpt lat="42.95622" lon="-0.33317">
        <ele>1372</ele>
        <time>2013-01-08T07:22:46Z</time>
      </trkpt>
      <trkpt lat="42.95619" lon="-0.33323">
        <ele>1372.5999755859</ele>
        <time>2013-01-08T07:22:55Z</time>
      </trkpt>
      <trkpt lat="42.95616" lon="-0.33328">
        <ele>1373</ele>
        <time>2013-01-08T07:23:02Z</time>
      </trkpt>
      <trkpt lat="42.95613" lon="-0.33333">
        <ele>1373.5999755859</ele>
        <time>2013-01-08T07:23:10Z</time>
      </trkpt>
      <trkpt lat="42.9561" lon="-0.3334">
        <ele>1374.5999755859</ele>
        <time>2013-01-08T07:23:19Z</time>
      </trkpt>
      <trkpt lat="42.95607" lon="-0.33348">
        <ele>1376</ele>
        <time>2013-01-08T07:23:29Z</time>
      </trkpt>
      <trkpt lat="42.95603" lon="-0.33356">
        <ele>1377.4000244141</ele>
        <time>2013-01-08T07:23:38Z</time>
      </trkpt>
      <trkpt lat="42.95601" lon="-0.33361">
        <ele>1378.4000244141</ele>
        <time>2013-01-08T07:23:47Z</time>
      </trkpt>
      <trkpt lat="42.95598" lon="-0.3337">
        <ele>1379.8000488281</ele>
        <time>2013-01-08T07:23:58Z</time>
      </trkpt>
      <trkpt lat="42.95595" lon="-0.3338">
        <ele>1381.4000244141</ele>
        <time>2013-01-08T07:24:09Z</time>
      </trkpt>
      <trkpt lat="42.9559" lon="-0.33388">
        <ele>1383.4000244141</ele>
        <time>2013-01-08T07:24:21Z</time>
      </trkpt>
      <trkpt lat="42.95587" lon="-0.33392">
        <ele>1384.4000244141</ele>
        <time>2013-01-08T07:24:26Z</time>
      </trkpt>
      <trkpt lat="42.95582" lon="-0.334">
        <ele>1386.4000244141</ele>
        <time>2013-01-08T07:24:36Z</time>
      </trkpt>
      <trkpt lat="42.9558" lon="-0.33408">
        <ele>1388</ele>
        <time>2013-01-08T07:24:46Z</time>
      </trkpt>
      <trkpt lat="42.95577" lon="-0.33416">
        <ele>1389.8000488281</ele>
        <time>2013-01-08T07:24:56Z</time>
      </trkpt>
      <trkpt lat="42.95573" lon="-0.33423">
        <ele>1391.5999755859</ele>
        <time>2013-01-08T07:25:05Z</time>
      </trkpt>
      <trkpt lat="42.95568" lon="-0.33429">
        <ele>1393.5999755859</ele>
        <time>2013-01-08T07:25:14Z</time>
      </trkpt>
      <trkpt lat="42.95564" lon="-0.33437">
        <ele>1395.8000488281</ele>
        <time>2013-01-08T07:25:25Z</time>
      </trkpt>
      <trkpt lat="42.95559" lon="-0.33446">
        <ele>1397.5999755859</ele>
        <time>2013-01-08T07:25:35Z</time>
      </trkpt>
      <trkpt lat="42.95556" lon="-0.33451">
        <ele>1399</ele>
        <time>2013-01-08T07:25:42Z</time>
      </trkpt>
      <trkpt lat="42.9555" lon="-0.33458">
        <ele>1401.1999511719</ele>
        <time>2013-01-08T07:25:52Z</time>
      </trkpt>
      <trkpt lat="42.95545" lon="-0.33465">
        <ele>1403.1999511719</ele>
        <time>2013-01-08T07:26:02Z</time>
      </trkpt>
      <trkpt lat="42.95539" lon="-0.33471">
        <ele>1405.1999511719</ele>
        <time>2013-01-08T07:26:13Z</time>
      </trkpt>
      <trkpt lat="42.95534" lon="-0.33477">
        <ele>1406.8000488281</ele>
        <time>2013-01-08T07:26:22Z</time>
      </trkpt>
      <trkpt lat="42.95531" lon="-0.33481">
        <ele>1407.8000488281</ele>
        <time>2013-01-08T07:26:29Z</time>
      </trkpt>
      <trkpt lat="42.95528" lon="-0.33487">
        <ele>1409.1999511719</ele>
        <time>2013-01-08T07:26:38Z</time>
      </trkpt>
      <trkpt lat="42.95523" lon="-0.33494">
        <ele>1410.8000488281</ele>
        <time>2013-01-08T07:26:46Z</time>
      </trkpt>
      <trkpt lat="42.95522" lon="-0.335">
        <ele>1411.4000244141</ele>
        <time>2013-01-08T07:26:54Z</time>
      </trkpt>
      <trkpt lat="42.95522" lon="-0.33507">
        <ele>1412.1999511719</ele>
        <time>2013-01-08T07:27:01Z</time>
      </trkpt>
      <trkpt lat="42.95522" lon="-0.33516">
        <ele>1413.4000244141</ele>
        <time>2013-01-08T07:27:11Z</time>
      </trkpt>
      <trkpt lat="42.95521" lon="-0.3352">
        <ele>1414</ele>
        <time>2013-01-08T07:27:17Z</time>
      </trkpt>
      <trkpt lat="42.95521" lon="-0.33524">
        <ele>1414.8000488281</ele>
        <time>2013-01-08T07:27:23Z</time>
      </trkpt>
      <trkpt lat="42.95521" lon="-0.3353">
        <ele>1415.4000244141</ele>
        <time>2013-01-08T07:27:30Z</time>
      </trkpt>
      <trkpt lat="42.95517" lon="-0.33531">
        <ele>1416.8000488281</ele>
        <time>2013-01-08T07:27:36Z</time>
      </trkpt>
      <trkpt lat="42.95509" lon="-0.33532">
        <ele>1419</ele>
        <time>2013-01-08T07:27:46Z</time>
      </trkpt>
      <trkpt lat="42.95502" lon="-0.33534">
        <ele>1421.1999511719</ele>
        <time>2013-01-08T07:27:57Z</time>
      </trkpt>
      <trkpt lat="42.95498" lon="-0.33534">
        <ele>1423</ele>
        <time>2013-01-08T07:28:04Z</time>
      </trkpt>
      <trkpt lat="42.95494" lon="-0.33537">
        <ele>1425</ele>
        <time>2013-01-08T07:28:14Z</time>
      </trkpt>
      <trkpt lat="42.95495" lon="-0.33545">
        <ele>1425.8000488281</ele>
        <time>2013-01-08T07:28:24Z</time>
      </trkpt>
      <trkpt lat="42.95495" lon="-0.3355">
        <ele>1426.1999511719</ele>
        <time>2013-01-08T07:28:30Z</time>
      </trkpt>
      <trkpt lat="42.95496" lon="-0.33553">
        <ele>1426.5999755859</ele>
        <time>2013-01-08T07:28:36Z</time>
      </trkpt>
      <trkpt lat="42.95496" lon="-0.3356">
        <ele>1427.1999511719</ele>
        <time>2013-01-08T07:28:45Z</time>
      </trkpt>
      <trkpt lat="42.95496" lon="-0.33563">
        <ele>1427.8000488281</ele>
        <time>2013-01-08T07:28:50Z</time>
      </trkpt>
      <trkpt lat="42.95496" lon="-0.33569">
        <ele>1428.5999755859</ele>
        <time>2013-01-08T07:28:57Z</time>
      </trkpt>
      <trkpt lat="42.95495" lon="-0.33573">
        <ele>1429.4000244141</ele>
        <time>2013-01-08T07:29:04Z</time>
      </trkpt>
      <trkpt lat="42.9549" lon="-0.33575">
        <ele>1432</ele>
        <time>2013-01-08T07:29:12Z</time>
      </trkpt>
      <trkpt lat="42.95486" lon="-0.33576">
        <ele>1434</ele>
        <time>2013-01-08T07:29:19Z</time>
      </trkpt>
      <trkpt lat="42.95482" lon="-0.33576">
        <ele>1435.5999755859</ele>
        <time>2013-01-08T07:29:25Z</time>
      </trkpt>
      <trkpt lat="42.9548" lon="-0.33579">
        <ele>1437</ele>
        <time>2013-01-08T07:29:33Z</time>
      </trkpt>
      <trkpt lat="42.9548" lon="-0.33583">
        <ele>1437.4000244141</ele>
        <time>2013-01-08T07:29:39Z</time>
      </trkpt>
      <trkpt lat="42.95481" lon="-0.33588">
        <ele>1437.8000488281</ele>
        <time>2013-01-08T07:29:46Z</time>
      </trkpt>
      <trkpt lat="42.95483" lon="-0.33597">
        <ele>1439</ele>
        <time>2013-01-08T07:29:58Z</time>
      </trkpt>
      <trkpt lat="42.95483" lon="-0.33603">
        <ele>1440</ele>
        <time>2013-01-08T07:30:06Z</time>
      </trkpt>
      <trkpt lat="42.95482" lon="-0.33608">
        <ele>1441.4000244141</ele>
        <time>2013-01-08T07:30:13Z</time>
      </trkpt>
      <trkpt lat="42.95482" lon="-0.33613">
        <ele>1442.1999511719</ele>
        <time>2013-01-08T07:30:19Z</time>
      </trkpt>
      <trkpt lat="42.95481" lon="-0.33621">
        <ele>1444.1999511719</ele>
        <time>2013-01-08T07:30:30Z</time>
      </trkpt>
      <trkpt lat="42.95481" lon="-0.33628">
        <ele>1445.5999755859</ele>
        <time>2013-01-08T07:30:37Z</time>
      </trkpt>
      <trkpt lat="42.9548" lon="-0.33636">
        <ele>1447.4000244141</ele>
        <time>2013-01-08T07:30:45Z</time>
      </trkpt>
      <trkpt lat="42.95479" lon="-0.3364">
        <ele>1448.5999755859</ele>
        <time>2013-01-08T07:30:49Z</time>
      </trkpt>
      <trkpt lat="42.95477" lon="-0.33645">
        <ele>1450</ele>
        <time>2013-01-08T07:30:55Z</time>
      </trkpt>
      <trkpt lat="42.95476" lon="-0.3365">
        <ele>1451.1999511719</ele>
        <time>2013-01-08T07:31:02Z</time>
      </trkpt>
      <trkpt lat="42.95473" lon="-0.33653">
        <ele>1453</ele>
        <time>2013-01-08T07:31:10Z</time>
      </trkpt>
      <trkpt lat="42.95469" lon="-0.33653">
        <ele>1454.1999511719</ele>
        <time>2013-01-08T07:31:18Z</time>
      </trkpt>
      <trkpt lat="42.95463" lon="-0.33651">
        <ele>1456</ele>
        <time>2013-01-08T07:31:26Z</time>
      </trkpt>
      <trkpt lat="42.95458" lon="-0.3365">
        <ele>1457.5999755859</ele>
        <time>2013-01-08T07:31:35Z</time>
      </trkpt>
      <trkpt lat="42.9545" lon="-0.33645">
        <ele>1459.1999511719</ele>
        <time>2013-01-08T07:31:45Z</time>
      </trkpt>
      <trkpt lat="42.95444" lon="-0.3364">
        <ele>1460.8000488281</ele>
        <time>2013-01-08T07:31:55Z</time>
      </trkpt>
      <trkpt lat="42.95437" lon="-0.33635">
        <ele>1462.4000244141</ele>
        <time>2013-01-08T07:32:05Z</time>
      </trkpt>
      <trkpt lat="42.9543" lon="-0.33631">
        <ele>1464.5999755859</ele>
        <time>2013-01-08T07:32:16Z</time>
      </trkpt>
      <trkpt lat="42.95424" lon="-0.33628">
        <ele>1466.4000244141</ele>
        <time>2013-01-08T07:32:26Z</time>
      </trkpt>
      <trkpt lat="42.95421" lon="-0.33625">
        <ele>1467.1999511719</ele>
        <time>2013-01-08T07:32:35Z</time>
      </trkpt>
      <trkpt lat="42.95415" lon="-0.33623">
        <ele>1469.1999511719</ele>
        <time>2013-01-08T07:32:47Z</time>
      </trkpt>
      <trkpt lat="42.95408" lon="-0.33625">
        <ele>1472.1999511719</ele>
        <time>2013-01-08T07:32:58Z</time>
      </trkpt>
      <trkpt lat="42.954" lon="-0.33626">
        <ele>1475.1999511719</ele>
        <time>2013-01-08T07:33:08Z</time>
      </trkpt>
      <trkpt lat="42.95393" lon="-0.33627">
        <ele>1477.5999755859</ele>
        <time>2013-01-08T07:33:17Z</time>
      </trkpt>
      <trkpt lat="42.95385" lon="-0.33629">
        <ele>1481</ele>
        <time>2013-01-08T07:33:28Z</time>
      </trkpt>
      <trkpt lat="42.95383" lon="-0.33629">
        <ele>1481.4000244141</ele>
        <time>2013-01-08T07:33:30Z</time>
      </trkpt>
      <trkpt lat="42.95378" lon="-0.33629">
        <ele>1483.1999511719</ele>
        <time>2013-01-08T07:33:36Z</time>
      </trkpt>
      <trkpt lat="42.95374" lon="-0.33633">
        <ele>1485.1999511719</ele>
        <time>2013-01-08T07:33:44Z</time>
      </trkpt>
      <trkpt lat="42.95372" lon="-0.33635">
        <ele>1486</ele>
        <time>2013-01-08T07:33:47Z</time>
      </trkpt>
      <trkpt lat="42.95371" lon="-0.33637">
        <ele>1486.8000488281</ele>
        <time>2013-01-08T07:33:50Z</time>
      </trkpt>
      <trkpt lat="42.95365" lon="-0.33641">
        <ele>1489</ele>
        <time>2013-01-08T07:34:00Z</time>
      </trkpt>
      <trkpt lat="42.9536" lon="-0.33644">
        <ele>1490.8000488281</ele>
        <time>2013-01-08T07:34:09Z</time>
      </trkpt>
      <trkpt lat="42.95356" lon="-0.33645">
        <ele>1492.5999755859</ele>
        <time>2013-01-08T07:34:17Z</time>
      </trkpt>
      <trkpt lat="42.9535" lon="-0.33646">
        <ele>1494.5999755859</ele>
        <time>2013-01-08T07:34:26Z</time>
      </trkpt>
      <trkpt lat="42.95344" lon="-0.33646">
        <ele>1496.5999755859</ele>
        <time>2013-01-08T07:34:34Z</time>
      </trkpt>
      <trkpt lat="42.95338" lon="-0.33644">
        <ele>1499</ele>
        <time>2013-01-08T07:34:43Z</time>
      </trkpt>
      <trkpt lat="42.95333" lon="-0.33646">
        <ele>1500.5999755859</ele>
        <time>2013-01-08T07:34:51Z</time>
      </trkpt>
      <trkpt lat="42.95327" lon="-0.33648">
        <ele>1502.5999755859</ele>
        <time>2013-01-08T07:35:02Z</time>
      </trkpt>
      <trkpt lat="42.95322" lon="-0.33649">
        <ele>1504</ele>
        <time>2013-01-08T07:35:11Z</time>
      </trkpt>
      <trkpt lat="42.95317" lon="-0.3365">
        <ele>1505.1999511719</ele>
        <time>2013-01-08T07:35:20Z</time>
      </trkpt>
      <trkpt lat="42.95312" lon="-0.33651">
        <ele>1506.5999755859</ele>
        <time>2013-01-08T07:35:30Z</time>
      </trkpt>
      <trkpt lat="42.95308" lon="-0.33652">
        <ele>1507.8000488281</ele>
        <time>2013-01-08T07:35:39Z</time>
      </trkpt>
      <trkpt lat="42.95303" lon="-0.33651">
        <ele>1509.1999511719</ele>
        <time>2013-01-08T07:35:46Z</time>
      </trkpt>
      <trkpt lat="42.95299" lon="-0.3365">
        <ele>1510</ele>
        <time>2013-01-08T07:35:52Z</time>
      </trkpt>
      <trkpt lat="42.95297" lon="-0.3365">
        <ele>1510.5999755859</ele>
        <time>2013-01-08T07:35:57Z</time>
      </trkpt>
      <trkpt lat="42.95292" lon="-0.33649">
        <ele>1511.8000488281</ele>
        <time>2013-01-08T07:36:05Z</time>
      </trkpt>
      <trkpt lat="42.95289" lon="-0.3365">
        <ele>1512.5999755859</ele>
        <time>2013-01-08T07:36:11Z</time>
      </trkpt>
      <trkpt lat="42.95287" lon="-0.33649">
        <ele>1513.4000244141</ele>
        <time>2013-01-08T07:36:16Z</time>
      </trkpt>
      <trkpt lat="42.95283" lon="-0.33649">
        <ele>1514.4000244141</ele>
        <time>2013-01-08T07:36:22Z</time>
      </trkpt>
      <trkpt lat="42.95278" lon="-0.33652">
        <ele>1515.5999755859</ele>
        <time>2013-01-08T07:36:32Z</time>
      </trkpt>
      <trkpt lat="42.95276" lon="-0.33654">
        <ele>1516.1999511719</ele>
        <time>2013-01-08T07:36:38Z</time>
      </trkpt>
      <trkpt lat="42.95271" lon="-0.33653">
        <ele>1517.4000244141</ele>
        <time>2013-01-08T07:36:46Z</time>
      </trkpt>
      <trkpt lat="42.95269" lon="-0.33654">
        <ele>1518</ele>
        <time>2013-01-08T07:36:51Z</time>
      </trkpt>
      <trkpt lat="42.95263" lon="-0.33652">
        <ele>1519.5999755859</ele>
        <time>2013-01-08T07:37:00Z</time>
      </trkpt>
      <trkpt lat="42.95259" lon="-0.33651">
        <ele>1520.5999755859</ele>
        <time>2013-01-08T07:37:08Z</time>
      </trkpt>
      <trkpt lat="42.95257" lon="-0.33648">
        <ele>1521.4000244141</ele>
        <time>2013-01-08T07:37:14Z</time>
      </trkpt>
      <trkpt lat="42.95255" lon="-0.33648">
        <ele>1521.8000488281</ele>
        <time>2013-01-08T07:37:19Z</time>
      </trkpt>
      <trkpt lat="42.95253" lon="-0.33651">
        <ele>1522.4000244141</ele>
        <time>2013-01-08T07:37:25Z</time>
      </trkpt>
      <trkpt lat="42.9525" lon="-0.33651">
        <ele>1523.1999511719</ele>
        <time>2013-01-08T07:37:31Z</time>
      </trkpt>
      <trkpt lat="42.95246" lon="-0.33648">
        <ele>1524.1999511719</ele>
        <time>2013-01-08T07:37:38Z</time>
      </trkpt>
      <trkpt lat="42.95242" lon="-0.3365">
        <ele>1525.1999511719</ele>
        <time>2013-01-08T07:37:46Z</time>
      </trkpt>
      <trkpt lat="42.9524" lon="-0.33651">
        <ele>1526</ele>
        <time>2013-01-08T07:37:51Z</time>
      </trkpt>
      <trkpt lat="42.95239" lon="-0.33654">
        <ele>1526.1999511719</ele>
        <time>2013-01-08T07:37:57Z</time>
      </trkpt>
      <trkpt lat="42.95236" lon="-0.3365">
        <ele>1527</ele>
        <time>2013-01-08T07:38:04Z</time>
      </trkpt>
      <trkpt lat="42.9523" lon="-0.33642">
        <ele>1528.5999755859</ele>
        <time>2013-01-08T07:38:19Z</time>
      </trkpt>
      <trkpt lat="42.95227" lon="-0.33642">
        <ele>1529.1999511719</ele>
        <time>2013-01-08T07:38:25Z</time>
      </trkpt>
      <trkpt lat="42.95224" lon="-0.3364">
        <ele>1530.1999511719</ele>
        <time>2013-01-08T07:38:35Z</time>
      </trkpt>
      <trkpt lat="42.95222" lon="-0.33639">
        <ele>1530.5999755859</ele>
        <time>2013-01-08T07:38:43Z</time>
      </trkpt>
      <trkpt lat="42.95216" lon="-0.33639">
        <ele>1532</ele>
        <time>2013-01-08T07:38:55Z</time>
      </trkpt>
      <trkpt lat="42.95213" lon="-0.3364">
        <ele>1532.8000488281</ele>
        <time>2013-01-08T07:39:02Z</time>
      </trkpt>
      <trkpt lat="42.95211" lon="-0.3364">
        <ele>1533.4000244141</ele>
        <time>2013-01-08T07:39:07Z</time>
      </trkpt>
      <trkpt lat="42.95207" lon="-0.33643">
        <ele>1534.5999755859</ele>
        <time>2013-01-08T07:39:13Z</time>
      </trkpt>
      <trkpt lat="42.95206" lon="-0.33643">
        <ele>1535</ele>
        <time>2013-01-08T07:39:15Z</time>
      </trkpt>
      <trkpt lat="42.95202" lon="-0.33644">
        <ele>1536</ele>
        <time>2013-01-08T07:39:20Z</time>
      </trkpt>
      <trkpt lat="42.95199" lon="-0.33643">
        <ele>1536.8000488281</ele>
        <time>2013-01-08T07:39:26Z</time>
      </trkpt>
      <trkpt lat="42.95196" lon="-0.33641">
        <ele>1537.4000244141</ele>
        <time>2013-01-08T07:39:35Z</time>
      </trkpt>
      <trkpt lat="42.95192" lon="-0.33636">
        <ele>1538.1999511719</ele>
        <time>2013-01-08T07:39:43Z</time>
      </trkpt>
      <trkpt lat="42.9519" lon="-0.33633">
        <ele>1538.4000244141</ele>
        <time>2013-01-08T07:39:49Z</time>
      </trkpt>
      <trkpt lat="42.95189" lon="-0.33631">
        <ele>1538.5999755859</ele>
        <time>2013-01-08T07:39:54Z</time>
      </trkpt>
      <trkpt lat="42.95188" lon="-0.33628">
        <ele>1538.4000244141</ele>
        <time>2013-01-08T07:40:01Z</time>
      </trkpt>
      <trkpt lat="42.95187" lon="-0.33625">
        <ele>1538.5999755859</ele>
        <time>2013-01-08T07:40:06Z</time>
      </trkpt>
      <trkpt lat="42.95183" lon="-0.33619">
        <ele>1539</ele>
        <time>2013-01-08T07:40:15Z</time>
      </trkpt>
      <trkpt lat="42.95178" lon="-0.33612">
        <ele>1539.4000244141</ele>
        <time>2013-01-08T07:40:25Z</time>
      </trkpt>
      <trkpt lat="42.95174" lon="-0.33606">
        <ele>1539.8000488281</ele>
        <time>2013-01-08T07:40:34Z</time>
      </trkpt>
      <trkpt lat="42.95169" lon="-0.33603">
        <ele>1540.5999755859</ele>
        <time>2013-01-08T07:40:43Z</time>
      </trkpt>
      <trkpt lat="42.95164" lon="-0.33599">
        <ele>1541.4000244141</ele>
        <time>2013-01-08T07:40:51Z</time>
      </trkpt>
      <trkpt lat="42.95163" lon="-0.33598">
        <ele>1541.5999755859</ele>
        <time>2013-01-08T07:40:53Z</time>
      </trkpt>
      <trkpt lat="42.95156" lon="-0.33596">
        <ele>1542.8000488281</ele>
        <time>2013-01-08T07:41:03Z</time>
      </trkpt>
      <trkpt lat="42.95151" lon="-0.33596">
        <ele>1544.1999511719</ele>
        <time>2013-01-08T07:41:11Z</time>
      </trkpt>
      <trkpt lat="42.95146" lon="-0.33596">
        <ele>1545.5999755859</ele>
        <time>2013-01-08T07:41:20Z</time>
      </trkpt>
      <trkpt lat="42.95141" lon="-0.33595">
        <ele>1546.8000488281</ele>
        <time>2013-01-08T07:41:29Z</time>
      </trkpt>
      <trkpt lat="42.95138" lon="-0.33595">
        <ele>1547.4000244141</ele>
        <time>2013-01-08T07:41:38Z</time>
      </trkpt>
      <trkpt lat="42.95137" lon="-0.33595">
        <ele>1547.5999755859</ele>
        <time>2013-01-08T07:41:49Z</time>
      </trkpt>
      <trkpt lat="42.95137" lon="-0.33596">
        <ele>1547.5999755859</ele>
        <time>2013-01-08T07:41:55Z</time>
      </trkpt>
      <trkpt lat="42.95136" lon="-0.33597">
        <ele>1548.1999511719</ele>
        <time>2013-01-08T07:42:02Z</time>
      </trkpt>
      <trkpt lat="42.95134" lon="-0.33598">
        <ele>1548.8000488281</ele>
        <time>2013-01-08T07:42:06Z</time>
      </trkpt>
      <trkpt lat="42.95131" lon="-0.33599">
        <ele>1549.8000488281</ele>
        <time>2013-01-08T07:42:10Z</time>
      </trkpt>
      <trkpt lat="42.95125" lon="-0.33603">
        <ele>1552</ele>
        <time>2013-01-08T07:42:19Z</time>
      </trkpt>
      <trkpt lat="42.95121" lon="-0.33606">
        <ele>1553.5999755859</ele>
        <time>2013-01-08T07:42:27Z</time>
      </trkpt>
      <trkpt lat="42.95114" lon="-0.33607">
        <ele>1555.4000244141</ele>
        <time>2013-01-08T07:42:37Z</time>
      </trkpt>
      <trkpt lat="42.95112" lon="-0.33609">
        <ele>1556.4000244141</ele>
        <time>2013-01-08T07:42:42Z</time>
      </trkpt>
      <trkpt lat="42.95109" lon="-0.33607">
        <ele>1557</ele>
        <time>2013-01-08T07:42:47Z</time>
      </trkpt>
      <trkpt lat="42.95104" lon="-0.33608">
        <ele>1558.1999511719</ele>
        <time>2013-01-08T07:42:54Z</time>
      </trkpt>
      <trkpt lat="42.95103" lon="-0.33607">
        <ele>1558.4000244141</ele>
        <time>2013-01-08T07:42:56Z</time>
      </trkpt>
      <trkpt lat="42.95101" lon="-0.33606">
        <ele>1558.8000488281</ele>
        <time>2013-01-08T07:43:00Z</time>
      </trkpt>
      <trkpt lat="42.95099" lon="-0.33605">
        <ele>1559.1999511719</ele>
        <time>2013-01-08T07:43:06Z</time>
      </trkpt>
      <trkpt lat="42.95098" lon="-0.33604">
        <ele>1559.1999511719</ele>
        <time>2013-01-08T07:43:08Z</time>
      </trkpt>
      <trkpt lat="42.95095" lon="-0.33602">
        <ele>1559.5999755859</ele>
        <time>2013-01-08T07:43:13Z</time>
      </trkpt>
      <trkpt lat="42.95092" lon="-0.33596">
        <ele>1559.4000244141</ele>
        <time>2013-01-08T07:43:20Z</time>
      </trkpt>
      <trkpt lat="42.9509" lon="-0.33593">
        <ele>1559.1999511719</ele>
        <time>2013-01-08T07:43:26Z</time>
      </trkpt>
      <trkpt lat="42.9509" lon="-0.33588">
        <ele>1558.1999511719</ele>
        <time>2013-01-08T07:43:45Z</time>
      </trkpt>
      <trkpt lat="42.95092" lon="-0.33589">
        <ele>1558</ele>
        <time>2013-01-08T07:43:51Z</time>
      </trkpt>
      <trkpt lat="42.95093" lon="-0.33591">
        <ele>1558</ele>
        <time>2013-01-08T07:43:57Z</time>
      </trkpt>
      <trkpt lat="42.95092" lon="-0.33592">
        <ele>1558.5999755859</ele>
        <time>2013-01-08T07:44:03Z</time>
      </trkpt>
      <trkpt lat="42.9509" lon="-0.33589">
        <ele>1558.4000244141</ele>
        <time>2013-01-08T07:44:06Z</time>
      </trkpt>
      <trkpt lat="42.95088" lon="-0.33586">
        <ele>1558.4000244141</ele>
        <time>2013-01-08T07:44:10Z</time>
      </trkpt>
      <trkpt lat="42.95086" lon="-0.33584">
        <ele>1558.5999755859</ele>
        <time>2013-01-08T07:44:15Z</time>
      </trkpt>
      <trkpt lat="42.95083" lon="-0.33582">
        <ele>1559</ele>
        <time>2013-01-08T07:44:21Z</time>
      </trkpt>
      <trkpt lat="42.95082" lon="-0.33581">
        <ele>1559.1999511719</ele>
        <time>2013-01-08T07:44:22Z</time>
      </trkpt>
      <trkpt lat="42.95077" lon="-0.33581">
        <ele>1560.8000488281</ele>
        <time>2013-01-08T07:44:31Z</time>
      </trkpt>
      <trkpt lat="42.95075" lon="-0.33583">
        <ele>1561.5999755859</ele>
        <time>2013-01-08T07:44:37Z</time>
      </trkpt>
      <trkpt lat="42.95073" lon="-0.33585">
        <ele>1562.4000244141</ele>
        <time>2013-01-08T07:44:42Z</time>
      </trkpt>
      <trkpt lat="42.95071" lon="-0.33587">
        <ele>1563.4000244141</ele>
        <time>2013-01-08T07:44:47Z</time>
      </trkpt>
      <trkpt lat="42.9507" lon="-0.3359">
        <ele>1564.1999511719</ele>
        <time>2013-01-08T07:44:52Z</time>
      </trkpt>
      <trkpt lat="42.95067" lon="-0.33595">
        <ele>1566.1999511719</ele>
        <time>2013-01-08T07:45:01Z</time>
      </trkpt>
      <trkpt lat="42.95064" lon="-0.33596">
        <ele>1567.1999511719</ele>
        <time>2013-01-08T07:45:08Z</time>
      </trkpt>
      <trkpt lat="42.95062" lon="-0.33594">
        <ele>1567.5999755859</ele>
        <time>2013-01-08T07:45:15Z</time>
      </trkpt>
      <trkpt lat="42.95059" lon="-0.33593">
        <ele>1568</ele>
        <time>2013-01-08T07:45:21Z</time>
      </trkpt>
      <trkpt lat="42.95057" lon="-0.33595">
        <ele>1569.1999511719</ele>
        <time>2013-01-08T07:45:27Z</time>
      </trkpt>
      <trkpt lat="42.95056" lon="-0.33598">
        <ele>1570</ele>
        <time>2013-01-08T07:45:33Z</time>
      </trkpt>
      <trkpt lat="42.95054" lon="-0.33595">
        <ele>1570</ele>
        <time>2013-01-08T07:45:38Z</time>
      </trkpt>
      <trkpt lat="42.95053" lon="-0.33594">
        <ele>1570</ele>
        <time>2013-01-08T07:45:40Z</time>
      </trkpt>
      <trkpt lat="42.95053" lon="-0.33592">
        <ele>1569.8000488281</ele>
        <time>2013-01-08T07:45:42Z</time>
      </trkpt>
      <trkpt lat="42.95051" lon="-0.3359">
        <ele>1570</ele>
        <time>2013-01-08T07:45:46Z</time>
      </trkpt>
      <trkpt lat="42.95048" lon="-0.3359">
        <ele>1571.1999511719</ele>
        <time>2013-01-08T07:45:53Z</time>
      </trkpt>
      <trkpt lat="42.95044" lon="-0.33588">
        <ele>1571.8000488281</ele>
        <time>2013-01-08T07:46:00Z</time>
      </trkpt>
      <trkpt lat="42.95039" lon="-0.33585">
        <ele>1573</ele>
        <time>2013-01-08T07:46:09Z</time>
      </trkpt>
      <trkpt lat="42.95035" lon="-0.33585">
        <ele>1574.1999511719</ele>
        <time>2013-01-08T07:46:16Z</time>
      </trkpt>
      <trkpt lat="42.9503" lon="-0.33586">
        <ele>1576</ele>
        <time>2013-01-08T07:46:25Z</time>
      </trkpt>
      <trkpt lat="42.95025" lon="-0.3359">
        <ele>1578</ele>
        <time>2013-01-08T07:46:34Z</time>
      </trkpt>
      <trkpt lat="42.95021" lon="-0.33594">
        <ele>1579.8000488281</ele>
        <time>2013-01-08T07:46:44Z</time>
      </trkpt>
      <trkpt lat="42.95019" lon="-0.33599">
        <ele>1581.1999511719</ele>
        <time>2013-01-08T07:46:53Z</time>
      </trkpt>
      <trkpt lat="42.95017" lon="-0.33603">
        <ele>1582</ele>
        <time>2013-01-08T07:47:01Z</time>
      </trkpt>
      <trkpt lat="42.95015" lon="-0.33606">
        <ele>1583.1999511719</ele>
        <time>2013-01-08T07:47:08Z</time>
      </trkpt>
      <trkpt lat="42.95012" lon="-0.33612">
        <ele>1584.5999755859</ele>
        <time>2013-01-08T07:47:17Z</time>
      </trkpt>
      <trkpt lat="42.9501" lon="-0.3362">
        <ele>1586.1999511719</ele>
        <time>2013-01-08T07:47:28Z</time>
      </trkpt>
      <trkpt lat="42.95008" lon="-0.33628">
        <ele>1587.4000244141</ele>
        <time>2013-01-08T07:47:38Z</time>
      </trkpt>
      <trkpt lat="42.95009" lon="-0.33636">
        <ele>1588.4000244141</ele>
        <time>2013-01-08T07:47:48Z</time>
      </trkpt>
      <trkpt lat="42.95011" lon="-0.33644">
        <ele>1588.5999755859</ele>
        <time>2013-01-08T07:47:57Z</time>
      </trkpt>
      <trkpt lat="42.95013" lon="-0.33652">
        <ele>1589.1999511719</ele>
        <time>2013-01-08T07:48:07Z</time>
      </trkpt>
      <trkpt lat="42.95014" lon="-0.33659">
        <ele>1589.8000488281</ele>
        <time>2013-01-08T07:48:16Z</time>
      </trkpt>
      <trkpt lat="42.95015" lon="-0.33667">
        <ele>1590.5999755859</ele>
        <time>2013-01-08T07:48:26Z</time>
      </trkpt>
      <trkpt lat="42.95016" lon="-0.33672">
        <ele>1591</ele>
        <time>2013-01-08T07:48:34Z</time>
      </trkpt>
      <trkpt lat="42.95017" lon="-0.33675">
        <ele>1591.1999511719</ele>
        <time>2013-01-08T07:48:51Z</time>
      </trkpt>
      <trkpt lat="42.95015" lon="-0.33674">
        <ele>1591.4000244141</ele>
        <time>2013-01-08T07:49:02Z</time>
      </trkpt>
      <trkpt lat="42.95014" lon="-0.33672">
        <ele>1591.4000244141</ele>
        <time>2013-01-08T07:49:09Z</time>
      </trkpt>
      <trkpt lat="42.95013" lon="-0.33672">
        <ele>1591.5999755859</ele>
        <time>2013-01-08T07:49:16Z</time>
      </trkpt>
      <trkpt lat="42.95013" lon="-0.33673">
        <ele>1591.8000488281</ele>
        <time>2013-01-08T07:49:17Z</time>
      </trkpt>
      <trkpt lat="42.95013" lon="-0.33673">
        <ele>1591.8000488281</ele>
        <time>2013-01-08T07:49:27Z</time>
      </trkpt>
      <trkpt lat="42.95013" lon="-0.33673">
        <ele>1591.8000488281</ele>
        <time>2013-01-08T07:49:29Z</time>
      </trkpt>
      <trkpt lat="42.95013" lon="-0.33674">
        <ele>1591.8000488281</ele>
        <time>2013-01-08T07:49:31Z</time>
      </trkpt>
      <trkpt lat="42.95013" lon="-0.33673">
        <ele>1591.8000488281</ele>
        <time>2013-01-08T07:49:35Z</time>
      </trkpt>
      <trkpt lat="42.95012" lon="-0.33674">
        <ele>1592</ele>
        <time>2013-01-08T07:49:45Z</time>
      </trkpt>
      <trkpt lat="42.95012" lon="-0.33673">
        <ele>1592</ele>
        <time>2013-01-08T07:49:50Z</time>
      </trkpt>
      <trkpt lat="42.95012" lon="-0.33673">
        <ele>1592</ele>
        <time>2013-01-08T07:49:54Z</time>
      </trkpt>
      <trkpt lat="42.95012" lon="-0.33674">
        <ele>1592</ele>
        <time>2013-01-08T07:49:57Z</time>
      </trkpt>
      <trkpt lat="42.95013" lon="-0.33673">
        <ele>1591.8000488281</ele>
        <time>2013-01-08T07:50:15Z</time>
      </trkpt>
      <trkpt lat="42.95014" lon="-0.33674">
        <ele>1591.5999755859</ele>
        <time>2013-01-08T07:50:16Z</time>
      </trkpt>
      <trkpt lat="42.95014" lon="-0.33674">
        <ele>1591.5999755859</ele>
        <time>2013-01-08T07:50:21Z</time>
      </trkpt>
      <trkpt lat="42.95014" lon="-0.33673">
        <ele>1591.5999755859</ele>
        <time>2013-01-08T07:50:27Z</time>
      </trkpt>
      <trkpt lat="42.95013" lon="-0.33673">
        <ele>1591.8000488281</ele>
        <time>2013-01-08T07:50:34Z</time>
      </trkpt>
      <trkpt lat="42.95013" lon="-0.33673">
        <ele>1591.5999755859</ele>
        <time>2013-01-08T07:50:41Z</time>
      </trkpt>
      <trkpt lat="42.95013" lon="-0.33672">
        <ele>1591.5999755859</ele>
        <time>2013-01-08T07:50:45Z</time>
      </trkpt>
      <trkpt lat="42.95012" lon="-0.3367">
        <ele>1591.5999755859</ele>
        <time>2013-01-08T07:50:52Z</time>
      </trkpt>
      <trkpt lat="42.9501" lon="-0.3367">
        <ele>1592</ele>
        <time>2013-01-08T07:50:57Z</time>
      </trkpt>
      <trkpt lat="42.95009" lon="-0.33669">
        <ele>1592.1999511719</ele>
        <time>2013-01-08T07:50:59Z</time>
      </trkpt>
      <trkpt lat="42.95007" lon="-0.33669">
        <ele>1592.5999755859</ele>
        <time>2013-01-08T07:51:03Z</time>
      </trkpt>
      <trkpt lat="42.95008" lon="-0.33668">
        <ele>1592.4000244141</ele>
        <time>2013-01-08T07:51:08Z</time>
      </trkpt>
      <trkpt lat="42.9501" lon="-0.33668">
        <ele>1591.8000488281</ele>
        <time>2013-01-08T07:51:12Z</time>
      </trkpt>
      <trkpt lat="42.95011" lon="-0.33668">
        <ele>1591.5999755859</ele>
        <time>2013-01-08T07:51:16Z</time>
      </trkpt>
      <trkpt lat="42.95011" lon="-0.33669">
        <ele>1591.8000488281</ele>
        <time>2013-01-08T07:51:20Z</time>
      </trkpt>
      <trkpt lat="42.95013" lon="-0.33674">
        <ele>1592</ele>
        <time>2013-01-08T07:51:41Z</time>
      </trkpt>
      <trkpt lat="42.95013" lon="-0.33673">
        <ele>1591.8000488281</ele>
        <time>2013-01-08T07:51:43Z</time>
      </trkpt>
      <trkpt lat="42.95011" lon="-0.33678">
        <ele>1592.8000488281</ele>
        <time>2013-01-08T07:52:04Z</time>
      </trkpt>
      <trkpt lat="42.95008" lon="-0.33684">
        <ele>1594</ele>
        <time>2013-01-08T07:52:12Z</time>
      </trkpt>
      <trkpt lat="42.95006" lon="-0.33685">
        <ele>1594.4000244141</ele>
        <time>2013-01-08T07:52:17Z</time>
      </trkpt>
      <trkpt lat="42.95003" lon="-0.33686">
        <ele>1595</ele>
        <time>2013-01-08T07:52:23Z</time>
      </trkpt>
      <trkpt lat="42.95003" lon="-0.33687">
        <ele>1595.1999511719</ele>
        <time>2013-01-08T07:52:24Z</time>
      </trkpt>
      <trkpt lat="42.95001" lon="-0.33688">
        <ele>1595.5999755859</ele>
        <time>2013-01-08T07:52:29Z</time>
      </trkpt>
      <trkpt lat="42.94999" lon="-0.3369">
        <ele>1596.4000244141</ele>
        <time>2013-01-08T07:52:35Z</time>
      </trkpt>
      <trkpt lat="42.94996" lon="-0.33692">
        <ele>1597.5999755859</ele>
        <time>2013-01-08T07:52:41Z</time>
      </trkpt>
      <trkpt lat="42.94993" lon="-0.33695">
        <ele>1598.5999755859</ele>
        <time>2013-01-08T07:52:44Z</time>
      </trkpt>
      <trkpt lat="42.94989" lon="-0.33696">
        <ele>1599.8000488281</ele>
        <time>2013-01-08T07:52:51Z</time>
      </trkpt>
      <trkpt lat="42.94984" lon="-0.33695">
        <ele>1601</ele>
        <time>2013-01-08T07:52:58Z</time>
      </trkpt>
      <trkpt lat="42.94981" lon="-0.33695">
        <ele>1602</ele>
        <time>2013-01-08T07:53:03Z</time>
      </trkpt>
      <trkpt lat="42.94974" lon="-0.33692">
        <ele>1603.5999755859</ele>
        <time>2013-01-08T07:53:13Z</time>
      </trkpt>
      <trkpt lat="42.94974" lon="-0.33692">
        <ele>1603.5999755859</ele>
        <time>2013-01-08T07:53:14Z</time>
      </trkpt>
      <trkpt lat="42.94968" lon="-0.33689">
        <ele>1605.1999511719</ele>
        <time>2013-01-08T07:53:25Z</time>
      </trkpt>
      <trkpt lat="42.94963" lon="-0.33683">
        <ele>1606.1999511719</ele>
        <time>2013-01-08T07:53:33Z</time>
      </trkpt>
      <trkpt lat="42.94958" lon="-0.3368">
        <ele>1607.4000244141</ele>
        <time>2013-01-08T07:53:42Z</time>
      </trkpt>
      <trkpt lat="42.94955" lon="-0.33677">
        <ele>1608</ele>
        <time>2013-01-08T07:53:48Z</time>
      </trkpt>
      <trkpt lat="42.94949" lon="-0.33672">
        <ele>1609.4000244141</ele>
        <time>2013-01-08T07:53:57Z</time>
      </trkpt>
      <trkpt lat="42.94945" lon="-0.33668">
        <ele>1610.4000244141</ele>
        <time>2013-01-08T07:54:05Z</time>
      </trkpt>
      <trkpt lat="42.94941" lon="-0.33661">
        <ele>1611.4000244141</ele>
        <time>2013-01-08T07:54:15Z</time>
      </trkpt>
      <trkpt lat="42.94936" lon="-0.33654">
        <ele>1612.4000244141</ele>
        <time>2013-01-08T07:54:25Z</time>
      </trkpt>
      <trkpt lat="42.94933" lon="-0.3365">
        <ele>1613</ele>
        <time>2013-01-08T07:54:31Z</time>
      </trkpt>
      <trkpt lat="42.94929" lon="-0.33643">
        <ele>1614.1999511719</ele>
        <time>2013-01-08T07:54:39Z</time>
      </trkpt>
      <trkpt lat="42.94925" lon="-0.33642">
        <ele>1615.1999511719</ele>
        <time>2013-01-08T07:54:46Z</time>
      </trkpt>
      <trkpt lat="42.94923" lon="-0.33639">
        <ele>1615.8000488281</ele>
        <time>2013-01-08T07:54:53Z</time>
      </trkpt>
      <trkpt lat="42.94918" lon="-0.33631">
        <ele>1617.1999511719</ele>
        <time>2013-01-08T07:55:04Z</time>
      </trkpt>
      <trkpt lat="42.94914" lon="-0.33627">
        <ele>1618.1999511719</ele>
        <time>2013-01-08T07:55:14Z</time>
      </trkpt>
      <trkpt lat="42.94911" lon="-0.33622">
        <ele>1619.1999511719</ele>
        <time>2013-01-08T07:55:23Z</time>
      </trkpt>
      <trkpt lat="42.94908" lon="-0.33619">
        <ele>1620</ele>
        <time>2013-01-08T07:55:30Z</time>
      </trkpt>
      <trkpt lat="42.94904" lon="-0.33613">
        <ele>1620.8000488281</ele>
        <time>2013-01-08T07:55:39Z</time>
      </trkpt>
      <trkpt lat="42.949" lon="-0.33605">
        <ele>1621.8000488281</ele>
        <time>2013-01-08T07:55:49Z</time>
      </trkpt>
      <trkpt lat="42.94896" lon="-0.33598">
        <ele>1622.8000488281</ele>
        <time>2013-01-08T07:56:00Z</time>
      </trkpt>
      <trkpt lat="42.94891" lon="-0.33593">
        <ele>1623.8000488281</ele>
        <time>2013-01-08T07:56:09Z</time>
      </trkpt>
      <trkpt lat="42.94886" lon="-0.33589">
        <ele>1625.1999511719</ele>
        <time>2013-01-08T07:56:20Z</time>
      </trkpt>
      <trkpt lat="42.94882" lon="-0.33586">
        <ele>1626.1999511719</ele>
        <time>2013-01-08T07:56:29Z</time>
      </trkpt>
      <trkpt lat="42.9488" lon="-0.33584">
        <ele>1626.4000244141</ele>
        <time>2013-01-08T07:56:32Z</time>
      </trkpt>
      <trkpt lat="42.94875" lon="-0.33582">
        <ele>1627.8000488281</ele>
        <time>2013-01-08T07:56:42Z</time>
      </trkpt>
      <trkpt lat="42.94868" lon="-0.33579">
        <ele>1629.1999511719</ele>
        <time>2013-01-08T07:56:54Z</time>
      </trkpt>
      <trkpt lat="42.94862" lon="-0.33575">
        <ele>1630.4000244141</ele>
        <time>2013-01-08T07:57:05Z</time>
      </trkpt>
      <trkpt lat="42.94856" lon="-0.33571">
        <ele>1631.5999755859</ele>
        <time>2013-01-08T07:57:15Z</time>
      </trkpt>
      <trkpt lat="42.9485" lon="-0.33571">
        <ele>1633.4000244141</ele>
        <time>2013-01-08T07:57:25Z</time>
      </trkpt>
      <trkpt lat="42.94842" lon="-0.3357">
        <ele>1635.1999511719</ele>
        <time>2013-01-08T07:57:36Z</time>
      </trkpt>
      <trkpt lat="42.94836" lon="-0.33568">
        <ele>1636.5999755859</ele>
        <time>2013-01-08T07:57:44Z</time>
      </trkpt>
      <trkpt lat="42.9483" lon="-0.33565">
        <ele>1638</ele>
        <time>2013-01-08T07:57:53Z</time>
      </trkpt>
      <trkpt lat="42.94824" lon="-0.33565">
        <ele>1639.4000244141</ele>
        <time>2013-01-08T07:58:01Z</time>
      </trkpt>
      <trkpt lat="42.94817" lon="-0.33563">
        <ele>1641</ele>
        <time>2013-01-08T07:58:10Z</time>
      </trkpt>
      <trkpt lat="42.9481" lon="-0.33564">
        <ele>1643</ele>
        <time>2013-01-08T07:58:20Z</time>
      </trkpt>
      <trkpt lat="42.94806" lon="-0.33565">
        <ele>1644.5999755859</ele>
        <time>2013-01-08T07:58:27Z</time>
      </trkpt>
      <trkpt lat="42.94798" lon="-0.33565">
        <ele>1646.4000244141</ele>
        <time>2013-01-08T07:58:37Z</time>
      </trkpt>
      <trkpt lat="42.94793" lon="-0.33566">
        <ele>1648.1999511719</ele>
        <time>2013-01-08T07:58:45Z</time>
      </trkpt>
      <trkpt lat="42.94786" lon="-0.33566">
        <ele>1650</ele>
        <time>2013-01-08T07:58:55Z</time>
      </trkpt>
      <trkpt lat="42.94781" lon="-0.33564">
        <ele>1651</ele>
        <time>2013-01-08T07:59:01Z</time>
      </trkpt>
      <trkpt lat="42.94777" lon="-0.33561">
        <ele>1651.4000244141</ele>
        <time>2013-01-08T07:59:08Z</time>
      </trkpt>
      <trkpt lat="42.94773" lon="-0.33558">
        <ele>1651.4000244141</ele>
        <time>2013-01-08T07:59:14Z</time>
      </trkpt>
      <trkpt lat="42.9477" lon="-0.33557">
        <ele>1652.1999511719</ele>
        <time>2013-01-08T07:59:22Z</time>
      </trkpt>
      <trkpt lat="42.94765" lon="-0.33558">
        <ele>1653.8000488281</ele>
        <time>2013-01-08T07:59:32Z</time>
      </trkpt>
      <trkpt lat="42.94761" lon="-0.33556">
        <ele>1654</ele>
        <time>2013-01-08T07:59:39Z</time>
      </trkpt>
      <trkpt lat="42.94759" lon="-0.33553">
        <ele>1654</ele>
        <time>2013-01-08T07:59:45Z</time>
      </trkpt>
      <trkpt lat="42.94756" lon="-0.33557">
        <ele>1655.5999755859</ele>
        <time>2013-01-08T07:59:51Z</time>
      </trkpt>
      <trkpt lat="42.94753" lon="-0.33562">
        <ele>1658</ele>
        <time>2013-01-08T07:59:58Z</time>
      </trkpt>
      <trkpt lat="42.94752" lon="-0.33568">
        <ele>1659.8000488281</ele>
        <time>2013-01-08T08:00:02Z</time>
      </trkpt>
      <trkpt lat="42.94749" lon="-0.33577">
        <ele>1663.1999511719</ele>
        <time>2013-01-08T08:00:12Z</time>
      </trkpt>
      <trkpt lat="42.94752" lon="-0.3358">
        <ele>1663.4000244141</ele>
        <time>2013-01-08T08:00:53Z</time>
      </trkpt>
      <trkpt lat="42.94753" lon="-0.33581">
        <ele>1663.1999511719</ele>
        <time>2013-01-08T08:01:01Z</time>
      </trkpt>
      <trkpt lat="42.94753" lon="-0.33581">
        <ele>1663</ele>
        <time>2013-01-08T08:01:08Z</time>
      </trkpt>
      <trkpt lat="42.9475" lon="-0.33579">
        <ele>1663.8000488281</ele>
        <time>2013-01-08T08:01:14Z</time>
      </trkpt>
      <trkpt lat="42.94747" lon="-0.33579">
        <ele>1664.5999755859</ele>
        <time>2013-01-08T08:01:20Z</time>
      </trkpt>
      <trkpt lat="42.94745" lon="-0.33578">
        <ele>1665.1999511719</ele>
        <time>2013-01-08T08:01:25Z</time>
      </trkpt>
      <trkpt lat="42.94738" lon="-0.33571">
        <ele>1665.5999755859</ele>
        <time>2013-01-08T08:01:35Z</time>
      </trkpt>
      <trkpt lat="42.94737" lon="-0.3357">
        <ele>1665.8000488281</ele>
        <time>2013-01-08T08:01:36Z</time>
      </trkpt>
      <trkpt lat="42.94734" lon="-0.3357">
        <ele>1666.4000244141</ele>
        <time>2013-01-08T08:01:40Z</time>
      </trkpt>
      <trkpt lat="42.94733" lon="-0.33568">
        <ele>1666.4000244141</ele>
        <time>2013-01-08T08:01:43Z</time>
      </trkpt>
      <trkpt lat="42.94732" lon="-0.33569">
        <ele>1667</ele>
        <time>2013-01-08T08:01:44Z</time>
      </trkpt>
      <trkpt lat="42.94732" lon="-0.33576">
        <ele>1669</ele>
        <time>2013-01-08T08:01:49Z</time>
      </trkpt>
      <trkpt lat="42.94728" lon="-0.33593">
        <ele>1674.5999755859</ele>
        <time>2013-01-08T08:01:59Z</time>
      </trkpt>
      <trkpt lat="42.94727" lon="-0.33599">
        <ele>1676.1999511719</ele>
        <time>2013-01-08T08:02:06Z</time>
      </trkpt>
      <trkpt lat="42.94725" lon="-0.33598">
        <ele>1676.5999755859</ele>
        <time>2013-01-08T08:02:13Z</time>
      </trkpt>
      <trkpt lat="42.94723" lon="-0.33594">
        <ele>1676.5999755859</ele>
        <time>2013-01-08T08:02:18Z</time>
      </trkpt>
      <trkpt lat="42.94718" lon="-0.33587">
        <ele>1676.8000488281</ele>
        <time>2013-01-08T08:02:27Z</time>
      </trkpt>
      <trkpt lat="42.94712" lon="-0.33584">
        <ele>1678.4000244141</ele>
        <time>2013-01-08T08:02:39Z</time>
      </trkpt>
      <trkpt lat="42.94709" lon="-0.33583">
        <ele>1679.1999511719</ele>
        <time>2013-01-08T08:02:44Z</time>
      </trkpt>
      <trkpt lat="42.94705" lon="-0.33583">
        <ele>1680.4000244141</ele>
        <time>2013-01-08T08:02:51Z</time>
      </trkpt>
      <trkpt lat="42.94703" lon="-0.33589">
        <ele>1682.4000244141</ele>
        <time>2013-01-08T08:02:58Z</time>
      </trkpt>
      <trkpt lat="42.94702" lon="-0.33593">
        <ele>1683.5999755859</ele>
        <time>2013-01-08T08:03:01Z</time>
      </trkpt>
      <trkpt lat="42.94701" lon="-0.33598">
        <ele>1684.5999755859</ele>
        <time>2013-01-08T08:03:06Z</time>
      </trkpt>
      <trkpt lat="42.947" lon="-0.33602">
        <ele>1685.5999755859</ele>
        <time>2013-01-08T08:03:11Z</time>
      </trkpt>
      <trkpt lat="42.94699" lon="-0.33608">
        <ele>1687</ele>
        <time>2013-01-08T08:03:20Z</time>
      </trkpt>
      <trkpt lat="42.94698" lon="-0.33616">
        <ele>1689</ele>
        <time>2013-01-08T08:03:29Z</time>
      </trkpt>
      <trkpt lat="42.94696" lon="-0.33616">
        <ele>1689.5999755859</ele>
        <time>2013-01-08T08:03:36Z</time>
      </trkpt>
      <trkpt lat="42.94692" lon="-0.33613">
        <ele>1690</ele>
        <time>2013-01-08T08:03:42Z</time>
      </trkpt>
      <trkpt lat="42.94689" lon="-0.33611">
        <ele>1690.5999755859</ele>
        <time>2013-01-08T08:03:49Z</time>
      </trkpt>
      <trkpt lat="42.94686" lon="-0.33605">
        <ele>1690.8000488281</ele>
        <time>2013-01-08T08:03:56Z</time>
      </trkpt>
      <trkpt lat="42.94681" lon="-0.33614">
        <ele>1693.8000488281</ele>
        <time>2013-01-08T08:04:18Z</time>
      </trkpt>
      <trkpt lat="42.94677" lon="-0.33615">
        <ele>1695.1999511719</ele>
        <time>2013-01-08T08:04:23Z</time>
      </trkpt>
      <trkpt lat="42.94676" lon="-0.33616">
        <ele>1695.5999755859</ele>
        <time>2013-01-08T08:04:25Z</time>
      </trkpt>
      <trkpt lat="42.94673" lon="-0.33615">
        <ele>1696.5999755859</ele>
        <time>2013-01-08T08:04:31Z</time>
      </trkpt>
      <trkpt lat="42.9467" lon="-0.33619">
        <ele>1698</ele>
        <time>2013-01-08T08:04:40Z</time>
      </trkpt>
      <trkpt lat="42.94669" lon="-0.33624">
        <ele>1699</ele>
        <time>2013-01-08T08:04:46Z</time>
      </trkpt>
      <trkpt lat="42.94667" lon="-0.33625">
        <ele>1699.8000488281</ele>
        <time>2013-01-08T08:04:53Z</time>
      </trkpt>
      <trkpt lat="42.94664" lon="-0.33622">
        <ele>1699.8000488281</ele>
        <time>2013-01-08T08:05:01Z</time>
      </trkpt>
      <trkpt lat="42.9466" lon="-0.33619">
        <ele>1700.1999511719</ele>
        <time>2013-01-08T08:05:11Z</time>
      </trkpt>
      <trkpt lat="42.94656" lon="-0.33616">
        <ele>1700.5999755859</ele>
        <time>2013-01-08T08:05:19Z</time>
      </trkpt>
      <trkpt lat="42.94653" lon="-0.33617">
        <ele>1701.4000244141</ele>
        <time>2013-01-08T08:05:26Z</time>
      </trkpt>
      <trkpt lat="42.94652" lon="-0.33618">
        <ele>1701.8000488281</ele>
        <time>2013-01-08T08:05:27Z</time>
      </trkpt>
      <trkpt lat="42.9465" lon="-0.33622">
        <ele>1702.5999755859</ele>
        <time>2013-01-08T08:05:32Z</time>
      </trkpt>
      <trkpt lat="42.94649" lon="-0.33628">
        <ele>1703.8000488281</ele>
        <time>2013-01-08T08:05:39Z</time>
      </trkpt>
      <trkpt lat="42.94647" lon="-0.3363">
        <ele>1704.4000244141</ele>
        <time>2013-01-08T08:05:45Z</time>
      </trkpt>
      <trkpt lat="42.94645" lon="-0.33632">
        <ele>1705.1999511719</ele>
        <time>2013-01-08T08:05:51Z</time>
      </trkpt>
      <trkpt lat="42.94643" lon="-0.33633">
        <ele>1705.8000488281</ele>
        <time>2013-01-08T08:05:57Z</time>
      </trkpt>
      <trkpt lat="42.94639" lon="-0.33635">
        <ele>1706.8000488281</ele>
        <time>2013-01-08T08:06:06Z</time>
      </trkpt>
      <trkpt lat="42.94637" lon="-0.33636">
        <ele>1707.4000244141</ele>
        <time>2013-01-08T08:06:12Z</time>
      </trkpt>
      <trkpt lat="42.94633" lon="-0.33638">
        <ele>1708.5999755859</ele>
        <time>2013-01-08T08:06:21Z</time>
      </trkpt>
      <trkpt lat="42.9463" lon="-0.3364">
        <ele>1709.4000244141</ele>
        <time>2013-01-08T08:06:27Z</time>
      </trkpt>
      <trkpt lat="42.94628" lon="-0.33642">
        <ele>1710.1999511719</ele>
        <time>2013-01-08T08:06:33Z</time>
      </trkpt>
      <trkpt lat="42.94624" lon="-0.33645">
        <ele>1711.4000244141</ele>
        <time>2013-01-08T08:06:42Z</time>
      </trkpt>
      <trkpt lat="42.94621" lon="-0.33647">
        <ele>1712.4000244141</ele>
        <time>2013-01-08T08:06:49Z</time>
      </trkpt>
      <trkpt lat="42.94618" lon="-0.3365">
        <ele>1713.5999755859</ele>
        <time>2013-01-08T08:06:58Z</time>
      </trkpt>
      <trkpt lat="42.94616" lon="-0.33651">
        <ele>1714.1999511719</ele>
        <time>2013-01-08T08:07:04Z</time>
      </trkpt>
      <trkpt lat="42.94611" lon="-0.33654">
        <ele>1715.5999755859</ele>
        <time>2013-01-08T08:07:14Z</time>
      </trkpt>
      <trkpt lat="42.94608" lon="-0.33657">
        <ele>1717</ele>
        <time>2013-01-08T08:07:23Z</time>
      </trkpt>
      <trkpt lat="42.94606" lon="-0.33659">
        <ele>1717.5999755859</ele>
        <time>2013-01-08T08:07:28Z</time>
      </trkpt>
      <trkpt lat="42.94604" lon="-0.3366">
        <ele>1718.1999511719</ele>
        <time>2013-01-08T08:07:33Z</time>
      </trkpt>
      <trkpt lat="42.94601" lon="-0.33661">
        <ele>1719</ele>
        <time>2013-01-08T08:07:40Z</time>
      </trkpt>
      <trkpt lat="42.94598" lon="-0.33662">
        <ele>1720</ele>
        <time>2013-01-08T08:07:47Z</time>
      </trkpt>
      <trkpt lat="42.94595" lon="-0.33662">
        <ele>1720.4000244141</ele>
        <time>2013-01-08T08:07:54Z</time>
      </trkpt>
      <trkpt lat="42.94592" lon="-0.33665">
        <ele>1721.5999755859</ele>
        <time>2013-01-08T08:08:01Z</time>
      </trkpt>
      <trkpt lat="42.9459" lon="-0.33667">
        <ele>1722.5999755859</ele>
        <time>2013-01-08T08:08:08Z</time>
      </trkpt>
      <trkpt lat="42.94588" lon="-0.3367">
        <ele>1723.1999511719</ele>
        <time>2013-01-08T08:08:14Z</time>
      </trkpt>
      <trkpt lat="42.94587" lon="-0.33674">
        <ele>1723.5999755859</ele>
        <time>2013-01-08T08:08:19Z</time>
      </trkpt>
      <trkpt lat="42.94585" lon="-0.33679">
        <ele>1724.5999755859</ele>
        <time>2013-01-08T08:08:28Z</time>
      </trkpt>
      <trkpt lat="42.94583" lon="-0.33682">
        <ele>1725.1999511719</ele>
        <time>2013-01-08T08:08:34Z</time>
      </trkpt>
      <trkpt lat="42.94582" lon="-0.33685">
        <ele>1725.8000488281</ele>
        <time>2013-01-08T08:08:39Z</time>
      </trkpt>
      <trkpt lat="42.9458" lon="-0.33689">
        <ele>1726.8000488281</ele>
        <time>2013-01-08T08:08:47Z</time>
      </trkpt>
      <trkpt lat="42.94577" lon="-0.33688">
        <ele>1727.4000244141</ele>
        <time>2013-01-08T08:08:54Z</time>
      </trkpt>
      <trkpt lat="42.94573" lon="-0.33687">
        <ele>1728.5999755859</ele>
        <time>2013-01-08T08:09:04Z</time>
      </trkpt>
      <trkpt lat="42.94568" lon="-0.33686">
        <ele>1729.8000488281</ele>
        <time>2013-01-08T08:09:14Z</time>
      </trkpt>
      <trkpt lat="42.94564" lon="-0.33688">
        <ele>1731.1999511719</ele>
        <time>2013-01-08T08:09:23Z</time>
      </trkpt>
      <trkpt lat="42.9456" lon="-0.33687">
        <ele>1732</ele>
        <time>2013-01-08T08:09:33Z</time>
      </trkpt>
      <trkpt lat="42.94558" lon="-0.33687">
        <ele>1732.5999755859</ele>
        <time>2013-01-08T08:09:39Z</time>
      </trkpt>
      <trkpt lat="42.94555" lon="-0.33689">
        <ele>1733.5999755859</ele>
        <time>2013-01-08T08:09:45Z</time>
      </trkpt>
      <trkpt lat="42.94552" lon="-0.3369">
        <ele>1734.8000488281</ele>
        <time>2013-01-08T08:09:54Z</time>
      </trkpt>
      <trkpt lat="42.94547" lon="-0.33691">
        <ele>1736</ele>
        <time>2013-01-08T08:10:04Z</time>
      </trkpt>
      <trkpt lat="42.94544" lon="-0.3369">
        <ele>1736.8000488281</ele>
        <time>2013-01-08T08:10:11Z</time>
      </trkpt>
      <trkpt lat="42.9454" lon="-0.3369">
        <ele>1738</ele>
        <time>2013-01-08T08:10:20Z</time>
      </trkpt>
      <trkpt lat="42.94536" lon="-0.3369">
        <ele>1739</ele>
        <time>2013-01-08T08:10:28Z</time>
      </trkpt>
      <trkpt lat="42.94532" lon="-0.33692">
        <ele>1740.4000244141</ele>
        <time>2013-01-08T08:10:38Z</time>
      </trkpt>
      <trkpt lat="42.9453" lon="-0.33693">
        <ele>1741.1999511719</ele>
        <time>2013-01-08T08:10:43Z</time>
      </trkpt>
      <trkpt lat="42.94525" lon="-0.33695">
        <ele>1742.8000488281</ele>
        <time>2013-01-08T08:10:54Z</time>
      </trkpt>
      <trkpt lat="42.94518" lon="-0.33697">
        <ele>1745</ele>
        <time>2013-01-08T08:11:06Z</time>
      </trkpt>
      <trkpt lat="42.94513" lon="-0.33699">
        <ele>1746.8000488281</ele>
        <time>2013-01-08T08:11:17Z</time>
      </trkpt>
      <trkpt lat="42.94508" lon="-0.33701">
        <ele>1748.5999755859</ele>
        <time>2013-01-08T08:11:25Z</time>
      </trkpt>
      <trkpt lat="42.94502" lon="-0.33702">
        <ele>1750.4000244141</ele>
        <time>2013-01-08T08:11:33Z</time>
      </trkpt>
      <trkpt lat="42.94497" lon="-0.33703">
        <ele>1751.5999755859</ele>
        <time>2013-01-08T08:11:42Z</time>
      </trkpt>
      <trkpt lat="42.94494" lon="-0.33708">
        <ele>1752.8000488281</ele>
        <time>2013-01-08T08:11:47Z</time>
      </trkpt>
      <trkpt lat="42.94488" lon="-0.33712">
        <ele>1754.1999511719</ele>
        <time>2013-01-08T08:11:56Z</time>
      </trkpt>
      <trkpt lat="42.94483" lon="-0.33716">
        <ele>1755.4000244141</ele>
        <time>2013-01-08T08:12:04Z</time>
      </trkpt>
      <trkpt lat="42.9448" lon="-0.33718">
        <ele>1756.4000244141</ele>
        <time>2013-01-08T08:12:11Z</time>
      </trkpt>
      <trkpt lat="42.94478" lon="-0.3372">
        <ele>1756.8000488281</ele>
        <time>2013-01-08T08:12:17Z</time>
      </trkpt>
      <trkpt lat="42.94475" lon="-0.33723">
        <ele>1757.5999755859</ele>
        <time>2013-01-08T08:12:25Z</time>
      </trkpt>
      <trkpt lat="42.9447" lon="-0.33726">
        <ele>1758.5999755859</ele>
        <time>2013-01-08T08:12:33Z</time>
      </trkpt>
      <trkpt lat="42.94467" lon="-0.3373">
        <ele>1759.5999755859</ele>
        <time>2013-01-08T08:12:40Z</time>
      </trkpt>
      <trkpt lat="42.94447" lon="-0.3374">
        <ele>1763.4000244141</ele>
        <time>2013-01-08T08:13:07Z</time>
      </trkpt>
      <trkpt lat="42.94444" lon="-0.33743">
        <ele>1764</ele>
        <time>2013-01-08T08:13:14Z</time>
      </trkpt>
      <trkpt lat="42.94441" lon="-0.33744">
        <ele>1764.4000244141</ele>
        <time>2013-01-08T08:13:19Z</time>
      </trkpt>
      <trkpt lat="42.94438" lon="-0.33747">
        <ele>1765</ele>
        <time>2013-01-08T08:13:26Z</time>
      </trkpt>
      <trkpt lat="42.94435" lon="-0.3375">
        <ele>1765.8000488281</ele>
        <time>2013-01-08T08:13:34Z</time>
      </trkpt>
      <trkpt lat="42.94433" lon="-0.33751">
        <ele>1766</ele>
        <time>2013-01-08T08:13:41Z</time>
      </trkpt>
      <trkpt lat="42.94431" lon="-0.33752">
        <ele>1766.1999511719</ele>
        <time>2013-01-08T08:13:46Z</time>
      </trkpt>
      <trkpt lat="42.94424" lon="-0.33757">
        <ele>1767</ele>
        <time>2013-01-08T08:13:57Z</time>
      </trkpt>
      <trkpt lat="42.94421" lon="-0.33758">
        <ele>1767.4000244141</ele>
        <time>2013-01-08T08:14:03Z</time>
      </trkpt>
      <trkpt lat="42.94417" lon="-0.3376">
        <ele>1767.8000488281</ele>
        <time>2013-01-08T08:14:11Z</time>
      </trkpt>
      <trkpt lat="42.94414" lon="-0.33761">
        <ele>1768.4000244141</ele>
        <time>2013-01-08T08:14:16Z</time>
      </trkpt>
      <trkpt lat="42.94412" lon="-0.33763">
        <ele>1769</ele>
        <time>2013-01-08T08:14:22Z</time>
      </trkpt>
      <trkpt lat="42.94414" lon="-0.33765">
        <ele>1768.5999755859</ele>
        <time>2013-01-08T08:14:32Z</time>
      </trkpt>
      <trkpt lat="42.94412" lon="-0.33766">
        <ele>1768.8000488281</ele>
        <time>2013-01-08T08:14:59Z</time>
      </trkpt>
      <trkpt lat="42.94412" lon="-0.33765">
        <ele>1769</ele>
        <time>2013-01-08T08:15:03Z</time>
      </trkpt>
      <trkpt lat="42.94409" lon="-0.33763">
        <ele>1769.5999755859</ele>
        <time>2013-01-08T08:15:12Z</time>
      </trkpt>
      <trkpt lat="42.94409" lon="-0.33763">
        <ele>1769.5999755859</ele>
        <time>2013-01-08T08:15:16Z</time>
      </trkpt>
      <trkpt lat="42.94408" lon="-0.33763">
        <ele>1769.8000488281</ele>
        <time>2013-01-08T08:15:21Z</time>
      </trkpt>
      <trkpt lat="42.94407" lon="-0.33764">
        <ele>1770</ele>
        <time>2013-01-08T08:15:25Z</time>
      </trkpt>
      <trkpt lat="42.94407" lon="-0.33764">
        <ele>1770</ele>
        <time>2013-01-08T08:15:26Z</time>
      </trkpt>
      <trkpt lat="42.94404" lon="-0.33767">
        <ele>1770.8000488281</ele>
        <time>2013-01-08T08:15:43Z</time>
      </trkpt>
      <trkpt lat="42.94405" lon="-0.33765">
        <ele>1770.5999755859</ele>
        <time>2013-01-08T08:15:49Z</time>
      </trkpt>
      <trkpt lat="42.94401" lon="-0.33768">
        <ele>1771.5999755859</ele>
        <time>2013-01-08T08:16:03Z</time>
      </trkpt>
      <trkpt lat="42.94401" lon="-0.33768">
        <ele>1771.5999755859</ele>
        <time>2013-01-08T08:16:04Z</time>
      </trkpt>
      <trkpt lat="42.94404" lon="-0.33769">
        <ele>1770.8000488281</ele>
        <time>2013-01-08T08:16:15Z</time>
      </trkpt>
      <trkpt lat="42.94402" lon="-0.33772">
        <ele>1771.4000244141</ele>
        <time>2013-01-08T08:16:22Z</time>
      </trkpt>
      <trkpt lat="42.94401" lon="-0.33774">
        <ele>1771.5999755859</ele>
        <time>2013-01-08T08:16:28Z</time>
      </trkpt>
      <trkpt lat="42.94398" lon="-0.33776">
        <ele>1772.1999511719</ele>
        <time>2013-01-08T08:16:38Z</time>
      </trkpt>
      <trkpt lat="42.94394" lon="-0.33777">
        <ele>1773.1999511719</ele>
        <time>2013-01-08T08:16:42Z</time>
      </trkpt>
      <trkpt lat="42.94389" lon="-0.33779">
        <ele>1774.1999511719</ele>
        <time>2013-01-08T08:16:51Z</time>
      </trkpt>
      <trkpt lat="42.94388" lon="-0.3378">
        <ele>1774.5999755859</ele>
        <time>2013-01-08T08:16:54Z</time>
      </trkpt>
      <trkpt lat="42.94385" lon="-0.33782">
        <ele>1775.1999511719</ele>
        <time>2013-01-08T08:16:59Z</time>
      </trkpt>
      <trkpt lat="42.94381" lon="-0.33785">
        <ele>1776.1999511719</ele>
        <time>2013-01-08T08:17:06Z</time>
      </trkpt>
      <trkpt lat="42.9438" lon="-0.33787">
        <ele>1776.5999755859</ele>
        <time>2013-01-08T08:17:09Z</time>
      </trkpt>
      <trkpt lat="42.94377" lon="-0.3379">
        <ele>1777.1999511719</ele>
        <time>2013-01-08T08:17:14Z</time>
      </trkpt>
      <trkpt lat="42.94376" lon="-0.3379">
        <ele>1777.5999755859</ele>
        <time>2013-01-08T08:17:17Z</time>
      </trkpt>
      <trkpt lat="42.94373" lon="-0.33795">
        <ele>1778.4000244141</ele>
        <time>2013-01-08T08:17:24Z</time>
      </trkpt>
      <trkpt lat="42.94369" lon="-0.338">
        <ele>1779.5999755859</ele>
        <time>2013-01-08T08:17:32Z</time>
      </trkpt>
      <trkpt lat="42.94366" lon="-0.33801">
        <ele>1780.4000244141</ele>
        <time>2013-01-08T08:17:38Z</time>
      </trkpt>
      <trkpt lat="42.94364" lon="-0.33803">
        <ele>1780.8000488281</ele>
        <time>2013-01-08T08:17:46Z</time>
      </trkpt>
      <trkpt lat="42.94364" lon="-0.33807">
        <ele>1781</ele>
        <time>2013-01-08T08:17:54Z</time>
      </trkpt>
      <trkpt lat="42.94361" lon="-0.33806">
        <ele>1781.8000488281</ele>
        <time>2013-01-08T08:18:01Z</time>
      </trkpt>
      <trkpt lat="42.94358" lon="-0.33806">
        <ele>1782.4000244141</ele>
        <time>2013-01-08T08:18:07Z</time>
      </trkpt>
      <trkpt lat="42.94354" lon="-0.33807">
        <ele>1783.5999755859</ele>
        <time>2013-01-08T08:18:15Z</time>
      </trkpt>
      <trkpt lat="42.94348" lon="-0.33812">
        <ele>1785.1999511719</ele>
        <time>2013-01-08T08:18:26Z</time>
      </trkpt>
      <trkpt lat="42.94345" lon="-0.33815">
        <ele>1786</ele>
        <time>2013-01-08T08:18:32Z</time>
      </trkpt>
      <trkpt lat="42.94342" lon="-0.33818">
        <ele>1787</ele>
        <time>2013-01-08T08:18:40Z</time>
      </trkpt>
      <trkpt lat="42.94336" lon="-0.3382">
        <ele>1788.5999755859</ele>
        <time>2013-01-08T08:18:46Z</time>
      </trkpt>
      <trkpt lat="42.94333" lon="-0.33829">
        <ele>1789.8000488281</ele>
        <time>2013-01-08T08:18:57Z</time>
      </trkpt>
      <trkpt lat="42.94331" lon="-0.33832">
        <ele>1790.5999755859</ele>
        <time>2013-01-08T08:19:03Z</time>
      </trkpt>
      <trkpt lat="42.94326" lon="-0.33834">
        <ele>1792.4000244141</ele>
        <time>2013-01-08T08:19:09Z</time>
      </trkpt>
      <trkpt lat="42.94321" lon="-0.33836">
        <ele>1794.1999511719</ele>
        <time>2013-01-08T08:19:16Z</time>
      </trkpt>
      <trkpt lat="42.94316" lon="-0.33839">
        <ele>1795.8000488281</ele>
        <time>2013-01-08T08:19:25Z</time>
      </trkpt>
      <trkpt lat="42.94313" lon="-0.33841">
        <ele>1797</ele>
        <time>2013-01-08T08:19:32Z</time>
      </trkpt>
      <trkpt lat="42.94309" lon="-0.33845">
        <ele>1798.1999511719</ele>
        <time>2013-01-08T08:19:40Z</time>
      </trkpt>
      <trkpt lat="42.94307" lon="-0.33848">
        <ele>1798.8000488281</ele>
        <time>2013-01-08T08:19:45Z</time>
      </trkpt>
      <trkpt lat="42.94305" lon="-0.33852">
        <ele>1799.5999755859</ele>
        <time>2013-01-08T08:19:52Z</time>
      </trkpt>
      <trkpt lat="42.943" lon="-0.33858">
        <ele>1801</ele>
        <time>2013-01-08T08:20:03Z</time>
      </trkpt>
      <trkpt lat="42.94298" lon="-0.3386">
        <ele>1801.5999755859</ele>
        <time>2013-01-08T08:20:09Z</time>
      </trkpt>
      <trkpt lat="42.94296" lon="-0.33862">
        <ele>1802.5999755859</ele>
        <time>2013-01-08T08:20:15Z</time>
      </trkpt>
      <trkpt lat="42.94291" lon="-0.33866">
        <ele>1804.1999511719</ele>
        <time>2013-01-08T08:20:25Z</time>
      </trkpt>
      <trkpt lat="42.94287" lon="-0.33871">
        <ele>1805.5999755859</ele>
        <time>2013-01-08T08:20:35Z</time>
      </trkpt>
      <trkpt lat="42.94283" lon="-0.3387">
        <ele>1807.1999511719</ele>
        <time>2013-01-08T08:20:44Z</time>
      </trkpt>
      <trkpt lat="42.9428" lon="-0.33869">
        <ele>1808</ele>
        <time>2013-01-08T08:20:49Z</time>
      </trkpt>
      <trkpt lat="42.94277" lon="-0.33868">
        <ele>1809.4000244141</ele>
        <time>2013-01-08T08:20:58Z</time>
      </trkpt>
      <trkpt lat="42.94272" lon="-0.33866">
        <ele>1811</ele>
        <time>2013-01-08T08:21:08Z</time>
      </trkpt>
      <trkpt lat="42.94268" lon="-0.33865">
        <ele>1812.5999755859</ele>
        <time>2013-01-08T08:21:18Z</time>
      </trkpt>
      <trkpt lat="42.94265" lon="-0.33865">
        <ele>1813.5999755859</ele>
        <time>2013-01-08T08:21:24Z</time>
      </trkpt>
      <trkpt lat="42.94262" lon="-0.33862">
        <ele>1814.8000488281</ele>
        <time>2013-01-08T08:21:32Z</time>
      </trkpt>
      <trkpt lat="42.94257" lon="-0.33861">
        <ele>1816.5999755859</ele>
        <time>2013-01-08T08:21:43Z</time>
      </trkpt>
      <trkpt lat="42.94254" lon="-0.33865">
        <ele>1817.8000488281</ele>
        <time>2013-01-08T08:21:50Z</time>
      </trkpt>
      <trkpt lat="42.94249" lon="-0.33865">
        <ele>1819.4000244141</ele>
        <time>2013-01-08T08:21:59Z</time>
      </trkpt>
      <trkpt lat="42.94245" lon="-0.33861">
        <ele>1821</ele>
        <time>2013-01-08T08:22:07Z</time>
      </trkpt>
      <trkpt lat="42.94242" lon="-0.33859">
        <ele>1822</ele>
        <time>2013-01-08T08:22:13Z</time>
      </trkpt>
      <trkpt lat="42.94238" lon="-0.3386">
        <ele>1823.8000488281</ele>
        <time>2013-01-08T08:22:24Z</time>
      </trkpt>
      <trkpt lat="42.94236" lon="-0.33862">
        <ele>1824.4000244141</ele>
        <time>2013-01-08T08:22:30Z</time>
      </trkpt>
      <trkpt lat="42.94234" lon="-0.33867">
        <ele>1825.1999511719</ele>
        <time>2013-01-08T08:22:38Z</time>
      </trkpt>
      <trkpt lat="42.9423" lon="-0.33872">
        <ele>1826.1999511719</ele>
        <time>2013-01-08T08:22:46Z</time>
      </trkpt>
      <trkpt lat="42.94226" lon="-0.33871">
        <ele>1827.8000488281</ele>
        <time>2013-01-08T08:22:55Z</time>
      </trkpt>
      <trkpt lat="42.94224" lon="-0.33868">
        <ele>1828.5999755859</ele>
        <time>2013-01-08T08:23:02Z</time>
      </trkpt>
      <trkpt lat="42.94221" lon="-0.33864">
        <ele>1830</ele>
        <time>2013-01-08T08:23:11Z</time>
      </trkpt>
      <trkpt lat="42.94219" lon="-0.33867">
        <ele>1830.5999755859</ele>
        <time>2013-01-08T08:23:16Z</time>
      </trkpt>
      <trkpt lat="42.94215" lon="-0.33874">
        <ele>1831.8000488281</ele>
        <time>2013-01-08T08:23:25Z</time>
      </trkpt>
      <trkpt lat="42.94212" lon="-0.33879">
        <ele>1833</ele>
        <time>2013-01-08T08:23:36Z</time>
      </trkpt>
      <trkpt lat="42.94208" lon="-0.33883">
        <ele>1834.4000244141</ele>
        <time>2013-01-08T08:23:44Z</time>
      </trkpt>
      <trkpt lat="42.94205" lon="-0.33889">
        <ele>1835.5999755859</ele>
        <time>2013-01-08T08:23:55Z</time>
      </trkpt>
      <trkpt lat="42.94202" lon="-0.33892">
        <ele>1836.4000244141</ele>
        <time>2013-01-08T08:24:02Z</time>
      </trkpt>
      <trkpt lat="42.942" lon="-0.33889">
        <ele>1837.4000244141</ele>
        <time>2013-01-08T08:24:09Z</time>
      </trkpt>
      <trkpt lat="42.94197" lon="-0.33888">
        <ele>1838.5999755859</ele>
        <time>2013-01-08T08:24:16Z</time>
      </trkpt>
      <trkpt lat="42.94195" lon="-0.33885">
        <ele>1839.4000244141</ele>
        <time>2013-01-08T08:24:22Z</time>
      </trkpt>
      <trkpt lat="42.94192" lon="-0.33882">
        <ele>1840.4000244141</ele>
        <time>2013-01-08T08:24:28Z</time>
      </trkpt>
      <trkpt lat="42.9419" lon="-0.33884">
        <ele>1841</ele>
        <time>2013-01-08T08:24:40Z</time>
      </trkpt>
      <trkpt lat="42.94191" lon="-0.33884">
        <ele>1840.8000488281</ele>
        <time>2013-01-08T08:24:56Z</time>
      </trkpt>
      <trkpt lat="42.94193" lon="-0.33883">
        <ele>1840.1999511719</ele>
        <time>2013-01-08T08:25:08Z</time>
      </trkpt>
      <trkpt lat="42.9419" lon="-0.33884">
        <ele>1841.1999511719</ele>
        <time>2013-01-08T08:25:17Z</time>
      </trkpt>
      <trkpt lat="42.94187" lon="-0.33885">
        <ele>1842.1999511719</ele>
        <time>2013-01-08T08:25:23Z</time>
      </trkpt>
      <trkpt lat="42.94183" lon="-0.33886">
        <ele>1843.8000488281</ele>
        <time>2013-01-08T08:25:33Z</time>
      </trkpt>
      <trkpt lat="42.94178" lon="-0.3389">
        <ele>1845.8000488281</ele>
        <time>2013-01-08T08:25:41Z</time>
      </trkpt>
      <trkpt lat="42.94176" lon="-0.3389">
        <ele>1846.5999755859</ele>
        <time>2013-01-08T08:25:48Z</time>
      </trkpt>
      <trkpt lat="42.94174" lon="-0.33891">
        <ele>1847</ele>
        <time>2013-01-08T08:25:53Z</time>
      </trkpt>
      <trkpt lat="42.94173" lon="-0.33892">
        <ele>1847.5999755859</ele>
        <time>2013-01-08T08:26:00Z</time>
      </trkpt>
      <trkpt lat="42.94169" lon="-0.33894">
        <ele>1849</ele>
        <time>2013-01-08T08:26:14Z</time>
      </trkpt>
      <trkpt lat="42.94165" lon="-0.33894">
        <ele>1850.8000488281</ele>
        <time>2013-01-08T08:26:25Z</time>
      </trkpt>
      <trkpt lat="42.94164" lon="-0.339">
        <ele>1851.1999511719</ele>
        <time>2013-01-08T08:26:32Z</time>
      </trkpt>
      <trkpt lat="42.94163" lon="-0.33901">
        <ele>1851.5999755859</ele>
        <time>2013-01-08T08:26:35Z</time>
      </trkpt>
      <trkpt lat="42.94159" lon="-0.33902">
        <ele>1853</ele>
        <time>2013-01-08T08:26:42Z</time>
      </trkpt>
      <trkpt lat="42.94155" lon="-0.33898">
        <ele>1854.5999755859</ele>
        <time>2013-01-08T08:26:47Z</time>
      </trkpt>
      <trkpt lat="42.94149" lon="-0.33897">
        <ele>1857.1999511719</ele>
        <time>2013-01-08T08:26:55Z</time>
      </trkpt>
      <trkpt lat="42.94144" lon="-0.33899">
        <ele>1859.1999511719</ele>
        <time>2013-01-08T08:27:04Z</time>
      </trkpt>
      <trkpt lat="42.94143" lon="-0.33902">
        <ele>1859.8000488281</ele>
        <time>2013-01-08T08:27:10Z</time>
      </trkpt>
      <trkpt lat="42.94139" lon="-0.33905">
        <ele>1861.5999755859</ele>
        <time>2013-01-08T08:27:16Z</time>
      </trkpt>
      <trkpt lat="42.94134" lon="-0.33906">
        <ele>1863.1999511719</ele>
        <time>2013-01-08T08:27:23Z</time>
      </trkpt>
      <trkpt lat="42.94133" lon="-0.33908">
        <ele>1863.5999755859</ele>
        <time>2013-01-08T08:27:29Z</time>
      </trkpt>
      <trkpt lat="42.94132" lon="-0.33912">
        <ele>1864.1999511719</ele>
        <time>2013-01-08T08:27:36Z</time>
      </trkpt>
      <trkpt lat="42.9413" lon="-0.33914">
        <ele>1865</ele>
        <time>2013-01-08T08:27:42Z</time>
      </trkpt>
      <trkpt lat="42.94127" lon="-0.33917">
        <ele>1866</ele>
        <time>2013-01-08T08:27:51Z</time>
      </trkpt>
      <trkpt lat="42.94124" lon="-0.33919">
        <ele>1867</ele>
        <time>2013-01-08T08:28:02Z</time>
      </trkpt>
      <trkpt lat="42.9412" lon="-0.33919">
        <ele>1869</ele>
        <time>2013-01-08T08:28:12Z</time>
      </trkpt>
      <trkpt lat="42.94119" lon="-0.33923">
        <ele>1869.1999511719</ele>
        <time>2013-01-08T08:28:17Z</time>
      </trkpt>
      <trkpt lat="42.94118" lon="-0.33929">
        <ele>1869.4000244141</ele>
        <time>2013-01-08T08:28:24Z</time>
      </trkpt>
      <trkpt lat="42.94115" lon="-0.33934">
        <ele>1870.4000244141</ele>
        <time>2013-01-08T08:28:31Z</time>
      </trkpt>
      <trkpt lat="42.94112" lon="-0.33934">
        <ele>1871.5999755859</ele>
        <time>2013-01-08T08:28:37Z</time>
      </trkpt>
      <trkpt lat="42.94108" lon="-0.33934">
        <ele>1873.1999511719</ele>
        <time>2013-01-08T08:28:44Z</time>
      </trkpt>
      <trkpt lat="42.94106" lon="-0.33934">
        <ele>1874.1999511719</ele>
        <time>2013-01-08T08:28:51Z</time>
      </trkpt>
      <trkpt lat="42.94102" lon="-0.33936">
        <ele>1875.5999755859</ele>
        <time>2013-01-08T08:28:59Z</time>
      </trkpt>
      <trkpt lat="42.94098" lon="-0.3394">
        <ele>1877.1999511719</ele>
        <time>2013-01-08T08:29:07Z</time>
      </trkpt>
      <trkpt lat="42.94096" lon="-0.33941">
        <ele>1878.1999511719</ele>
        <time>2013-01-08T08:29:14Z</time>
      </trkpt>
      <trkpt lat="42.94094" lon="-0.3394">
        <ele>1879</ele>
        <time>2013-01-08T08:29:24Z</time>
      </trkpt>
      <trkpt lat="42.94091" lon="-0.33939">
        <ele>1880</ele>
        <time>2013-01-08T08:29:32Z</time>
      </trkpt>
      <trkpt lat="42.94089" lon="-0.33938">
        <ele>1880.8000488281</ele>
        <time>2013-01-08T08:29:40Z</time>
      </trkpt>
      <trkpt lat="42.94088" lon="-0.33937">
        <ele>1881.1999511719</ele>
        <time>2013-01-08T08:29:42Z</time>
      </trkpt>
      <trkpt lat="42.94087" lon="-0.33938">
        <ele>1881.8000488281</ele>
        <time>2013-01-08T08:29:46Z</time>
      </trkpt>
      <trkpt lat="42.94084" lon="-0.33933">
        <ele>1883.4000244141</ele>
        <time>2013-01-08T08:29:52Z</time>
      </trkpt>
      <trkpt lat="42.94082" lon="-0.33932">
        <ele>1884.4000244141</ele>
        <time>2013-01-08T08:29:58Z</time>
      </trkpt>
      <trkpt lat="42.9408" lon="-0.33931">
        <ele>1885.5999755859</ele>
        <time>2013-01-08T08:30:04Z</time>
      </trkpt>
      <trkpt lat="42.94077" lon="-0.33929">
        <ele>1887</ele>
        <time>2013-01-08T08:30:10Z</time>
      </trkpt>
      <trkpt lat="42.94075" lon="-0.33929">
        <ele>1888.1999511719</ele>
        <time>2013-01-08T08:30:17Z</time>
      </trkpt>
      <trkpt lat="42.94072" lon="-0.33931">
        <ele>1889.8000488281</ele>
        <time>2013-01-08T08:30:24Z</time>
      </trkpt>
      <trkpt lat="42.9407" lon="-0.33933">
        <ele>1890.8000488281</ele>
        <time>2013-01-08T08:30:29Z</time>
      </trkpt>
      <trkpt lat="42.94067" lon="-0.33936">
        <ele>1892.1999511719</ele>
        <time>2013-01-08T08:30:34Z</time>
      </trkpt>
      <trkpt lat="42.94064" lon="-0.33941">
        <ele>1893.8000488281</ele>
        <time>2013-01-08T08:30:43Z</time>
      </trkpt>
      <trkpt lat="42.94061" lon="-0.33947">
        <ele>1894.8000488281</ele>
        <time>2013-01-08T08:30:53Z</time>
      </trkpt>
      <trkpt lat="42.94059" lon="-0.3395">
        <ele>1896</ele>
        <time>2013-01-08T08:31:00Z</time>
      </trkpt>
      <trkpt lat="42.94056" lon="-0.33951">
        <ele>1897.4000244141</ele>
        <time>2013-01-08T08:31:14Z</time>
      </trkpt>
      <trkpt lat="42.94055" lon="-0.33948">
        <ele>1898.1999511719</ele>
        <time>2013-01-08T08:31:22Z</time>
      </trkpt>
      <trkpt lat="42.94053" lon="-0.33946">
        <ele>1899.4000244141</ele>
        <time>2013-01-08T08:31:29Z</time>
      </trkpt>
      <trkpt lat="42.94051" lon="-0.33945">
        <ele>1900.4000244141</ele>
        <time>2013-01-08T08:31:35Z</time>
      </trkpt>
      <trkpt lat="42.94049" lon="-0.33948">
        <ele>1901.1999511719</ele>
        <time>2013-01-08T08:31:42Z</time>
      </trkpt>
      <trkpt lat="42.94048" lon="-0.33952">
        <ele>1901.5999755859</ele>
        <time>2013-01-08T08:31:47Z</time>
      </trkpt>
      <trkpt lat="42.94047" lon="-0.33954">
        <ele>1902</ele>
        <time>2013-01-08T08:31:48Z</time>
      </trkpt>
      <trkpt lat="42.94045" lon="-0.33957">
        <ele>1902.4000244141</ele>
        <time>2013-01-08T08:31:53Z</time>
      </trkpt>
      <trkpt lat="42.94041" lon="-0.33967">
        <ele>1903.8000488281</ele>
        <time>2013-01-08T08:32:10Z</time>
      </trkpt>
      <trkpt lat="42.94042" lon="-0.33972">
        <ele>1902.8000488281</ele>
        <time>2013-01-08T08:32:23Z</time>
      </trkpt>
      <trkpt lat="42.9404" lon="-0.33975">
        <ele>1903.5999755859</ele>
        <time>2013-01-08T08:32:35Z</time>
      </trkpt>
      <trkpt lat="42.94038" lon="-0.33978">
        <ele>1904.1999511719</ele>
        <time>2013-01-08T08:32:42Z</time>
      </trkpt>
      <trkpt lat="42.94033" lon="-0.33984">
        <ele>1906</ele>
        <time>2013-01-08T08:32:51Z</time>
      </trkpt>
      <trkpt lat="42.94027" lon="-0.33987">
        <ele>1908.1999511719</ele>
        <time>2013-01-08T08:33:02Z</time>
      </trkpt>
      <trkpt lat="42.94026" lon="-0.3399">
        <ele>1908.5999755859</ele>
        <time>2013-01-08T08:33:09Z</time>
      </trkpt>
      <trkpt lat="42.94026" lon="-0.33993">
        <ele>1908.1999511719</ele>
        <time>2013-01-08T08:33:15Z</time>
      </trkpt>
      <trkpt lat="42.94026" lon="-0.34002">
        <ele>1907.4000244141</ele>
        <time>2013-01-08T08:33:30Z</time>
      </trkpt>
      <trkpt lat="42.94024" lon="-0.34007">
        <ele>1908.4000244141</ele>
        <time>2013-01-08T08:33:38Z</time>
      </trkpt>
      <trkpt lat="42.94028" lon="-0.34011">
        <ele>1907</ele>
        <time>2013-01-08T08:33:44Z</time>
      </trkpt>
      <trkpt lat="42.94023" lon="-0.34019">
        <ele>1909</ele>
        <time>2013-01-08T08:33:51Z</time>
      </trkpt>
      <trkpt lat="42.94023" lon="-0.3402">
        <ele>1909.1999511719</ele>
        <time>2013-01-08T08:33:57Z</time>
      </trkpt>
      <trkpt lat="42.94021" lon="-0.34022">
        <ele>1910</ele>
        <time>2013-01-08T08:34:03Z</time>
      </trkpt>
      <trkpt lat="42.9402" lon="-0.34026">
        <ele>1910.8000488281</ele>
        <time>2013-01-08T08:34:14Z</time>
      </trkpt>
      <trkpt lat="42.94018" lon="-0.34029">
        <ele>1911.5999755859</ele>
        <time>2013-01-08T08:34:28Z</time>
      </trkpt>
      <trkpt lat="42.94014" lon="-0.34032">
        <ele>1913.4000244141</ele>
        <time>2013-01-08T08:34:35Z</time>
      </trkpt>
      <trkpt lat="42.94009" lon="-0.34038">
        <ele>1915.8000488281</ele>
        <time>2013-01-08T08:34:41Z</time>
      </trkpt>
      <trkpt lat="42.94006" lon="-0.34048">
        <ele>1917.1999511719</ele>
        <time>2013-01-08T08:34:54Z</time>
      </trkpt>
      <trkpt lat="42.94004" lon="-0.34053">
        <ele>1918.4000244141</ele>
        <time>2013-01-08T08:35:02Z</time>
      </trkpt>
      <trkpt lat="42.94" lon="-0.34061">
        <ele>1920.5999755859</ele>
        <time>2013-01-08T08:35:10Z</time>
      </trkpt>
      <trkpt lat="42.93999" lon="-0.34067">
        <ele>1921</ele>
        <time>2013-01-08T08:35:18Z</time>
      </trkpt>
      <trkpt lat="42.93994" lon="-0.34076">
        <ele>1923.4000244141</ele>
        <time>2013-01-08T08:35:30Z</time>
      </trkpt>
      <trkpt lat="42.93991" lon="-0.3408">
        <ele>1925</ele>
        <time>2013-01-08T08:35:35Z</time>
      </trkpt>
      <trkpt lat="42.93994" lon="-0.34084">
        <ele>1923.5999755859</ele>
        <time>2013-01-08T08:35:46Z</time>
      </trkpt>
      <trkpt lat="42.93994" lon="-0.34086">
        <ele>1924.1999511719</ele>
        <time>2013-01-08T08:35:52Z</time>
      </trkpt>
      <trkpt lat="42.93991" lon="-0.3409">
        <ele>1925.5999755859</ele>
        <time>2013-01-08T08:35:59Z</time>
      </trkpt>
      <trkpt lat="42.9399" lon="-0.34091">
        <ele>1926.1999511719</ele>
        <time>2013-01-08T08:36:00Z</time>
      </trkpt>
      <trkpt lat="42.93991" lon="-0.34093">
        <ele>1925.8000488281</ele>
        <time>2013-01-08T08:36:06Z</time>
      </trkpt>
      <trkpt lat="42.93989" lon="-0.34096">
        <ele>1927.1999511719</ele>
        <time>2013-01-08T08:36:11Z</time>
      </trkpt>
      <trkpt lat="42.93986" lon="-0.34099">
        <ele>1928.5999755859</ele>
        <time>2013-01-08T08:36:17Z</time>
      </trkpt>
      <trkpt lat="42.93983" lon="-0.34103">
        <ele>1930.1999511719</ele>
        <time>2013-01-08T08:36:22Z</time>
      </trkpt>
      <trkpt lat="42.93982" lon="-0.34107">
        <ele>1931</ele>
        <time>2013-01-08T08:36:29Z</time>
      </trkpt>
      <trkpt lat="42.93981" lon="-0.34107">
        <ele>1931.5999755859</ele>
        <time>2013-01-08T08:36:34Z</time>
      </trkpt>
      <trkpt lat="42.9398" lon="-0.34109">
        <ele>1932</ele>
        <time>2013-01-08T08:36:41Z</time>
      </trkpt>
      <trkpt lat="42.93978" lon="-0.34114">
        <ele>1933.4000244141</ele>
        <time>2013-01-08T08:36:59Z</time>
      </trkpt>
      <trkpt lat="42.93977" lon="-0.3412">
        <ele>1934.1999511719</ele>
        <time>2013-01-08T08:37:07Z</time>
      </trkpt>
      <trkpt lat="42.93979" lon="-0.34124">
        <ele>1933.4000244141</ele>
        <time>2013-01-08T08:37:15Z</time>
      </trkpt>
      <trkpt lat="42.93977" lon="-0.34128">
        <ele>1935</ele>
        <time>2013-01-08T08:37:20Z</time>
      </trkpt>
      <trkpt lat="42.93979" lon="-0.34134">
        <ele>1934.1999511719</ele>
        <time>2013-01-08T08:37:28Z</time>
      </trkpt>
      <trkpt lat="42.93979" lon="-0.34138">
        <ele>1934.4000244141</ele>
        <time>2013-01-08T08:37:52Z</time>
      </trkpt>
      <trkpt lat="42.93974" lon="-0.34143">
        <ele>1937.4000244141</ele>
        <time>2013-01-08T08:38:06Z</time>
      </trkpt>
      <trkpt lat="42.93975" lon="-0.34142">
        <ele>1936.5999755859</ele>
        <time>2013-01-08T08:38:11Z</time>
      </trkpt>
      <trkpt lat="42.93976" lon="-0.34141">
        <ele>1936.5999755859</ele>
        <time>2013-01-08T08:38:15Z</time>
      </trkpt>
      <trkpt lat="42.93976" lon="-0.3414">
        <ele>1936</ele>
        <time>2013-01-08T08:38:21Z</time>
      </trkpt>
      <trkpt lat="42.93977" lon="-0.3414">
        <ele>1935.8000488281</ele>
        <time>2013-01-08T08:38:24Z</time>
      </trkpt>
      <trkpt lat="42.93976" lon="-0.3414">
        <ele>1936</ele>
        <time>2013-01-08T08:38:28Z</time>
      </trkpt>
      <trkpt lat="42.93976" lon="-0.34139">
        <ele>1936</ele>
        <time>2013-01-08T08:38:31Z</time>
      </trkpt>
      <trkpt lat="42.93978" lon="-0.34137">
        <ele>1935</ele>
        <time>2013-01-08T08:38:52Z</time>
      </trkpt>
      <trkpt lat="42.93978" lon="-0.34136">
        <ele>1934.8000488281</ele>
        <time>2013-01-08T08:38:56Z</time>
      </trkpt>
      <trkpt lat="42.9398" lon="-0.34137">
        <ele>1933.8000488281</ele>
        <time>2013-01-08T08:39:22Z</time>
      </trkpt>
      <trkpt lat="42.93974" lon="-0.34144">
        <ele>1937.4000244141</ele>
        <time>2013-01-08T08:39:50Z</time>
      </trkpt>
      <trkpt lat="42.93972" lon="-0.34146">
        <ele>1938.5999755859</ele>
        <time>2013-01-08T08:39:53Z</time>
      </trkpt>
      <trkpt lat="42.93967" lon="-0.34153">
        <ele>1941.8000488281</ele>
        <time>2013-01-08T08:40:05Z</time>
      </trkpt>
      <trkpt lat="42.93966" lon="-0.34155">
        <ele>1942.4000244141</ele>
        <time>2013-01-08T08:40:09Z</time>
      </trkpt>
      <trkpt lat="42.93965" lon="-0.34156">
        <ele>1942.5999755859</ele>
        <time>2013-01-08T08:40:10Z</time>
      </trkpt>
      <trkpt lat="42.93965" lon="-0.34157">
        <ele>1943</ele>
        <time>2013-01-08T08:40:13Z</time>
      </trkpt>
      <trkpt lat="42.93964" lon="-0.34159">
        <ele>1943.8000488281</ele>
        <time>2013-01-08T08:40:16Z</time>
      </trkpt>
      <trkpt lat="42.93962" lon="-0.34161">
        <ele>1944.5999755859</ele>
        <time>2013-01-08T08:40:20Z</time>
      </trkpt>
      <trkpt lat="42.9396" lon="-0.34165">
        <ele>1945.8000488281</ele>
        <time>2013-01-08T08:40:26Z</time>
      </trkpt>
      <trkpt lat="42.93956" lon="-0.3417">
        <ele>1948</ele>
        <time>2013-01-08T08:40:32Z</time>
      </trkpt>
      <trkpt lat="42.93953" lon="-0.34174">
        <ele>1949.5999755859</ele>
        <time>2013-01-08T08:40:37Z</time>
      </trkpt>
      <trkpt lat="42.93949" lon="-0.34178">
        <ele>1951.5999755859</ele>
        <time>2013-01-08T08:40:44Z</time>
      </trkpt>
      <trkpt lat="42.93948" lon="-0.34185">
        <ele>1952</ele>
        <time>2013-01-08T08:40:54Z</time>
      </trkpt>
      <trkpt lat="42.93945" lon="-0.3419">
        <ele>1953.4000244141</ele>
        <time>2013-01-08T08:41:01Z</time>
      </trkpt>
      <trkpt lat="42.93945" lon="-0.3419">
        <ele>1953.4000244141</ele>
        <time>2013-01-08T08:41:03Z</time>
      </trkpt>
      <trkpt lat="42.93946" lon="-0.34191">
        <ele>1953.1999511719</ele>
        <time>2013-01-08T08:41:08Z</time>
      </trkpt>
      <trkpt lat="42.93941" lon="-0.34197">
        <ele>1955.8000488281</ele>
        <time>2013-01-08T08:41:20Z</time>
      </trkpt>
      <trkpt lat="42.9394" lon="-0.34198">
        <ele>1956</ele>
        <time>2013-01-08T08:41:21Z</time>
      </trkpt>
      <trkpt lat="42.93939" lon="-0.34203">
        <ele>1956.5999755859</ele>
        <time>2013-01-08T08:41:31Z</time>
      </trkpt>
      <trkpt lat="42.9393" lon="-0.3421">
        <ele>1961</ele>
        <time>2013-01-08T08:42:14Z</time>
      </trkpt>
      <trkpt lat="42.93927" lon="-0.34216">
        <ele>1962.5999755859</ele>
        <time>2013-01-08T08:42:23Z</time>
      </trkpt>
      <trkpt lat="42.9392" lon="-0.34226">
        <ele>1965.4000244141</ele>
        <time>2013-01-08T08:42:36Z</time>
      </trkpt>
      <trkpt lat="42.93918" lon="-0.34229">
        <ele>1966.5999755859</ele>
        <time>2013-01-08T08:42:44Z</time>
      </trkpt>
      <trkpt lat="42.93912" lon="-0.34232">
        <ele>1969.1999511719</ele>
        <time>2013-01-08T08:43:01Z</time>
      </trkpt>
      <trkpt lat="42.93909" lon="-0.34233">
        <ele>1970.4000244141</ele>
        <time>2013-01-08T08:43:08Z</time>
      </trkpt>
      <trkpt lat="42.93907" lon="-0.34233">
        <ele>1971.1999511719</ele>
        <time>2013-01-08T08:43:13Z</time>
      </trkpt>
      <trkpt lat="42.93907" lon="-0.34234">
        <ele>1971.4000244141</ele>
        <time>2013-01-08T08:43:14Z</time>
      </trkpt>
      <trkpt lat="42.93905" lon="-0.34235">
        <ele>1972</ele>
        <time>2013-01-08T08:43:18Z</time>
      </trkpt>
      <trkpt lat="42.93906" lon="-0.34229">
        <ele>1972</ele>
        <time>2013-01-08T08:43:25Z</time>
      </trkpt>
      <trkpt lat="42.93905" lon="-0.34229">
        <ele>1972.4000244141</ele>
        <time>2013-01-08T08:43:27Z</time>
      </trkpt>
      <trkpt lat="42.93904" lon="-0.34232">
        <ele>1972.8000488281</ele>
        <time>2013-01-08T08:43:29Z</time>
      </trkpt>
      <trkpt lat="42.93903" lon="-0.34233">
        <ele>1973.1999511719</ele>
        <time>2013-01-08T08:43:31Z</time>
      </trkpt>
      <trkpt lat="42.939" lon="-0.34235">
        <ele>1974.5999755859</ele>
        <time>2013-01-08T08:43:43Z</time>
      </trkpt>
      <trkpt lat="42.93896" lon="-0.34238">
        <ele>1976</ele>
        <time>2013-01-08T08:43:50Z</time>
      </trkpt>
      <trkpt lat="42.93895" lon="-0.3424">
        <ele>1976.5999755859</ele>
        <time>2013-01-08T08:43:55Z</time>
      </trkpt>
      <trkpt lat="42.93892" lon="-0.34244">
        <ele>1977.5999755859</ele>
        <time>2013-01-08T08:44:00Z</time>
      </trkpt>
      <trkpt lat="42.9389" lon="-0.34247">
        <ele>1978.4000244141</ele>
        <time>2013-01-08T08:44:05Z</time>
      </trkpt>
      <trkpt lat="42.93889" lon="-0.34249">
        <ele>1979</ele>
        <time>2013-01-08T08:44:12Z</time>
      </trkpt>
      <trkpt lat="42.93887" lon="-0.34245">
        <ele>1979.8000488281</ele>
        <time>2013-01-08T08:44:19Z</time>
      </trkpt>
      <trkpt lat="42.93886" lon="-0.34238">
        <ele>1980.5999755859</ele>
        <time>2013-01-08T08:44:28Z</time>
      </trkpt>
      <trkpt lat="42.93884" lon="-0.34233">
        <ele>1981.1999511719</ele>
        <time>2013-01-08T08:44:37Z</time>
      </trkpt>
      <trkpt lat="42.93882" lon="-0.34227">
        <ele>1982.5999755859</ele>
        <time>2013-01-08T08:44:50Z</time>
      </trkpt>
      <trkpt lat="42.93877" lon="-0.34227">
        <ele>1984.4000244141</ele>
        <time>2013-01-08T08:45:01Z</time>
      </trkpt>
      <trkpt lat="42.93872" lon="-0.34225">
        <ele>1986.8000488281</ele>
        <time>2013-01-08T08:45:11Z</time>
      </trkpt>
      <trkpt lat="42.93869" lon="-0.34226">
        <ele>1988.1999511719</ele>
        <time>2013-01-08T08:45:17Z</time>
      </trkpt>
      <trkpt lat="42.93866" lon="-0.34226">
        <ele>1989.5999755859</ele>
        <time>2013-01-08T08:45:24Z</time>
      </trkpt>
      <trkpt lat="42.93862" lon="-0.34225">
        <ele>1991.1999511719</ele>
        <time>2013-01-08T08:45:33Z</time>
      </trkpt>
      <trkpt lat="42.93859" lon="-0.34223">
        <ele>1992.5999755859</ele>
        <time>2013-01-08T08:45:42Z</time>
      </trkpt>
      <trkpt lat="42.93852" lon="-0.34231">
        <ele>1995.5999755859</ele>
        <time>2013-01-08T08:45:57Z</time>
      </trkpt>
      <trkpt lat="42.9385" lon="-0.34227">
        <ele>1996.4000244141</ele>
        <time>2013-01-08T08:46:04Z</time>
      </trkpt>
      <trkpt lat="42.93848" lon="-0.34221">
        <ele>1997.5999755859</ele>
        <time>2013-01-08T08:46:13Z</time>
      </trkpt>
      <trkpt lat="42.93845" lon="-0.34219">
        <ele>1998.8000488281</ele>
        <time>2013-01-08T08:46:21Z</time>
      </trkpt>
      <trkpt lat="42.93843" lon="-0.34217">
        <ele>1999.8000488281</ele>
        <time>2013-01-08T08:46:27Z</time>
      </trkpt>
      <trkpt lat="42.93841" lon="-0.34215">
        <ele>2000.5999755859</ele>
        <time>2013-01-08T08:46:33Z</time>
      </trkpt>
      <trkpt lat="42.93839" lon="-0.34211">
        <ele>2002</ele>
        <time>2013-01-08T08:46:41Z</time>
      </trkpt>
      <trkpt lat="42.93838" lon="-0.34208">
        <ele>2002.5999755859</ele>
        <time>2013-01-08T08:46:46Z</time>
      </trkpt>
      <trkpt lat="42.93836" lon="-0.34204">
        <ele>2003.5999755859</ele>
        <time>2013-01-08T08:46:52Z</time>
      </trkpt>
      <trkpt lat="42.93834" lon="-0.34202">
        <ele>2004.1999511719</ele>
        <time>2013-01-08T08:46:58Z</time>
      </trkpt>
      <trkpt lat="42.93831" lon="-0.34195">
        <ele>2006.4000244141</ele>
        <time>2013-01-08T08:47:12Z</time>
      </trkpt>
      <trkpt lat="42.93829" lon="-0.34191">
        <ele>2007.4000244141</ele>
        <time>2013-01-08T08:47:18Z</time>
      </trkpt>
      <trkpt lat="42.93827" lon="-0.34188">
        <ele>2008.5999755859</ele>
        <time>2013-01-08T08:47:24Z</time>
      </trkpt>
      <trkpt lat="42.93823" lon="-0.34185">
        <ele>2010.5999755859</ele>
        <time>2013-01-08T08:47:33Z</time>
      </trkpt>
      <trkpt lat="42.9382" lon="-0.34185">
        <ele>2012</ele>
        <time>2013-01-08T08:47:39Z</time>
      </trkpt>
      <trkpt lat="42.93814" lon="-0.34188">
        <ele>2015.4000244141</ele>
        <time>2013-01-08T08:47:48Z</time>
      </trkpt>
      <trkpt lat="42.9381" lon="-0.34189">
        <ele>2016.8000488281</ele>
        <time>2013-01-08T08:47:54Z</time>
      </trkpt>
      <trkpt lat="42.93806" lon="-0.34192">
        <ele>2018.8000488281</ele>
        <time>2013-01-08T08:48:00Z</time>
      </trkpt>
      <trkpt lat="42.93803" lon="-0.34196">
        <ele>2020.4000244141</ele>
        <time>2013-01-08T08:48:11Z</time>
      </trkpt>
      <trkpt lat="42.93797" lon="-0.34203">
        <ele>2023.1999511719</ele>
        <time>2013-01-08T08:48:20Z</time>
      </trkpt>
      <trkpt lat="42.93799" lon="-0.34206">
        <ele>2022.5999755859</ele>
        <time>2013-01-08T08:48:28Z</time>
      </trkpt>
      <trkpt lat="42.938" lon="-0.3422">
        <ele>2021.4000244141</ele>
        <time>2013-01-08T08:48:57Z</time>
      </trkpt>
      <trkpt lat="42.93799" lon="-0.34227">
        <ele>2022</ele>
        <time>2013-01-08T08:49:07Z</time>
      </trkpt>
      <trkpt lat="42.93798" lon="-0.34231">
        <ele>2022.1999511719</ele>
        <time>2013-01-08T08:49:13Z</time>
      </trkpt>
      <trkpt lat="42.93798" lon="-0.34238">
        <ele>2022.1999511719</ele>
        <time>2013-01-08T08:49:25Z</time>
      </trkpt>
      <trkpt lat="42.93798" lon="-0.34242">
        <ele>2022.1999511719</ele>
        <time>2013-01-08T08:49:31Z</time>
      </trkpt>
      <trkpt lat="42.93798" lon="-0.34247">
        <ele>2022.1999511719</ele>
        <time>2013-01-08T08:49:40Z</time>
      </trkpt>
      <trkpt lat="42.938" lon="-0.3425">
        <ele>2021</ele>
        <time>2013-01-08T08:49:46Z</time>
      </trkpt>
      <trkpt lat="42.938" lon="-0.34255">
        <ele>2020.5999755859</ele>
        <time>2013-01-08T08:49:59Z</time>
      </trkpt>
      <trkpt lat="42.93791" lon="-0.34271">
        <ele>2024.5999755859</ele>
        <time>2013-01-08T08:50:22Z</time>
      </trkpt>
      <trkpt lat="42.93791" lon="-0.34273">
        <ele>2024.1999511719</ele>
        <time>2013-01-08T08:50:29Z</time>
      </trkpt>
      <trkpt lat="42.9379" lon="-0.34278">
        <ele>2025</ele>
        <time>2013-01-08T08:50:34Z</time>
      </trkpt>
      <trkpt lat="42.93791" lon="-0.34283">
        <ele>2024</ele>
        <time>2013-01-08T08:50:43Z</time>
      </trkpt>
      <trkpt lat="42.93789" lon="-0.34288">
        <ele>2024.5999755859</ele>
        <time>2013-01-08T08:50:52Z</time>
      </trkpt>
      <trkpt lat="42.93788" lon="-0.34291">
        <ele>2025.5999755859</ele>
        <time>2013-01-08T08:50:59Z</time>
      </trkpt>
      <trkpt lat="42.93786" lon="-0.34294">
        <ele>2026.1999511719</ele>
        <time>2013-01-08T08:51:04Z</time>
      </trkpt>
      <trkpt lat="42.93785" lon="-0.34296">
        <ele>2026.5999755859</ele>
        <time>2013-01-08T08:51:09Z</time>
      </trkpt>
      <trkpt lat="42.93783" lon="-0.343">
        <ele>2027.8000488281</ele>
        <time>2013-01-08T08:51:16Z</time>
      </trkpt>
      <trkpt lat="42.93779" lon="-0.34306">
        <ele>2030.4000244141</ele>
        <time>2013-01-08T08:51:25Z</time>
      </trkpt>
      <trkpt lat="42.93776" lon="-0.3431">
        <ele>2032.4000244141</ele>
        <time>2013-01-08T08:51:30Z</time>
      </trkpt>
      <trkpt lat="42.93776" lon="-0.34315">
        <ele>2032.4000244141</ele>
        <time>2013-01-08T08:51:40Z</time>
      </trkpt>
      <trkpt lat="42.93774" lon="-0.3432">
        <ele>2033.5999755859</ele>
        <time>2013-01-08T08:51:50Z</time>
      </trkpt>
      <trkpt lat="42.93773" lon="-0.34325">
        <ele>2034.4000244141</ele>
        <time>2013-01-08T08:52:01Z</time>
      </trkpt>
      <trkpt lat="42.93771" lon="-0.3433">
        <ele>2035.5999755859</ele>
        <time>2013-01-08T08:52:10Z</time>
      </trkpt>
      <trkpt lat="42.9377" lon="-0.34332">
        <ele>2036.4000244141</ele>
        <time>2013-01-08T08:52:15Z</time>
      </trkpt>
      <trkpt lat="42.93768" lon="-0.34336">
        <ele>2038.1999511719</ele>
        <time>2013-01-08T08:52:23Z</time>
      </trkpt>
      <trkpt lat="42.93766" lon="-0.34341">
        <ele>2039.4000244141</ele>
        <time>2013-01-08T08:52:32Z</time>
      </trkpt>
      <trkpt lat="42.93765" lon="-0.34344">
        <ele>2041</ele>
        <time>2013-01-08T08:52:39Z</time>
      </trkpt>
      <trkpt lat="42.9376" lon="-0.34351">
        <ele>2044.1999511719</ele>
        <time>2013-01-08T08:52:47Z</time>
      </trkpt>
      <trkpt lat="42.93759" lon="-0.34353">
        <ele>2045.1999511719</ele>
        <time>2013-01-08T08:52:52Z</time>
      </trkpt>
      <trkpt lat="42.93757" lon="-0.34356">
        <ele>2046.5999755859</ele>
        <time>2013-01-08T08:52:58Z</time>
      </trkpt>
      <trkpt lat="42.93755" lon="-0.3436">
        <ele>2048.1999511719</ele>
        <time>2013-01-08T08:53:05Z</time>
      </trkpt>
      <trkpt lat="42.93753" lon="-0.34366">
        <ele>2049.8000488281</ele>
        <time>2013-01-08T08:53:14Z</time>
      </trkpt>
      <trkpt lat="42.93752" lon="-0.34368">
        <ele>2050.3999023438</ele>
        <time>2013-01-08T08:53:19Z</time>
      </trkpt>
      <trkpt lat="42.93749" lon="-0.34374">
        <ele>2052.1999511719</ele>
        <time>2013-01-08T08:53:28Z</time>
      </trkpt>
      <trkpt lat="42.93746" lon="-0.3438">
        <ele>2053.3999023438</ele>
        <time>2013-01-08T08:53:39Z</time>
      </trkpt>
      <trkpt lat="42.93744" lon="-0.34383">
        <ele>2054</ele>
        <time>2013-01-08T08:53:45Z</time>
      </trkpt>
      <trkpt lat="42.93742" lon="-0.34386">
        <ele>2054.6000976562</ele>
        <time>2013-01-08T08:53:51Z</time>
      </trkpt>
      <trkpt lat="42.9374" lon="-0.3439">
        <ele>2055.3999023438</ele>
        <time>2013-01-08T08:54:00Z</time>
      </trkpt>
      <trkpt lat="42.93736" lon="-0.34393">
        <ele>2056.3999023438</ele>
        <time>2013-01-08T08:54:09Z</time>
      </trkpt>
      <trkpt lat="42.93735" lon="-0.34395">
        <ele>2057</ele>
        <time>2013-01-08T08:54:14Z</time>
      </trkpt>
      <trkpt lat="42.93733" lon="-0.34397">
        <ele>2057.6000976562</ele>
        <time>2013-01-08T08:54:20Z</time>
      </trkpt>
      <trkpt lat="42.93731" lon="-0.344">
        <ele>2058.1999511719</ele>
        <time>2013-01-08T08:54:26Z</time>
      </trkpt>
      <trkpt lat="42.93726" lon="-0.34405">
        <ele>2059.3999023438</ele>
        <time>2013-01-08T08:54:39Z</time>
      </trkpt>
      <trkpt lat="42.93722" lon="-0.34407">
        <ele>2060.3999023438</ele>
        <time>2013-01-08T08:54:46Z</time>
      </trkpt>
      <trkpt lat="42.93718" lon="-0.34411">
        <ele>2061.1999511719</ele>
        <time>2013-01-08T08:54:54Z</time>
      </trkpt>
      <trkpt lat="42.93715" lon="-0.34413">
        <ele>2062</ele>
        <time>2013-01-08T08:55:02Z</time>
      </trkpt>
      <trkpt lat="42.93712" lon="-0.34416">
        <ele>2062.3999023438</ele>
        <time>2013-01-08T08:55:08Z</time>
      </trkpt>
      <trkpt lat="42.9371" lon="-0.34418">
        <ele>2063.1999511719</ele>
        <time>2013-01-08T08:55:14Z</time>
      </trkpt>
      <trkpt lat="42.93703" lon="-0.34422">
        <ele>2065</ele>
        <time>2013-01-08T08:55:27Z</time>
      </trkpt>
      <trkpt lat="42.93697" lon="-0.34423">
        <ele>2066.6000976562</ele>
        <time>2013-01-08T08:55:38Z</time>
      </trkpt>
      <trkpt lat="42.93689" lon="-0.34429">
        <ele>2068.8000488281</ele>
        <time>2013-01-08T08:55:48Z</time>
      </trkpt>
      <trkpt lat="42.93683" lon="-0.34431">
        <ele>2070.3999023438</ele>
        <time>2013-01-08T08:55:58Z</time>
      </trkpt>
      <trkpt lat="42.93676" lon="-0.34431">
        <ele>2072</ele>
        <time>2013-01-08T08:56:09Z</time>
      </trkpt>
      <trkpt lat="42.9367" lon="-0.3443">
        <ele>2073.3999023438</ele>
        <time>2013-01-08T08:56:19Z</time>
      </trkpt>
      <trkpt lat="42.93665" lon="-0.34428">
        <ele>2074.1999511719</ele>
        <time>2013-01-08T08:56:29Z</time>
      </trkpt>
      <trkpt lat="42.93665" lon="-0.34427">
        <ele>2074.1999511719</ele>
        <time>2013-01-08T08:56:36Z</time>
      </trkpt>
      <trkpt lat="42.93661" lon="-0.34424">
        <ele>2074.6000976562</ele>
        <time>2013-01-08T08:56:55Z</time>
      </trkpt>
      <trkpt lat="42.93657" lon="-0.34421">
        <ele>2075.1999511719</ele>
        <time>2013-01-08T08:57:03Z</time>
      </trkpt>
      <trkpt lat="42.93656" lon="-0.34421">
        <ele>2075.1999511719</ele>
        <time>2013-01-08T08:57:04Z</time>
      </trkpt>
      <trkpt lat="42.93651" lon="-0.34419">
        <ele>2075.8000488281</ele>
        <time>2013-01-08T08:57:12Z</time>
      </trkpt>
      <trkpt lat="42.93648" lon="-0.34417">
        <ele>2076.1999511719</ele>
        <time>2013-01-08T08:57:16Z</time>
      </trkpt>
      <trkpt lat="42.93642" lon="-0.34414">
        <ele>2077.3999023438</ele>
        <time>2013-01-08T08:57:26Z</time>
      </trkpt>
      <trkpt lat="42.93634" lon="-0.34409">
        <ele>2079.1999511719</ele>
        <time>2013-01-08T08:57:37Z</time>
      </trkpt>
      <trkpt lat="42.93628" lon="-0.34406">
        <ele>2080.3999023438</ele>
        <time>2013-01-08T08:57:48Z</time>
      </trkpt>
      <trkpt lat="42.93621" lon="-0.34402">
        <ele>2082</ele>
        <time>2013-01-08T08:57:59Z</time>
      </trkpt>
      <trkpt lat="42.93616" lon="-0.344">
        <ele>2083</ele>
        <time>2013-01-08T08:58:08Z</time>
      </trkpt>
      <trkpt lat="42.9361" lon="-0.34398">
        <ele>2084.1999511719</ele>
        <time>2013-01-08T08:58:16Z</time>
      </trkpt>
      <trkpt lat="42.93604" lon="-0.34397">
        <ele>2085.1999511719</ele>
        <time>2013-01-08T08:58:26Z</time>
      </trkpt>
      <trkpt lat="42.93602" lon="-0.34397">
        <ele>2085.6000976562</ele>
        <time>2013-01-08T08:58:29Z</time>
      </trkpt>
      <trkpt lat="42.93594" lon="-0.34397">
        <ele>2086.3999023438</ele>
        <time>2013-01-08T08:58:41Z</time>
      </trkpt>
      <trkpt lat="42.93588" lon="-0.34397">
        <ele>2087.1999511719</ele>
        <time>2013-01-08T08:58:51Z</time>
      </trkpt>
      <trkpt lat="42.9358" lon="-0.34397">
        <ele>2088.3999023438</ele>
        <time>2013-01-08T08:59:02Z</time>
      </trkpt>
      <trkpt lat="42.93575" lon="-0.34399">
        <ele>2089.3999023438</ele>
        <time>2013-01-08T08:59:12Z</time>
      </trkpt>
      <trkpt lat="42.93568" lon="-0.34398">
        <ele>2090.8000488281</ele>
        <time>2013-01-08T08:59:22Z</time>
      </trkpt>
      <trkpt lat="42.93564" lon="-0.34399">
        <ele>2091.3999023438</ele>
        <time>2013-01-08T08:59:32Z</time>
      </trkpt>
      <trkpt lat="42.93558" lon="-0.34402">
        <ele>2092.1999511719</ele>
        <time>2013-01-08T08:59:44Z</time>
      </trkpt>
      <trkpt lat="42.93551" lon="-0.34404">
        <ele>2093</ele>
        <time>2013-01-08T08:59:56Z</time>
      </trkpt>
      <trkpt lat="42.93545" lon="-0.34405">
        <ele>2094</ele>
        <time>2013-01-08T09:00:05Z</time>
      </trkpt>
      <trkpt lat="42.93539" lon="-0.34407">
        <ele>2094.8000488281</ele>
        <time>2013-01-08T09:00:16Z</time>
      </trkpt>
      <trkpt lat="42.93533" lon="-0.34409">
        <ele>2095.3999023438</ele>
        <time>2013-01-08T09:00:27Z</time>
      </trkpt>
      <trkpt lat="42.93528" lon="-0.34411">
        <ele>2096</ele>
        <time>2013-01-08T09:00:37Z</time>
      </trkpt>
      <trkpt lat="42.93521" lon="-0.3441">
        <ele>2097.3999023438</ele>
        <time>2013-01-08T09:00:47Z</time>
      </trkpt>
      <trkpt lat="42.93517" lon="-0.3441">
        <ele>2098.1999511719</ele>
        <time>2013-01-08T09:00:55Z</time>
      </trkpt>
      <trkpt lat="42.93512" lon="-0.34412">
        <ele>2099</ele>
        <time>2013-01-08T09:01:05Z</time>
      </trkpt>
      <trkpt lat="42.93505" lon="-0.34413">
        <ele>2100</ele>
        <time>2013-01-08T09:01:16Z</time>
      </trkpt>
      <trkpt lat="42.935" lon="-0.34411">
        <ele>2101.3999023438</ele>
        <time>2013-01-08T09:01:26Z</time>
      </trkpt>
      <trkpt lat="42.93494" lon="-0.34409">
        <ele>2103.8000488281</ele>
        <time>2013-01-08T09:01:37Z</time>
      </trkpt>
      <trkpt lat="42.9349" lon="-0.34408">
        <ele>2105.1999511719</ele>
        <time>2013-01-08T09:01:44Z</time>
      </trkpt>
      <trkpt lat="42.93485" lon="-0.34407">
        <ele>2107.1999511719</ele>
        <time>2013-01-08T09:01:54Z</time>
      </trkpt>
      <trkpt lat="42.93481" lon="-0.34407">
        <ele>2108.1999511719</ele>
        <time>2013-01-08T09:02:01Z</time>
      </trkpt>
      <trkpt lat="42.93475" lon="-0.34406">
        <ele>2110.3999023438</ele>
        <time>2013-01-08T09:02:11Z</time>
      </trkpt>
      <trkpt lat="42.93469" lon="-0.34406">
        <ele>2112.3999023438</ele>
        <time>2013-01-08T09:02:20Z</time>
      </trkpt>
      <trkpt lat="42.93462" lon="-0.34405">
        <ele>2114.3999023438</ele>
        <time>2013-01-08T09:02:30Z</time>
      </trkpt>
      <trkpt lat="42.93457" lon="-0.34408">
        <ele>2115.1999511719</ele>
        <time>2013-01-08T09:02:40Z</time>
      </trkpt>
      <trkpt lat="42.93452" lon="-0.34411">
        <ele>2116</ele>
        <time>2013-01-08T09:02:49Z</time>
      </trkpt>
      <trkpt lat="42.93449" lon="-0.34411">
        <ele>2116.8000488281</ele>
        <time>2013-01-08T09:02:55Z</time>
      </trkpt>
      <trkpt lat="42.93445" lon="-0.34413">
        <ele>2117.3999023438</ele>
        <time>2013-01-08T09:03:03Z</time>
      </trkpt>
      <trkpt lat="42.93441" lon="-0.34414">
        <ele>2118.6000976562</ele>
        <time>2013-01-08T09:03:10Z</time>
      </trkpt>
      <trkpt lat="42.93438" lon="-0.34414">
        <ele>2119.3999023438</ele>
        <time>2013-01-08T09:03:15Z</time>
      </trkpt>
      <trkpt lat="42.93433" lon="-0.34415">
        <ele>2120.6000976562</ele>
        <time>2013-01-08T09:03:27Z</time>
      </trkpt>
      <trkpt lat="42.9343" lon="-0.34416">
        <ele>2120.8000488281</ele>
        <time>2013-01-08T09:03:33Z</time>
      </trkpt>
      <trkpt lat="42.93428" lon="-0.34418">
        <ele>2121.3999023438</ele>
        <time>2013-01-08T09:03:40Z</time>
      </trkpt>
      <trkpt lat="42.93425" lon="-0.3442">
        <ele>2121.8000488281</ele>
        <time>2013-01-08T09:03:47Z</time>
      </trkpt>
      <trkpt lat="42.93422" lon="-0.3442">
        <ele>2122.6000976562</ele>
        <time>2013-01-08T09:03:52Z</time>
      </trkpt>
      <trkpt lat="42.9342" lon="-0.34421">
        <ele>2123</ele>
        <time>2013-01-08T09:03:57Z</time>
      </trkpt>
      <trkpt lat="42.93417" lon="-0.34421">
        <ele>2124</ele>
        <time>2013-01-08T09:04:03Z</time>
      </trkpt>
      <trkpt lat="42.93412" lon="-0.34424">
        <ele>2125.8000488281</ele>
        <time>2013-01-08T09:04:14Z</time>
      </trkpt>
      <trkpt lat="42.93408" lon="-0.34425">
        <ele>2127.1999511719</ele>
        <time>2013-01-08T09:04:22Z</time>
      </trkpt>
      <trkpt lat="42.93404" lon="-0.34425">
        <ele>2129</ele>
        <time>2013-01-08T09:04:28Z</time>
      </trkpt>
      <trkpt lat="42.934" lon="-0.34424">
        <ele>2130.8000488281</ele>
        <time>2013-01-08T09:04:34Z</time>
      </trkpt>
      <trkpt lat="42.93397" lon="-0.34423">
        <ele>2132.3999023438</ele>
        <time>2013-01-08T09:04:40Z</time>
      </trkpt>
      <trkpt lat="42.93393" lon="-0.34425">
        <ele>2133.8000488281</ele>
        <time>2013-01-08T09:04:47Z</time>
      </trkpt>
      <trkpt lat="42.93389" lon="-0.34427">
        <ele>2135.1999511719</ele>
        <time>2013-01-08T09:04:54Z</time>
      </trkpt>
      <trkpt lat="42.93384" lon="-0.34429">
        <ele>2137</ele>
        <time>2013-01-08T09:05:05Z</time>
      </trkpt>
      <trkpt lat="42.93379" lon="-0.34433">
        <ele>2138.8000488281</ele>
        <time>2013-01-08T09:05:15Z</time>
      </trkpt>
      <trkpt lat="42.93376" lon="-0.34434">
        <ele>2140.1999511719</ele>
        <time>2013-01-08T09:05:23Z</time>
      </trkpt>
      <trkpt lat="42.93374" lon="-0.34436">
        <ele>2140.8000488281</ele>
        <time>2013-01-08T09:05:28Z</time>
      </trkpt>
      <trkpt lat="42.93371" lon="-0.34439">
        <ele>2141.3999023438</ele>
        <time>2013-01-08T09:05:34Z</time>
      </trkpt>
      <trkpt lat="42.9337" lon="-0.34442">
        <ele>2141.8000488281</ele>
        <time>2013-01-08T09:05:41Z</time>
      </trkpt>
      <trkpt lat="42.93369" lon="-0.34446">
        <ele>2141.6000976562</ele>
        <time>2013-01-08T09:05:47Z</time>
      </trkpt>
      <trkpt lat="42.93367" lon="-0.34454">
        <ele>2141.3999023438</ele>
        <time>2013-01-08T09:05:58Z</time>
      </trkpt>
      <trkpt lat="42.93363" lon="-0.34444">
        <ele>2144.6000976562</ele>
        <time>2013-01-08T09:06:28Z</time>
      </trkpt>
      <trkpt lat="42.93363" lon="-0.34433">
        <ele>2146</ele>
        <time>2013-01-08T09:06:46Z</time>
      </trkpt>
      <trkpt lat="42.93363" lon="-0.34428">
        <ele>2146.6000976562</ele>
        <time>2013-01-08T09:06:54Z</time>
      </trkpt>
      <trkpt lat="42.93363" lon="-0.3442">
        <ele>2147.3999023438</ele>
        <time>2013-01-08T09:07:10Z</time>
      </trkpt>
      <trkpt lat="42.9336" lon="-0.34422">
        <ele>2148.8000488281</ele>
        <time>2013-01-08T09:07:21Z</time>
      </trkpt>
      <trkpt lat="42.93355" lon="-0.34424">
        <ele>2150.6000976562</ele>
        <time>2013-01-08T09:07:31Z</time>
      </trkpt>
      <trkpt lat="42.93353" lon="-0.34427">
        <ele>2151.3999023438</ele>
        <time>2013-01-08T09:07:43Z</time>
      </trkpt>
      <trkpt lat="42.93352" lon="-0.34428">
        <ele>2151.6000976562</ele>
        <time>2013-01-08T09:07:48Z</time>
      </trkpt>
      <trkpt lat="42.93349" lon="-0.34434">
        <ele>2152.1999511719</ele>
        <time>2013-01-08T09:08:00Z</time>
      </trkpt>
      <trkpt lat="42.93349" lon="-0.3443">
        <ele>2152.6000976562</ele>
        <time>2013-01-08T09:08:15Z</time>
      </trkpt>
      <trkpt lat="42.93349" lon="-0.34428">
        <ele>2152.8000488281</ele>
        <time>2013-01-08T09:08:19Z</time>
      </trkpt>
      <trkpt lat="42.9335" lon="-0.34422">
        <ele>2152.8000488281</ele>
        <time>2013-01-08T09:08:32Z</time>
      </trkpt>
      <trkpt lat="42.93347" lon="-0.34424">
        <ele>2154.1999511719</ele>
        <time>2013-01-08T09:08:53Z</time>
      </trkpt>
      <trkpt lat="42.93346" lon="-0.3442">
        <ele>2155</ele>
        <time>2013-01-08T09:09:37Z</time>
      </trkpt>
      <trkpt lat="42.93346" lon="-0.34419">
        <ele>2155.1999511719</ele>
        <time>2013-01-08T09:09:50Z</time>
      </trkpt>
      <trkpt lat="42.93346" lon="-0.34418">
        <ele>2155.3999023438</ele>
        <time>2013-01-08T09:09:59Z</time>
      </trkpt>
      <trkpt lat="42.93346" lon="-0.34418">
        <ele>2155.1999511719</ele>
        <time>2013-01-08T09:10:09Z</time>
      </trkpt>
      <trkpt lat="42.93345" lon="-0.34417">
        <ele>2155.6000976562</ele>
        <time>2013-01-08T09:10:56Z</time>
      </trkpt>
      <trkpt lat="42.93344" lon="-0.3442">
        <ele>2156</ele>
        <time>2013-01-08T09:11:08Z</time>
      </trkpt>
      <trkpt lat="42.93341" lon="-0.34424">
        <ele>2156.6000976562</ele>
        <time>2013-01-08T09:11:19Z</time>
      </trkpt>
      <trkpt lat="42.93341" lon="-0.34424">
        <ele>2156.6000976562</ele>
        <time>2013-01-08T09:11:21Z</time>
      </trkpt>
      <trkpt lat="42.93334" lon="-0.34432">
        <ele>2158.8000488281</ele>
        <time>2013-01-08T09:11:47Z</time>
      </trkpt>
      <trkpt lat="42.9333" lon="-0.34434">
        <ele>2161.6000976562</ele>
        <time>2013-01-08T09:12:05Z</time>
      </trkpt>
      <trkpt lat="42.93329" lon="-0.34427">
        <ele>2163</ele>
        <time>2013-01-08T09:12:20Z</time>
      </trkpt>
      <trkpt lat="42.93329" lon="-0.34421">
        <ele>2163.8000488281</ele>
        <time>2013-01-08T09:12:27Z</time>
      </trkpt>
      <trkpt lat="42.93331" lon="-0.34418">
        <ele>2162.6000976562</ele>
        <time>2013-01-08T09:12:33Z</time>
      </trkpt>
      <trkpt lat="42.93331" lon="-0.34414">
        <ele>2163.1999511719</ele>
        <time>2013-01-08T09:12:37Z</time>
      </trkpt>
      <trkpt lat="42.93332" lon="-0.34408">
        <ele>2163.8000488281</ele>
        <time>2013-01-08T09:12:45Z</time>
      </trkpt>
      <trkpt lat="42.93332" lon="-0.34403">
        <ele>2164.8000488281</ele>
        <time>2013-01-08T09:12:52Z</time>
      </trkpt>
      <trkpt lat="42.93332" lon="-0.344">
        <ele>2165.6000976562</ele>
        <time>2013-01-08T09:12:58Z</time>
      </trkpt>
      <trkpt lat="42.93332" lon="-0.34395">
        <ele>2166.6000976562</ele>
        <time>2013-01-08T09:13:05Z</time>
      </trkpt>
      <trkpt lat="42.93332" lon="-0.34392">
        <ele>2167.3999023438</ele>
        <time>2013-01-08T09:13:12Z</time>
      </trkpt>
      <trkpt lat="42.93332" lon="-0.34386">
        <ele>2168.6000976562</ele>
        <time>2013-01-08T09:13:20Z</time>
      </trkpt>
      <trkpt lat="42.93331" lon="-0.34382">
        <ele>2169.8000488281</ele>
        <time>2013-01-08T09:13:26Z</time>
      </trkpt>
      <trkpt lat="42.93331" lon="-0.34378">
        <ele>2170.8000488281</ele>
        <time>2013-01-08T09:13:32Z</time>
      </trkpt>
      <trkpt lat="42.9333" lon="-0.34376">
        <ele>2171.6000976562</ele>
        <time>2013-01-08T09:13:37Z</time>
      </trkpt>
      <trkpt lat="42.93329" lon="-0.3437">
        <ele>2173.1999511719</ele>
        <time>2013-01-08T09:13:45Z</time>
      </trkpt>
      <trkpt lat="42.93328" lon="-0.34366">
        <ele>2175</ele>
        <time>2013-01-08T09:13:53Z</time>
      </trkpt>
      <trkpt lat="42.93327" lon="-0.34363">
        <ele>2176.3999023438</ele>
        <time>2013-01-08T09:13:59Z</time>
      </trkpt>
      <trkpt lat="42.93325" lon="-0.34358">
        <ele>2178</ele>
        <time>2013-01-08T09:14:07Z</time>
      </trkpt>
      <trkpt lat="42.93325" lon="-0.34355">
        <ele>2179</ele>
        <time>2013-01-08T09:14:14Z</time>
      </trkpt>
      <trkpt lat="42.93324" lon="-0.34353">
        <ele>2180</ele>
        <time>2013-01-08T09:14:24Z</time>
      </trkpt>
      <trkpt lat="42.93323" lon="-0.3435">
        <ele>2180.8000488281</ele>
        <time>2013-01-08T09:14:33Z</time>
      </trkpt>
      <trkpt lat="42.93323" lon="-0.34346">
        <ele>2181.8000488281</ele>
        <time>2013-01-08T09:14:40Z</time>
      </trkpt>
      <trkpt lat="42.93322" lon="-0.34343">
        <ele>2182.6000976562</ele>
        <time>2013-01-08T09:14:45Z</time>
      </trkpt>
      <trkpt lat="42.93322" lon="-0.34339">
        <ele>2183.1999511719</ele>
        <time>2013-01-08T09:14:51Z</time>
      </trkpt>
      <trkpt lat="42.93322" lon="-0.34335">
        <ele>2184.1999511719</ele>
        <time>2013-01-08T09:14:58Z</time>
      </trkpt>
      <trkpt lat="42.93322" lon="-0.34329">
        <ele>2185.1999511719</ele>
        <time>2013-01-08T09:15:09Z</time>
      </trkpt>
      <trkpt lat="42.9332" lon="-0.34327">
        <ele>2186.1999511719</ele>
        <time>2013-01-08T09:15:16Z</time>
      </trkpt>
      <trkpt lat="42.93312" lon="-0.34338">
        <ele>2189</ele>
        <time>2013-01-08T09:15:53Z</time>
      </trkpt>
      <trkpt lat="42.9331" lon="-0.34336">
        <ele>2190.1999511719</ele>
        <time>2013-01-08T09:15:57Z</time>
      </trkpt>
      <trkpt lat="42.9331" lon="-0.34336">
        <ele>2190.1999511719</ele>
        <time>2013-01-08T09:15:59Z</time>
      </trkpt>
      <trkpt lat="42.9331" lon="-0.34332">
        <ele>2191</ele>
        <time>2013-01-08T09:16:08Z</time>
      </trkpt>
      <trkpt lat="42.9331" lon="-0.34328">
        <ele>2191.3999023438</ele>
        <time>2013-01-08T09:16:16Z</time>
      </trkpt>
      <trkpt lat="42.93309" lon="-0.34326">
        <ele>2191.8000488281</ele>
        <time>2013-01-08T09:16:24Z</time>
      </trkpt>
      <trkpt lat="42.9331" lon="-0.34324">
        <ele>2191.8000488281</ele>
        <time>2013-01-08T09:16:29Z</time>
      </trkpt>
      <trkpt lat="42.9331" lon="-0.3432">
        <ele>2192</ele>
        <time>2013-01-08T09:16:38Z</time>
      </trkpt>
      <trkpt lat="42.93311" lon="-0.34317">
        <ele>2191.8000488281</ele>
        <time>2013-01-08T09:16:44Z</time>
      </trkpt>
      <trkpt lat="42.93312" lon="-0.34313">
        <ele>2192</ele>
        <time>2013-01-08T09:16:52Z</time>
      </trkpt>
      <trkpt lat="42.93313" lon="-0.3431">
        <ele>2191.8000488281</ele>
        <time>2013-01-08T09:16:59Z</time>
      </trkpt>
      <trkpt lat="42.93314" lon="-0.34308">
        <ele>2191.6000976562</ele>
        <time>2013-01-08T09:17:04Z</time>
      </trkpt>
      <trkpt lat="42.93315" lon="-0.34301">
        <ele>2191.8000488281</ele>
        <time>2013-01-08T09:17:16Z</time>
      </trkpt>
      <trkpt lat="42.93316" lon="-0.34299">
        <ele>2191.8000488281</ele>
        <time>2013-01-08T09:17:21Z</time>
      </trkpt>
      <trkpt lat="42.93316" lon="-0.34297">
        <ele>2192</ele>
        <time>2013-01-08T09:17:28Z</time>
      </trkpt>
      <trkpt lat="42.93316" lon="-0.34293">
        <ele>2192.1999511719</ele>
        <time>2013-01-08T09:17:35Z</time>
      </trkpt>
      <trkpt lat="42.93316" lon="-0.34292">
        <ele>2192.3999023438</ele>
        <time>2013-01-08T09:17:41Z</time>
      </trkpt>
      <trkpt lat="42.93314" lon="-0.3429">
        <ele>2193.6000976562</ele>
        <time>2013-01-08T09:17:50Z</time>
      </trkpt>
      <trkpt lat="42.93311" lon="-0.3429">
        <ele>2194.8000488281</ele>
        <time>2013-01-08T09:17:56Z</time>
      </trkpt>
      <trkpt lat="42.93307" lon="-0.34291">
        <ele>2196.1999511719</ele>
        <time>2013-01-08T09:18:04Z</time>
      </trkpt>
      <trkpt lat="42.93304" lon="-0.34294">
        <ele>2197.3999023438</ele>
        <time>2013-01-08T09:18:12Z</time>
      </trkpt>
      <trkpt lat="42.93302" lon="-0.34296">
        <ele>2197.8000488281</ele>
        <time>2013-01-08T09:18:18Z</time>
      </trkpt>
      <trkpt lat="42.933" lon="-0.34299">
        <ele>2198.6000976562</ele>
        <time>2013-01-08T09:18:25Z</time>
      </trkpt>
      <trkpt lat="42.93298" lon="-0.34302">
        <ele>2199.1999511719</ele>
        <time>2013-01-08T09:18:31Z</time>
      </trkpt>
      <trkpt lat="42.93295" lon="-0.34307">
        <ele>2200</ele>
        <time>2013-01-08T09:18:41Z</time>
      </trkpt>
      <trkpt lat="42.93293" lon="-0.34311">
        <ele>2200.6000976562</ele>
        <time>2013-01-08T09:18:47Z</time>
      </trkpt>
      <trkpt lat="42.93291" lon="-0.34317">
        <ele>2201.3999023438</ele>
        <time>2013-01-08T09:18:56Z</time>
      </trkpt>
      <trkpt lat="42.93288" lon="-0.34323">
        <ele>2202.3999023438</ele>
        <time>2013-01-08T09:19:05Z</time>
      </trkpt>
      <trkpt lat="42.93286" lon="-0.34327">
        <ele>2203</ele>
        <time>2013-01-08T09:19:12Z</time>
      </trkpt>
      <trkpt lat="42.93285" lon="-0.34332">
        <ele>2203.3999023438</ele>
        <time>2013-01-08T09:19:19Z</time>
      </trkpt>
      <trkpt lat="42.93283" lon="-0.34339">
        <ele>2203.8000488281</ele>
        <time>2013-01-08T09:19:28Z</time>
      </trkpt>
      <trkpt lat="42.93282" lon="-0.34344">
        <ele>2204</ele>
        <time>2013-01-08T09:19:35Z</time>
      </trkpt>
      <trkpt lat="42.93281" lon="-0.34348">
        <ele>2204.1999511719</ele>
        <time>2013-01-08T09:19:41Z</time>
      </trkpt>
      <trkpt lat="42.9328" lon="-0.34351">
        <ele>2204.1999511719</ele>
        <time>2013-01-08T09:19:46Z</time>
      </trkpt>
      <trkpt lat="42.9328" lon="-0.34354">
        <ele>2204.1999511719</ele>
        <time>2013-01-08T09:19:50Z</time>
      </trkpt>
      <trkpt lat="42.93279" lon="-0.34356">
        <ele>2204.1999511719</ele>
        <time>2013-01-08T09:19:53Z</time>
      </trkpt>
      <trkpt lat="42.93278" lon="-0.34362">
        <ele>2204.8000488281</ele>
        <time>2013-01-08T09:20:00Z</time>
      </trkpt>
      <trkpt lat="42.93275" lon="-0.3437">
        <ele>2205.3999023438</ele>
        <time>2013-01-08T09:20:11Z</time>
      </trkpt>
      <trkpt lat="42.93273" lon="-0.34379">
        <ele>2206</ele>
        <time>2013-01-08T09:20:22Z</time>
      </trkpt>
      <trkpt lat="42.93272" lon="-0.34384">
        <ele>2206.1999511719</ele>
        <time>2013-01-08T09:20:30Z</time>
      </trkpt>
      <trkpt lat="42.93271" lon="-0.3439">
        <ele>2206.8000488281</ele>
        <time>2013-01-08T09:20:38Z</time>
      </trkpt>
      <trkpt lat="42.93271" lon="-0.34396">
        <ele>2206.6000976562</ele>
        <time>2013-01-08T09:20:46Z</time>
      </trkpt>
      <trkpt lat="42.9327" lon="-0.344">
        <ele>2206.8000488281</ele>
        <time>2013-01-08T09:20:51Z</time>
      </trkpt>
      <trkpt lat="42.9327" lon="-0.34405">
        <ele>2206.6000976562</ele>
        <time>2013-01-08T09:20:57Z</time>
      </trkpt>
      <trkpt lat="42.93269" lon="-0.34414">
        <ele>2206.6000976562</ele>
        <time>2013-01-08T09:21:08Z</time>
      </trkpt>
      <trkpt lat="42.93268" lon="-0.34422">
        <ele>2206.8000488281</ele>
        <time>2013-01-08T09:21:17Z</time>
      </trkpt>
      <trkpt lat="42.93268" lon="-0.3443">
        <ele>2207.1999511719</ele>
        <time>2013-01-08T09:21:27Z</time>
      </trkpt>
      <trkpt lat="42.93267" lon="-0.34438">
        <ele>2207.8000488281</ele>
        <time>2013-01-08T09:21:37Z</time>
      </trkpt>
      <trkpt lat="42.93266" lon="-0.34445">
        <ele>2208.3999023438</ele>
        <time>2013-01-08T09:21:46Z</time>
      </trkpt>
      <trkpt lat="42.93265" lon="-0.34453">
        <ele>2209.1999511719</ele>
        <time>2013-01-08T09:21:55Z</time>
      </trkpt>
      <trkpt lat="42.93263" lon="-0.3446">
        <ele>2210.1999511719</ele>
        <time>2013-01-08T09:22:03Z</time>
      </trkpt>
      <trkpt lat="42.93262" lon="-0.34467">
        <ele>2210.8000488281</ele>
        <time>2013-01-08T09:22:12Z</time>
      </trkpt>
      <trkpt lat="42.93261" lon="-0.34475">
        <ele>2212</ele>
        <time>2013-01-08T09:22:21Z</time>
      </trkpt>
      <trkpt lat="42.93259" lon="-0.34484">
        <ele>2213.1999511719</ele>
        <time>2013-01-08T09:22:31Z</time>
      </trkpt>
      <trkpt lat="42.93259" lon="-0.34487">
        <ele>2213.8000488281</ele>
        <time>2013-01-08T09:22:35Z</time>
      </trkpt>
      <trkpt lat="42.93258" lon="-0.34491">
        <ele>2214.6000976562</ele>
        <time>2013-01-08T09:22:40Z</time>
      </trkpt>
      <trkpt lat="42.93257" lon="-0.34495">
        <ele>2215.1999511719</ele>
        <time>2013-01-08T09:22:46Z</time>
      </trkpt>
      <trkpt lat="42.93256" lon="-0.34502">
        <ele>2216.1999511719</ele>
        <time>2013-01-08T09:22:54Z</time>
      </trkpt>
      <trkpt lat="42.93255" lon="-0.3451">
        <ele>2217.3999023438</ele>
        <time>2013-01-08T09:23:03Z</time>
      </trkpt>
      <trkpt lat="42.93253" lon="-0.34519">
        <ele>2219</ele>
        <time>2013-01-08T09:23:12Z</time>
      </trkpt>
      <trkpt lat="42.93252" lon="-0.34527">
        <ele>2220.3999023438</ele>
        <time>2013-01-08T09:23:20Z</time>
      </trkpt>
      <trkpt lat="42.93251" lon="-0.34535">
        <ele>2221.3999023438</ele>
        <time>2013-01-08T09:23:28Z</time>
      </trkpt>
      <trkpt lat="42.93249" lon="-0.34543">
        <ele>2222.8000488281</ele>
        <time>2013-01-08T09:23:37Z</time>
      </trkpt>
      <trkpt lat="42.93246" lon="-0.34553">
        <ele>2223.8000488281</ele>
        <time>2013-01-08T09:23:48Z</time>
      </trkpt>
      <trkpt lat="42.93243" lon="-0.3456">
        <ele>2224.6000976562</ele>
        <time>2013-01-08T09:23:56Z</time>
      </trkpt>
      <trkpt lat="42.93239" lon="-0.34567">
        <ele>2225.1999511719</ele>
        <time>2013-01-08T09:24:05Z</time>
      </trkpt>
      <trkpt lat="42.93235" lon="-0.34575">
        <ele>2226</ele>
        <time>2013-01-08T09:24:15Z</time>
      </trkpt>
      <trkpt lat="42.9323" lon="-0.34582">
        <ele>2226.6000976562</ele>
        <time>2013-01-08T09:24:24Z</time>
      </trkpt>
      <trkpt lat="42.93226" lon="-0.3459">
        <ele>2227</ele>
        <time>2013-01-08T09:24:33Z</time>
      </trkpt>
      <trkpt lat="42.93222" lon="-0.34597">
        <ele>2227.3999023438</ele>
        <time>2013-01-08T09:24:43Z</time>
      </trkpt>
      <trkpt lat="42.93219" lon="-0.34602">
        <ele>2227.8000488281</ele>
        <time>2013-01-08T09:24:50Z</time>
      </trkpt>
      <trkpt lat="42.93214" lon="-0.34607">
        <ele>2228.3999023438</ele>
        <time>2013-01-08T09:24:59Z</time>
      </trkpt>
      <trkpt lat="42.9321" lon="-0.34609">
        <ele>2229</ele>
        <time>2013-01-08T09:25:05Z</time>
      </trkpt>
      <trkpt lat="42.93205" lon="-0.34612">
        <ele>2229.8000488281</ele>
        <time>2013-01-08T09:25:13Z</time>
      </trkpt>
      <trkpt lat="42.932" lon="-0.34616">
        <ele>2230.3999023438</ele>
        <time>2013-01-08T09:25:21Z</time>
      </trkpt>
      <trkpt lat="42.93194" lon="-0.3462">
        <ele>2231.1999511719</ele>
        <time>2013-01-08T09:25:31Z</time>
      </trkpt>
      <trkpt lat="42.93193" lon="-0.34624">
        <ele>2231.1999511719</ele>
        <time>2013-01-08T09:25:38Z</time>
      </trkpt>
      <trkpt lat="42.93196" lon="-0.34633">
        <ele>2230.8000488281</ele>
        <time>2013-01-08T09:25:48Z</time>
      </trkpt>
      <trkpt lat="42.93199" lon="-0.3464">
        <ele>2230.3999023438</ele>
        <time>2013-01-08T09:25:58Z</time>
      </trkpt>
      <trkpt lat="42.93202" lon="-0.34648">
        <ele>2230</ele>
        <time>2013-01-08T09:26:07Z</time>
      </trkpt>
      <trkpt lat="42.93201" lon="-0.34653">
        <ele>2230</ele>
        <time>2013-01-08T09:26:13Z</time>
      </trkpt>
      <trkpt lat="42.93201" lon="-0.34658">
        <ele>2230</ele>
        <time>2013-01-08T09:26:19Z</time>
      </trkpt>
      <trkpt lat="42.93196" lon="-0.34664">
        <ele>2230.6000976562</ele>
        <time>2013-01-08T09:26:29Z</time>
      </trkpt>
      <trkpt lat="42.9319" lon="-0.34668">
        <ele>2231.6000976562</ele>
        <time>2013-01-08T09:26:39Z</time>
      </trkpt>
      <trkpt lat="42.93186" lon="-0.34669">
        <ele>2232.3999023438</ele>
        <time>2013-01-08T09:26:46Z</time>
      </trkpt>
      <trkpt lat="42.93183" lon="-0.34671">
        <ele>2233.1999511719</ele>
        <time>2013-01-08T09:26:52Z</time>
      </trkpt>
      <trkpt lat="42.93178" lon="-0.34672">
        <ele>2234.1999511719</ele>
        <time>2013-01-08T09:27:00Z</time>
      </trkpt>
      <trkpt lat="42.93173" lon="-0.34673">
        <ele>2235.1999511719</ele>
        <time>2013-01-08T09:27:08Z</time>
      </trkpt>
      <trkpt lat="42.9317" lon="-0.34676">
        <ele>2236</ele>
        <time>2013-01-08T09:27:14Z</time>
      </trkpt>
      <trkpt lat="42.93167" lon="-0.34678">
        <ele>2236.6000976562</ele>
        <time>2013-01-08T09:27:21Z</time>
      </trkpt>
      <trkpt lat="42.93165" lon="-0.3468">
        <ele>2237</ele>
        <time>2013-01-08T09:27:27Z</time>
      </trkpt>
      <trkpt lat="42.93163" lon="-0.34684">
        <ele>2237.3999023438</ele>
        <time>2013-01-08T09:27:34Z</time>
      </trkpt>
      <trkpt lat="42.93162" lon="-0.34686">
        <ele>2237.6000976562</ele>
        <time>2013-01-08T09:27:40Z</time>
      </trkpt>
      <trkpt lat="42.93156" lon="-0.34695">
        <ele>2238.3999023438</ele>
        <time>2013-01-08T09:27:57Z</time>
      </trkpt>
      <trkpt lat="42.93155" lon="-0.34697">
        <ele>2238.6000976562</ele>
        <time>2013-01-08T09:28:02Z</time>
      </trkpt>
      <trkpt lat="42.93153" lon="-0.34701">
        <ele>2239</ele>
        <time>2013-01-08T09:28:08Z</time>
      </trkpt>
      <trkpt lat="42.93148" lon="-0.34705">
        <ele>2239.1999511719</ele>
        <time>2013-01-08T09:28:17Z</time>
      </trkpt>
      <trkpt lat="42.93144" lon="-0.34709">
        <ele>2239.3999023438</ele>
        <time>2013-01-08T09:28:25Z</time>
      </trkpt>
      <trkpt lat="42.9314" lon="-0.34713">
        <ele>2239.8000488281</ele>
        <time>2013-01-08T09:28:34Z</time>
      </trkpt>
      <trkpt lat="42.93137" lon="-0.34716">
        <ele>2239.8000488281</ele>
        <time>2013-01-08T09:28:40Z</time>
      </trkpt>
      <trkpt lat="42.93133" lon="-0.3472">
        <ele>2240</ele>
        <time>2013-01-08T09:28:47Z</time>
      </trkpt>
      <trkpt lat="42.9313" lon="-0.34721">
        <ele>2239.8000488281</ele>
        <time>2013-01-08T09:28:55Z</time>
      </trkpt>
      <trkpt lat="42.93124" lon="-0.34725">
        <ele>2239.8000488281</ele>
        <time>2013-01-08T09:29:05Z</time>
      </trkpt>
      <trkpt lat="42.93117" lon="-0.34727">
        <ele>2239.6000976562</ele>
        <time>2013-01-08T09:29:15Z</time>
      </trkpt>
      <trkpt lat="42.93111" lon="-0.34729">
        <ele>2239.1999511719</ele>
        <time>2013-01-08T09:29:25Z</time>
      </trkpt>
      <trkpt lat="42.93106" lon="-0.34733">
        <ele>2239.1999511719</ele>
        <time>2013-01-08T09:29:34Z</time>
      </trkpt>
      <trkpt lat="42.93098" lon="-0.3474">
        <ele>2239.6000976562</ele>
        <time>2013-01-08T09:29:44Z</time>
      </trkpt>
      <trkpt lat="42.93093" lon="-0.34745">
        <ele>2240</ele>
        <time>2013-01-08T09:29:52Z</time>
      </trkpt>
      <trkpt lat="42.93091" lon="-0.34747">
        <ele>2240.1999511719</ele>
        <time>2013-01-08T09:29:55Z</time>
      </trkpt>
      <trkpt lat="42.93086" lon="-0.34751">
        <ele>2240.3999023438</ele>
        <time>2013-01-08T09:30:04Z</time>
      </trkpt>
      <trkpt lat="42.93082" lon="-0.34754">
        <ele>2240.6000976562</ele>
        <time>2013-01-08T09:30:10Z</time>
      </trkpt>
      <trkpt lat="42.93076" lon="-0.34757">
        <ele>2240.8000488281</ele>
        <time>2013-01-08T09:30:19Z</time>
      </trkpt>
      <trkpt lat="42.9307" lon="-0.3476">
        <ele>2241</ele>
        <time>2013-01-08T09:30:28Z</time>
      </trkpt>
      <trkpt lat="42.93064" lon="-0.34766">
        <ele>2241.6000976562</ele>
        <time>2013-01-08T09:30:39Z</time>
      </trkpt>
      <trkpt lat="42.93059" lon="-0.34771">
        <ele>2242</ele>
        <time>2013-01-08T09:30:47Z</time>
      </trkpt>
      <trkpt lat="42.93053" lon="-0.34776">
        <ele>2242.3999023438</ele>
        <time>2013-01-08T09:30:59Z</time>
      </trkpt>
      <trkpt lat="42.93045" lon="-0.34783">
        <ele>2242.8000488281</ele>
        <time>2013-01-08T09:31:12Z</time>
      </trkpt>
      <trkpt lat="42.93041" lon="-0.34787">
        <ele>2243</ele>
        <time>2013-01-08T09:31:21Z</time>
      </trkpt>
      <trkpt lat="42.93035" lon="-0.34793">
        <ele>2243.1999511719</ele>
        <time>2013-01-08T09:31:32Z</time>
      </trkpt>
      <trkpt lat="42.9303" lon="-0.348">
        <ele>2243.3999023438</ele>
        <time>2013-01-08T09:31:42Z</time>
      </trkpt>
      <trkpt lat="42.93024" lon="-0.34806">
        <ele>2243.6000976562</ele>
        <time>2013-01-08T09:31:53Z</time>
      </trkpt>
      <trkpt lat="42.93017" lon="-0.34815">
        <ele>2243.6000976562</ele>
        <time>2013-01-08T09:32:04Z</time>
      </trkpt>
      <trkpt lat="42.93013" lon="-0.3482">
        <ele>2243.6000976562</ele>
        <time>2013-01-08T09:32:12Z</time>
      </trkpt>
      <trkpt lat="42.93008" lon="-0.34826">
        <ele>2243.3999023438</ele>
        <time>2013-01-08T09:32:22Z</time>
      </trkpt>
      <trkpt lat="42.93005" lon="-0.34829">
        <ele>2243.3999023438</ele>
        <time>2013-01-08T09:32:28Z</time>
      </trkpt>
      <trkpt lat="42.93001" lon="-0.34833">
        <ele>2243</ele>
        <time>2013-01-08T09:32:35Z</time>
      </trkpt>
      <trkpt lat="42.92996" lon="-0.34837">
        <ele>2244.6000976562</ele>
        <time>2013-01-08T09:32:44Z</time>
      </trkpt>
      <trkpt lat="42.92993" lon="-0.34839">
        <ele>2245.6000976562</ele>
        <time>2013-01-08T09:32:50Z</time>
      </trkpt>
      <trkpt lat="42.92989" lon="-0.34842">
        <ele>2246.8000488281</ele>
        <time>2013-01-08T09:32:57Z</time>
      </trkpt>
      <trkpt lat="42.92984" lon="-0.34847">
        <ele>2248.3999023438</ele>
        <time>2013-01-08T09:33:07Z</time>
      </trkpt>
      <trkpt lat="42.92981" lon="-0.34848">
        <ele>2248.8000488281</ele>
        <time>2013-01-08T09:33:13Z</time>
      </trkpt>
      <trkpt lat="42.92979" lon="-0.34849">
        <ele>2249.3999023438</ele>
        <time>2013-01-08T09:33:18Z</time>
      </trkpt>
      <trkpt lat="42.92975" lon="-0.34851">
        <ele>2249.8000488281</ele>
        <time>2013-01-08T09:33:24Z</time>
      </trkpt>
      <trkpt lat="42.92972" lon="-0.34853">
        <ele>2250.3999023438</ele>
        <time>2013-01-08T09:33:30Z</time>
      </trkpt>
      <trkpt lat="42.92969" lon="-0.34855">
        <ele>2250.8000488281</ele>
        <time>2013-01-08T09:33:35Z</time>
      </trkpt>
      <trkpt lat="42.92966" lon="-0.34858">
        <ele>2251.6000976562</ele>
        <time>2013-01-08T09:33:42Z</time>
      </trkpt>
      <trkpt lat="42.92961" lon="-0.34864">
        <ele>2253</ele>
        <time>2013-01-08T09:33:51Z</time>
      </trkpt>
      <trkpt lat="42.92957" lon="-0.34867">
        <ele>2253.6000976562</ele>
        <time>2013-01-08T09:33:58Z</time>
      </trkpt>
      <trkpt lat="42.92954" lon="-0.34869">
        <ele>2253.8000488281</ele>
        <time>2013-01-08T09:34:03Z</time>
      </trkpt>
      <trkpt lat="42.9295" lon="-0.34873">
        <ele>2254.1999511719</ele>
        <time>2013-01-08T09:34:10Z</time>
      </trkpt>
      <trkpt lat="42.92946" lon="-0.34876">
        <ele>2254.3999023438</ele>
        <time>2013-01-08T09:34:17Z</time>
      </trkpt>
      <trkpt lat="42.9294" lon="-0.34881">
        <ele>2254.6000976562</ele>
        <time>2013-01-08T09:34:27Z</time>
      </trkpt>
      <trkpt lat="42.92938" lon="-0.34882">
        <ele>2254.6000976562</ele>
        <time>2013-01-08T09:34:32Z</time>
      </trkpt>
      <trkpt lat="42.92933" lon="-0.34885">
        <ele>2254.3999023438</ele>
        <time>2013-01-08T09:34:39Z</time>
      </trkpt>
      <trkpt lat="42.92929" lon="-0.34887">
        <ele>2254</ele>
        <time>2013-01-08T09:34:45Z</time>
      </trkpt>
      <trkpt lat="42.92923" lon="-0.34892">
        <ele>2253.8000488281</ele>
        <time>2013-01-08T09:34:55Z</time>
      </trkpt>
      <trkpt lat="42.92921" lon="-0.34893">
        <ele>2253.3999023438</ele>
        <time>2013-01-08T09:35:02Z</time>
      </trkpt>
      <trkpt lat="42.92918" lon="-0.34895">
        <ele>2253.1999511719</ele>
        <time>2013-01-08T09:35:09Z</time>
      </trkpt>
      <trkpt lat="42.92916" lon="-0.34897">
        <ele>2253.6000976562</ele>
        <time>2013-01-08T09:35:15Z</time>
      </trkpt>
      <trkpt lat="42.92914" lon="-0.34899">
        <ele>2254.8000488281</ele>
        <time>2013-01-08T09:35:20Z</time>
      </trkpt>
      <trkpt lat="42.92911" lon="-0.349">
        <ele>2256.6000976562</ele>
        <time>2013-01-08T09:35:26Z</time>
      </trkpt>
      <trkpt lat="42.92908" lon="-0.34902">
        <ele>2259</ele>
        <time>2013-01-08T09:35:34Z</time>
      </trkpt>
      <trkpt lat="42.92898" lon="-0.34908">
        <ele>2265</ele>
        <time>2013-01-08T09:35:54Z</time>
      </trkpt>
      <trkpt lat="42.92895" lon="-0.34911">
        <ele>2267.3999023438</ele>
        <time>2013-01-08T09:36:03Z</time>
      </trkpt>
      <trkpt lat="42.9289" lon="-0.34915">
        <ele>2270.1999511719</ele>
        <time>2013-01-08T09:36:13Z</time>
      </trkpt>
      <trkpt lat="42.92887" lon="-0.34918">
        <ele>2272.6000976562</ele>
        <time>2013-01-08T09:36:21Z</time>
      </trkpt>
      <trkpt lat="42.92883" lon="-0.34919">
        <ele>2275</ele>
        <time>2013-01-08T09:36:27Z</time>
      </trkpt>
      <trkpt lat="42.92879" lon="-0.34921">
        <ele>2277.1999511719</ele>
        <time>2013-01-08T09:36:34Z</time>
      </trkpt>
      <trkpt lat="42.92876" lon="-0.34923">
        <ele>2279.3999023438</ele>
        <time>2013-01-08T09:36:41Z</time>
      </trkpt>
      <trkpt lat="42.92873" lon="-0.34925">
        <ele>2281.1999511719</ele>
        <time>2013-01-08T09:36:46Z</time>
      </trkpt>
      <trkpt lat="42.92868" lon="-0.34926">
        <ele>2283.8000488281</ele>
        <time>2013-01-08T09:36:56Z</time>
      </trkpt>
      <trkpt lat="42.92865" lon="-0.34928">
        <ele>2285.3999023438</ele>
        <time>2013-01-08T09:37:04Z</time>
      </trkpt>
      <trkpt lat="42.9286" lon="-0.34931">
        <ele>2288.1999511719</ele>
        <time>2013-01-08T09:37:18Z</time>
      </trkpt>
      <trkpt lat="42.92855" lon="-0.34935">
        <ele>2290</ele>
        <time>2013-01-08T09:37:31Z</time>
      </trkpt>
      <trkpt lat="42.92837" lon="-0.3496">
        <ele>2294.1999511719</ele>
        <time>2013-01-08T09:38:39Z</time>
      </trkpt>
      <trkpt lat="42.92844" lon="-0.34994">
        <ele>2289.3999023438</ele>
        <time>2013-01-08T09:39:47Z</time>
      </trkpt>
      <trkpt lat="42.92842" lon="-0.34995">
        <ele>2289.1999511719</ele>
        <time>2013-01-08T09:39:50Z</time>
      </trkpt>
      <trkpt lat="42.92838" lon="-0.34998">
        <ele>2288.6000976562</ele>
        <time>2013-01-08T09:40:00Z</time>
      </trkpt>
      <trkpt lat="42.92838" lon="-0.34998">
        <ele>2288.6000976562</ele>
        <time>2013-01-08T09:40:01Z</time>
      </trkpt>
      <trkpt lat="42.92835" lon="-0.34999">
        <ele>2288.1999511719</ele>
        <time>2013-01-08T09:40:08Z</time>
      </trkpt>
      <trkpt lat="42.92854" lon="-0.3501">
        <ele>2293.1999511719</ele>
        <time>2013-01-08T09:41:12Z</time>
      </trkpt>
      <trkpt lat="42.92872" lon="-0.35033">
        <ele>2302.3999023438</ele>
        <time>2013-01-08T09:42:16Z</time>
      </trkpt>
      <trkpt lat="42.92869" lon="-0.35036">
        <ele>2303.1999511719</ele>
        <time>2013-01-08T09:42:23Z</time>
      </trkpt>
      <trkpt lat="42.92854" lon="-0.35058">
        <ele>2309</ele>
        <time>2013-01-08T09:43:24Z</time>
      </trkpt>
      <trkpt lat="42.92873" lon="-0.35066">
        <ele>2314.1999511719</ele>
        <time>2013-01-08T09:44:59Z</time>
      </trkpt>
      <trkpt lat="42.92867" lon="-0.35066">
        <ele>2313.3999023438</ele>
        <time>2013-01-08T09:45:14Z</time>
      </trkpt>
      <trkpt lat="42.92868" lon="-0.35067">
        <ele>2313.8000488281</ele>
        <time>2013-01-08T09:45:21Z</time>
      </trkpt>
      <trkpt lat="42.92883" lon="-0.3507">
        <ele>2316.8000488281</ele>
        <time>2013-01-08T09:45:53Z</time>
      </trkpt>
      <trkpt lat="42.92883" lon="-0.35081">
        <ele>2320.3999023438</ele>
        <time>2013-01-08T09:46:42Z</time>
      </trkpt>
      <trkpt lat="42.92882" lon="-0.35084">
        <ele>2321.8000488281</ele>
        <time>2013-01-08T09:46:49Z</time>
      </trkpt>
      <trkpt lat="42.92882" lon="-0.35099">
        <ele>2327.8000488281</ele>
        <time>2013-01-08T09:48:20Z</time>
      </trkpt>
      <trkpt lat="42.92884" lon="-0.35104">
        <ele>2329.8000488281</ele>
        <time>2013-01-08T09:48:54Z</time>
      </trkpt>
      <trkpt lat="42.92888" lon="-0.35097">
        <ele>2327.8000488281</ele>
        <time>2013-01-08T09:49:05Z</time>
      </trkpt>
      <trkpt lat="42.92888" lon="-0.35096">
        <ele>2327.1999511719</ele>
        <time>2013-01-08T09:49:11Z</time>
      </trkpt>
      <trkpt lat="42.92889" lon="-0.351">
        <ele>2329</ele>
        <time>2013-01-08T09:49:20Z</time>
      </trkpt>
      <trkpt lat="42.92893" lon="-0.35102">
        <ele>2330.1999511719</ele>
        <time>2013-01-08T09:49:31Z</time>
      </trkpt>
      <trkpt lat="42.92894" lon="-0.35104">
        <ele>2331</ele>
        <time>2013-01-08T09:49:39Z</time>
      </trkpt>
      <trkpt lat="42.92893" lon="-0.35109">
        <ele>2333</ele>
        <time>2013-01-08T09:49:47Z</time>
      </trkpt>
      <trkpt lat="42.92891" lon="-0.35108">
        <ele>2332.3999023438</ele>
        <time>2013-01-08T09:49:55Z</time>
      </trkpt>
      <trkpt lat="42.92894" lon="-0.35114">
        <ele>2335.1999511719</ele>
        <time>2013-01-08T09:50:07Z</time>
      </trkpt>
      <trkpt lat="42.92893" lon="-0.35115">
        <ele>2335.1999511719</ele>
        <time>2013-01-08T09:50:12Z</time>
      </trkpt>
      <trkpt lat="42.92883" lon="-0.3512">
        <ele>2336.3999023438</ele>
        <time>2013-01-08T09:50:34Z</time>
      </trkpt>
      <trkpt lat="42.92879" lon="-0.35117">
        <ele>2334.6000976562</ele>
        <time>2013-01-08T09:50:45Z</time>
      </trkpt>
      <trkpt lat="42.92878" lon="-0.35116">
        <ele>2334</ele>
        <time>2013-01-08T09:50:51Z</time>
      </trkpt>
      <trkpt lat="42.92877" lon="-0.35116">
        <ele>2334</ele>
        <time>2013-01-08T09:50:53Z</time>
      </trkpt>
      <trkpt lat="42.92876" lon="-0.35117">
        <ele>2334.1999511719</ele>
        <time>2013-01-08T09:51:03Z</time>
      </trkpt>
      <trkpt lat="42.92881" lon="-0.35116">
        <ele>2334.3999023438</ele>
        <time>2013-01-08T09:51:16Z</time>
      </trkpt>
      <trkpt lat="42.92884" lon="-0.35119">
        <ele>2335.8000488281</ele>
        <time>2013-01-08T09:51:55Z</time>
      </trkpt>
      <trkpt lat="42.92885" lon="-0.35122">
        <ele>2337.1999511719</ele>
        <time>2013-01-08T09:52:08Z</time>
      </trkpt>
      <trkpt lat="42.92887" lon="-0.35122">
        <ele>2337.6000976562</ele>
        <time>2013-01-08T09:52:12Z</time>
      </trkpt>
      <trkpt lat="42.92892" lon="-0.35125">
        <ele>2339.1999511719</ele>
        <time>2013-01-08T09:52:30Z</time>
      </trkpt>
      <trkpt lat="42.92895" lon="-0.35126">
        <ele>2340</ele>
        <time>2013-01-08T09:52:37Z</time>
      </trkpt>
      <trkpt lat="42.92899" lon="-0.35127">
        <ele>2340.8000488281</ele>
        <time>2013-01-08T09:52:47Z</time>
      </trkpt>
      <trkpt lat="42.92895" lon="-0.3513">
        <ele>2341.6000976562</ele>
        <time>2013-01-08T09:52:55Z</time>
      </trkpt>
      <trkpt lat="42.92892" lon="-0.35129">
        <ele>2340.8000488281</ele>
        <time>2013-01-08T09:53:07Z</time>
      </trkpt>
      <trkpt lat="42.92891" lon="-0.35137">
        <ele>2344</ele>
        <time>2013-01-08T09:53:30Z</time>
      </trkpt>
      <trkpt lat="42.92903" lon="-0.35133">
        <ele>2343.6000976562</ele>
        <time>2013-01-08T09:54:05Z</time>
      </trkpt>
      <trkpt lat="42.92904" lon="-0.35134">
        <ele>2344</ele>
        <time>2013-01-08T09:54:11Z</time>
      </trkpt>
      <trkpt lat="42.92904" lon="-0.35131">
        <ele>2342.8000488281</ele>
        <time>2013-01-08T09:54:16Z</time>
      </trkpt>
      <trkpt lat="42.92902" lon="-0.35132">
        <ele>2343.1999511719</ele>
        <time>2013-01-08T09:54:26Z</time>
      </trkpt>
      <trkpt lat="42.92906" lon="-0.35136">
        <ele>2345</ele>
        <time>2013-01-08T09:54:37Z</time>
      </trkpt>
      <trkpt lat="42.92913" lon="-0.35137">
        <ele>2346.1999511719</ele>
        <time>2013-01-08T09:54:55Z</time>
      </trkpt>
      <trkpt lat="42.92916" lon="-0.35136">
        <ele>2346.1999511719</ele>
        <time>2013-01-08T09:55:07Z</time>
      </trkpt>
      <trkpt lat="42.92918" lon="-0.35137">
        <ele>2346.1999511719</ele>
        <time>2013-01-08T09:55:11Z</time>
      </trkpt>
      <trkpt lat="42.92919" lon="-0.35136">
        <ele>2345.3999023438</ele>
        <time>2013-01-08T09:55:14Z</time>
      </trkpt>
      <trkpt lat="42.92919" lon="-0.35135">
        <ele>2345.1999511719</ele>
        <time>2013-01-08T09:55:21Z</time>
      </trkpt>
      <trkpt lat="42.92919" lon="-0.35135">
        <ele>2345</ele>
        <time>2013-01-08T09:55:27Z</time>
      </trkpt>
      <trkpt lat="42.92919" lon="-0.35138">
        <ele>2346.1999511719</ele>
        <time>2013-01-08T09:55:34Z</time>
      </trkpt>
      <trkpt lat="42.92908" lon="-0.35149">
        <ele>2350.3999023438</ele>
        <time>2013-01-08T09:56:27Z</time>
      </trkpt>
      <trkpt lat="42.92909" lon="-0.35148">
        <ele>2350.1999511719</ele>
        <time>2013-01-08T09:56:36Z</time>
      </trkpt>
      <trkpt lat="42.92909" lon="-0.35147">
        <ele>2349.8000488281</ele>
        <time>2013-01-08T09:56:40Z</time>
      </trkpt>
      <trkpt lat="42.9291" lon="-0.35146">
        <ele>2349.3999023438</ele>
        <time>2013-01-08T09:56:45Z</time>
      </trkpt>
      <trkpt lat="42.92911" lon="-0.35145">
        <ele>2349</ele>
        <time>2013-01-08T09:56:55Z</time>
      </trkpt>
      <trkpt lat="42.92907" lon="-0.35151">
        <ele>2351</ele>
        <time>2013-01-08T09:57:10Z</time>
      </trkpt>
      <trkpt lat="42.92904" lon="-0.35148">
        <ele>2349.8000488281</ele>
        <time>2013-01-08T09:57:33Z</time>
      </trkpt>
      <trkpt lat="42.92905" lon="-0.35146">
        <ele>2348.6000976562</ele>
        <time>2013-01-08T09:57:44Z</time>
      </trkpt>
      <trkpt lat="42.92904" lon="-0.35146">
        <ele>2348.8000488281</ele>
        <time>2013-01-08T09:57:51Z</time>
      </trkpt>
      <trkpt lat="42.92904" lon="-0.35149">
        <ele>2349.8000488281</ele>
        <time>2013-01-08T09:57:58Z</time>
      </trkpt>
      <trkpt lat="42.92902" lon="-0.35152">
        <ele>2350.8000488281</ele>
        <time>2013-01-08T09:58:03Z</time>
      </trkpt>
      <trkpt lat="42.92901" lon="-0.35153">
        <ele>2351.3999023438</ele>
        <time>2013-01-08T09:58:09Z</time>
      </trkpt>
      <trkpt lat="42.929" lon="-0.35155">
        <ele>2351.8000488281</ele>
        <time>2013-01-08T09:58:14Z</time>
      </trkpt>
      <trkpt lat="42.92899" lon="-0.35155">
        <ele>2351.8000488281</ele>
        <time>2013-01-08T09:58:15Z</time>
      </trkpt>
      <trkpt lat="42.92898" lon="-0.35156">
        <ele>2352.1999511719</ele>
        <time>2013-01-08T09:58:20Z</time>
      </trkpt>
      <trkpt lat="42.92897" lon="-0.35157">
        <ele>2352.3999023438</ele>
        <time>2013-01-08T09:58:26Z</time>
      </trkpt>
      <trkpt lat="42.92899" lon="-0.35159">
        <ele>2353.3999023438</ele>
        <time>2013-01-08T09:58:31Z</time>
      </trkpt>
      <trkpt lat="42.92904" lon="-0.35159">
        <ele>2353.8000488281</ele>
        <time>2013-01-08T09:58:36Z</time>
      </trkpt>
      <trkpt lat="42.92908" lon="-0.35157">
        <ele>2353.3999023438</ele>
        <time>2013-01-08T09:58:41Z</time>
      </trkpt>
      <trkpt lat="42.92912" lon="-0.35156">
        <ele>2353.1999511719</ele>
        <time>2013-01-08T09:58:47Z</time>
      </trkpt>
      <trkpt lat="42.92913" lon="-0.35156">
        <ele>2353.3999023438</ele>
        <time>2013-01-08T09:58:54Z</time>
      </trkpt>
      <trkpt lat="42.92924" lon="-0.35163">
        <ele>2353.8000488281</ele>
        <time>2013-01-08T09:59:49Z</time>
      </trkpt>
      <trkpt lat="42.92917" lon="-0.35168">
        <ele>2358.1999511719</ele>
        <time>2013-01-08T10:00:10Z</time>
      </trkpt>
      <trkpt lat="42.92922" lon="-0.35175">
        <ele>2360</ele>
        <time>2013-01-08T10:00:28Z</time>
      </trkpt>
      <trkpt lat="42.92927" lon="-0.35182">
        <ele>2361.6000976562</ele>
        <time>2013-01-08T10:00:36Z</time>
      </trkpt>
      <trkpt lat="42.9293" lon="-0.35187">
        <ele>2362.6000976562</ele>
        <time>2013-01-08T10:00:47Z</time>
      </trkpt>
      <trkpt lat="42.92931" lon="-0.35202">
        <ele>2366</ele>
        <time>2013-01-08T10:01:08Z</time>
      </trkpt>
      <trkpt lat="42.92941" lon="-0.352">
        <ele>2364.3999023438</ele>
        <time>2013-01-08T10:01:48Z</time>
      </trkpt>
      <trkpt lat="42.92941" lon="-0.35199">
        <ele>2364.1999511719</ele>
        <time>2013-01-08T10:01:56Z</time>
      </trkpt>
      <trkpt lat="42.92941" lon="-0.35199">
        <ele>2364.1999511719</ele>
        <time>2013-01-08T10:02:09Z</time>
      </trkpt>
      <trkpt lat="42.9294" lon="-0.352">
        <ele>2364.6000976562</ele>
        <time>2013-01-08T10:02:14Z</time>
      </trkpt>
      <trkpt lat="42.92939" lon="-0.35198">
        <ele>2364.1999511719</ele>
        <time>2013-01-08T10:02:18Z</time>
      </trkpt>
      <trkpt lat="42.9294" lon="-0.35197">
        <ele>2364</ele>
        <time>2013-01-08T10:02:20Z</time>
      </trkpt>
      <trkpt lat="42.9294" lon="-0.35196">
        <ele>2363.6000976562</ele>
        <time>2013-01-08T10:02:43Z</time>
      </trkpt>
      <trkpt lat="42.92944" lon="-0.35197">
        <ele>2363.3999023438</ele>
        <time>2013-01-08T10:02:56Z</time>
      </trkpt>
      <trkpt lat="42.92945" lon="-0.35195">
        <ele>2363</ele>
        <time>2013-01-08T10:03:00Z</time>
      </trkpt>
      <trkpt lat="42.92951" lon="-0.35203">
        <ele>2363.6000976562</ele>
        <time>2013-01-08T10:03:22Z</time>
      </trkpt>
      <trkpt lat="42.92946" lon="-0.35214">
        <ele>2366.3999023438</ele>
        <time>2013-01-08T10:04:37Z</time>
      </trkpt>
      <trkpt lat="42.92938" lon="-0.35205">
        <ele>2365.8000488281</ele>
        <time>2013-01-08T10:04:51Z</time>
      </trkpt>
      <trkpt lat="42.92936" lon="-0.35203">
        <ele>2365.6000976562</ele>
        <time>2013-01-08T10:05:02Z</time>
      </trkpt>
      <trkpt lat="42.92933" lon="-0.35205">
        <ele>2366.1999511719</ele>
        <time>2013-01-08T10:05:24Z</time>
      </trkpt>
      <trkpt lat="42.92936" lon="-0.35195">
        <ele>2364</ele>
        <time>2013-01-08T10:06:10Z</time>
      </trkpt>
      <trkpt lat="42.9294" lon="-0.35211">
        <ele>2366.8000488281</ele>
        <time>2013-01-08T10:06:32Z</time>
      </trkpt>
      <trkpt lat="42.92941" lon="-0.35211">
        <ele>2366.6000976562</ele>
        <time>2013-01-08T10:06:35Z</time>
      </trkpt>
      <trkpt lat="42.92943" lon="-0.35213">
        <ele>2366.8000488281</ele>
        <time>2013-01-08T10:06:43Z</time>
      </trkpt>
      <trkpt lat="42.92936" lon="-0.35208">
        <ele>2366.8000488281</ele>
        <time>2013-01-08T10:07:26Z</time>
      </trkpt>
      <trkpt lat="42.92937" lon="-0.35199">
        <ele>2364.6000976562</ele>
        <time>2013-01-08T10:07:59Z</time>
      </trkpt>
      <trkpt lat="42.92945" lon="-0.3521">
        <ele>2365.8000488281</ele>
        <time>2013-01-08T10:08:46Z</time>
      </trkpt>
      <trkpt lat="42.92946" lon="-0.35213">
        <ele>2366.1999511719</ele>
        <time>2013-01-08T10:08:51Z</time>
      </trkpt>
      <trkpt lat="42.92946" lon="-0.35216">
        <ele>2366.6000976562</ele>
        <time>2013-01-08T10:08:54Z</time>
      </trkpt>
      <trkpt lat="42.92946" lon="-0.35221">
        <ele>2367.6000976562</ele>
        <time>2013-01-08T10:08:58Z</time>
      </trkpt>
      <trkpt lat="42.92947" lon="-0.35225">
        <ele>2368</ele>
        <time>2013-01-08T10:09:03Z</time>
      </trkpt>
      <trkpt lat="42.92947" lon="-0.35225">
        <ele>2368.1999511719</ele>
        <time>2013-01-08T10:09:04Z</time>
      </trkpt>
      <trkpt lat="42.92947" lon="-0.35229">
        <ele>2368.8000488281</ele>
        <time>2013-01-08T10:09:09Z</time>
      </trkpt>
      <trkpt lat="42.92947" lon="-0.3523">
        <ele>2369</ele>
        <time>2013-01-08T10:09:10Z</time>
      </trkpt>
      <trkpt lat="42.92947" lon="-0.35234">
        <ele>2369.8000488281</ele>
        <time>2013-01-08T10:09:15Z</time>
      </trkpt>
      <trkpt lat="42.92947" lon="-0.35234">
        <ele>2369.8000488281</ele>
        <time>2013-01-08T10:09:16Z</time>
      </trkpt>
      <trkpt lat="42.92947" lon="-0.35236">
        <ele>2370</ele>
        <time>2013-01-08T10:09:21Z</time>
      </trkpt>
      <trkpt lat="42.92947" lon="-0.35239">
        <ele>2370.6000976562</ele>
        <time>2013-01-08T10:09:27Z</time>
      </trkpt>
      <trkpt lat="42.92947" lon="-0.35242">
        <ele>2371.1999511719</ele>
        <time>2013-01-08T10:09:36Z</time>
      </trkpt>
      <trkpt lat="42.92946" lon="-0.35245">
        <ele>2372</ele>
        <time>2013-01-08T10:09:43Z</time>
      </trkpt>
      <trkpt lat="42.92945" lon="-0.35253">
        <ele>2394.6000976562</ele>
        <time>2013-01-08T10:09:57Z</time>
      </trkpt>
      <trkpt lat="42.92944" lon="-0.35259">
        <ele>2395.8000488281</ele>
        <time>2013-01-08T10:10:08Z</time>
      </trkpt>
      <trkpt lat="42.9294" lon="-0.35262">
        <ele>2395</ele>
        <time>2013-01-08T10:10:32Z</time>
      </trkpt>
      <trkpt lat="42.92974" lon="-0.35259">
        <ele>2395.1999511719</ele>
        <time>2013-01-08T10:12:00Z</time>
      </trkpt>
      <trkpt lat="42.92976" lon="-0.35256">
        <ele>2394.8000488281</ele>
        <time>2013-01-08T10:12:08Z</time>
      </trkpt>
      <trkpt lat="42.92976" lon="-0.35249">
        <ele>2392.8000488281</ele>
        <time>2013-01-08T10:12:18Z</time>
      </trkpt>
      <trkpt lat="42.9298" lon="-0.3525">
        <ele>2393.6000976562</ele>
        <time>2013-01-08T10:12:27Z</time>
      </trkpt>
      <trkpt lat="42.92983" lon="-0.35246">
        <ele>2393.6000976562</ele>
        <time>2013-01-08T10:12:43Z</time>
      </trkpt>
      <trkpt lat="42.92987" lon="-0.35239">
        <ele>2393</ele>
        <time>2013-01-08T10:12:57Z</time>
      </trkpt>
      <trkpt lat="42.92991" lon="-0.35251">
        <ele>2396.1999511719</ele>
        <time>2013-01-08T10:13:36Z</time>
      </trkpt>
      <trkpt lat="42.92995" lon="-0.35263">
        <ele>2400.3999023438</ele>
        <time>2013-01-08T10:14:03Z</time>
      </trkpt>
      <trkpt lat="42.92995" lon="-0.35267">
        <ele>2401.3999023438</ele>
        <time>2013-01-08T10:14:15Z</time>
      </trkpt>
      <trkpt lat="42.92996" lon="-0.35278">
        <ele>2404.1999511719</ele>
        <time>2013-01-08T10:14:46Z</time>
      </trkpt>
      <trkpt lat="42.92997" lon="-0.35282">
        <ele>2405.3999023438</ele>
        <time>2013-01-08T10:15:02Z</time>
      </trkpt>
      <trkpt lat="42.92995" lon="-0.35284">
        <ele>2405.8000488281</ele>
        <time>2013-01-08T10:15:06Z</time>
      </trkpt>
      <trkpt lat="42.92995" lon="-0.35296">
        <ele>2408.8000488281</ele>
        <time>2013-01-08T10:15:27Z</time>
      </trkpt>
      <trkpt lat="42.92991" lon="-0.35301">
        <ele>2409.6000976562</ele>
        <time>2013-01-08T10:15:39Z</time>
      </trkpt>
      <trkpt lat="42.92989" lon="-0.35305">
        <ele>2410.6000976562</ele>
        <time>2013-01-08T10:15:49Z</time>
      </trkpt>
      <trkpt lat="42.92988" lon="-0.3531">
        <ele>2411.8000488281</ele>
        <time>2013-01-08T10:16:03Z</time>
      </trkpt>
      <trkpt lat="42.92988" lon="-0.35311">
        <ele>2412</ele>
        <time>2013-01-08T10:16:08Z</time>
      </trkpt>
      <trkpt lat="42.92991" lon="-0.3531">
        <ele>2412.1999511719</ele>
        <time>2013-01-08T10:16:17Z</time>
      </trkpt>
      <trkpt lat="42.92995" lon="-0.35309">
        <ele>2412.1999511719</ele>
        <time>2013-01-08T10:16:27Z</time>
      </trkpt>
      <trkpt lat="42.92999" lon="-0.35306">
        <ele>2411.8000488281</ele>
        <time>2013-01-08T10:16:36Z</time>
      </trkpt>
      <trkpt lat="42.92998" lon="-0.35302">
        <ele>2410.8000488281</ele>
        <time>2013-01-08T10:16:41Z</time>
      </trkpt>
      <trkpt lat="42.92998" lon="-0.35297">
        <ele>2409.3999023438</ele>
        <time>2013-01-08T10:16:46Z</time>
      </trkpt>
      <trkpt lat="42.92998" lon="-0.35294">
        <ele>2408.6000976562</ele>
        <time>2013-01-08T10:16:51Z</time>
      </trkpt>
      <trkpt lat="42.93001" lon="-0.35292">
        <ele>2408.3999023438</ele>
        <time>2013-01-08T10:16:56Z</time>
      </trkpt>
      <trkpt lat="42.93004" lon="-0.35286">
        <ele>2406.6000976562</ele>
        <time>2013-01-08T10:17:05Z</time>
      </trkpt>
      <trkpt lat="42.93007" lon="-0.35283">
        <ele>2405.1999511719</ele>
        <time>2013-01-08T10:17:11Z</time>
      </trkpt>
      <trkpt lat="42.93011" lon="-0.35281">
        <ele>2404.3999023438</ele>
        <time>2013-01-08T10:17:17Z</time>
      </trkpt>
      <trkpt lat="42.93011" lon="-0.3528">
        <ele>2404.1999511719</ele>
        <time>2013-01-08T10:17:18Z</time>
      </trkpt>
      <trkpt lat="42.93011" lon="-0.3528">
        <ele>2404.1999511719</ele>
        <time>2013-01-08T10:17:19Z</time>
      </trkpt>
      <trkpt lat="42.93012" lon="-0.35279">
        <ele>2403.8000488281</ele>
        <time>2013-01-08T10:17:22Z</time>
      </trkpt>
      <trkpt lat="42.9301" lon="-0.35276">
        <ele>2403.3999023438</ele>
        <time>2013-01-08T10:17:36Z</time>
      </trkpt>
      <trkpt lat="42.9301" lon="-0.35275">
        <ele>2403</ele>
        <time>2013-01-08T10:17:40Z</time>
      </trkpt>
      <trkpt lat="42.93018" lon="-0.35269">
        <ele>2401</ele>
        <time>2013-01-08T10:18:16Z</time>
      </trkpt>
      <trkpt lat="42.93026" lon="-0.35251">
        <ele>2396.8000488281</ele>
        <time>2013-01-08T10:18:42Z</time>
      </trkpt>
      <trkpt lat="42.93026" lon="-0.35255">
        <ele>2397.6000976562</ele>
        <time>2013-01-08T10:18:46Z</time>
      </trkpt>
      <trkpt lat="42.93026" lon="-0.35259">
        <ele>2398.3999023438</ele>
        <time>2013-01-08T10:18:50Z</time>
      </trkpt>
      <trkpt lat="42.93025" lon="-0.35264">
        <ele>2399.3999023438</ele>
        <time>2013-01-08T10:18:59Z</time>
      </trkpt>
      <trkpt lat="42.93024" lon="-0.35268">
        <ele>2400.1999511719</ele>
        <time>2013-01-08T10:19:19Z</time>
      </trkpt>
      <trkpt lat="42.93024" lon="-0.35266">
        <ele>2399.8000488281</ele>
        <time>2013-01-08T10:19:24Z</time>
      </trkpt>
      <trkpt lat="42.93024" lon="-0.35262">
        <ele>2399.1999511719</ele>
        <time>2013-01-08T10:19:30Z</time>
      </trkpt>
      <trkpt lat="42.93027" lon="-0.35259">
        <ele>2398.1999511719</ele>
        <time>2013-01-08T10:19:41Z</time>
      </trkpt>
      <trkpt lat="42.93033" lon="-0.35258">
        <ele>2397.8000488281</ele>
        <time>2013-01-08T10:20:22Z</time>
      </trkpt>
      <trkpt lat="42.93032" lon="-0.35258">
        <ele>2397.8000488281</ele>
        <time>2013-01-08T10:20:34Z</time>
      </trkpt>
      <trkpt lat="42.93031" lon="-0.35259">
        <ele>2398</ele>
        <time>2013-01-08T10:20:42Z</time>
      </trkpt>
      <trkpt lat="42.93033" lon="-0.35257">
        <ele>2397.6000976562</ele>
        <time>2013-01-08T10:20:58Z</time>
      </trkpt>
      <trkpt lat="42.93033" lon="-0.35258">
        <ele>2397.6000976562</ele>
        <time>2013-01-08T10:21:05Z</time>
      </trkpt>
      <trkpt lat="42.93033" lon="-0.35258">
        <ele>2397.8000488281</ele>
        <time>2013-01-08T10:21:10Z</time>
      </trkpt>
      <trkpt lat="42.93033" lon="-0.35259">
        <ele>2398</ele>
        <time>2013-01-08T10:21:19Z</time>
      </trkpt>
      <trkpt lat="42.93034" lon="-0.3526">
        <ele>2398</ele>
        <time>2013-01-08T10:21:33Z</time>
      </trkpt>
      <trkpt lat="42.93031" lon="-0.35259">
        <ele>2398</ele>
        <time>2013-01-08T10:21:59Z</time>
      </trkpt>
      <trkpt lat="42.93031" lon="-0.35258">
        <ele>2398</ele>
        <time>2013-01-08T10:22:04Z</time>
      </trkpt>
      <trkpt lat="42.93033" lon="-0.35257">
        <ele>2397.6000976562</ele>
        <time>2013-01-08T10:22:25Z</time>
      </trkpt>
      <trkpt lat="42.93031" lon="-0.35258">
        <ele>2397.8000488281</ele>
        <time>2013-01-08T10:22:30Z</time>
      </trkpt>
      <trkpt lat="42.93031" lon="-0.35258">
        <ele>2397.8000488281</ele>
        <time>2013-01-08T10:22:32Z</time>
      </trkpt>
      <trkpt lat="42.93032" lon="-0.3526">
        <ele>2398.1999511719</ele>
        <time>2013-01-08T10:22:35Z</time>
      </trkpt>
      <trkpt lat="42.93032" lon="-0.3526">
        <ele>2398.1999511719</ele>
        <time>2013-01-08T10:22:44Z</time>
      </trkpt>
      <trkpt lat="42.93033" lon="-0.35259">
        <ele>2398</ele>
        <time>2013-01-08T10:22:47Z</time>
      </trkpt>
      <trkpt lat="42.93032" lon="-0.35259">
        <ele>2398</ele>
        <time>2013-01-08T10:22:49Z</time>
      </trkpt>
      <trkpt lat="42.93031" lon="-0.35259">
        <ele>2398.1999511719</ele>
        <time>2013-01-08T10:22:53Z</time>
      </trkpt>
      <trkpt lat="42.93029" lon="-0.35257">
        <ele>2397.8000488281</ele>
        <time>2013-01-08T10:23:07Z</time>
      </trkpt>
      <trkpt lat="42.93031" lon="-0.35259">
        <ele>2398</ele>
        <time>2013-01-08T10:23:25Z</time>
      </trkpt>
      <trkpt lat="42.93036" lon="-0.35262">
        <ele>2398.1999511719</ele>
        <time>2013-01-08T10:23:40Z</time>
      </trkpt>
      <trkpt lat="42.93038" lon="-0.35261">
        <ele>2398</ele>
        <time>2013-01-08T10:23:45Z</time>
      </trkpt>
      <trkpt lat="42.93041" lon="-0.35261">
        <ele>2397.6000976562</ele>
        <time>2013-01-08T10:23:50Z</time>
      </trkpt>
      <trkpt lat="42.93048" lon="-0.3526">
        <ele>2397</ele>
        <time>2013-01-08T10:23:58Z</time>
      </trkpt>
      <trkpt lat="42.9305" lon="-0.35259">
        <ele>2396.8000488281</ele>
        <time>2013-01-08T10:24:05Z</time>
      </trkpt>
      <trkpt lat="42.93051" lon="-0.35259">
        <ele>2396.6000976562</ele>
        <time>2013-01-08T10:24:06Z</time>
      </trkpt>
      <trkpt lat="42.93052" lon="-0.35259">
        <ele>2396.6000976562</ele>
        <time>2013-01-08T10:24:07Z</time>
      </trkpt>
      <trkpt lat="42.93053" lon="-0.35259">
        <ele>2396.3999023438</ele>
        <time>2013-01-08T10:24:10Z</time>
      </trkpt>
      <trkpt lat="42.93055" lon="-0.35258">
        <ele>2396.3999023438</ele>
        <time>2013-01-08T10:24:11Z</time>
      </trkpt>
      <trkpt lat="42.93058" lon="-0.35256">
        <ele>2395.8000488281</ele>
        <time>2013-01-08T10:24:16Z</time>
      </trkpt>
      <trkpt lat="42.93058" lon="-0.35256">
        <ele>2395.8000488281</ele>
        <time>2013-01-08T10:24:20Z</time>
      </trkpt>
      <trkpt lat="42.93066" lon="-0.35254">
        <ele>2395.1999511719</ele>
        <time>2013-01-08T10:24:53Z</time>
      </trkpt>
      <trkpt lat="42.93075" lon="-0.35251">
        <ele>2394.3999023438</ele>
        <time>2013-01-08T10:25:02Z</time>
      </trkpt>
      <trkpt lat="42.93076" lon="-0.35253">
        <ele>2394.3999023438</ele>
        <time>2013-01-08T10:25:07Z</time>
      </trkpt>
      <trkpt lat="42.93082" lon="-0.35252">
        <ele>2394.1999511719</ele>
        <time>2013-01-08T10:25:14Z</time>
      </trkpt>
      <trkpt lat="42.93086" lon="-0.3525">
        <ele>2394.8000488281</ele>
        <time>2013-01-08T10:25:20Z</time>
      </trkpt>
      <trkpt lat="42.93092" lon="-0.35252">
        <ele>2396.6000976562</ele>
        <time>2013-01-08T10:25:27Z</time>
      </trkpt>
      <trkpt lat="42.93094" lon="-0.35255">
        <ele>2397.1999511719</ele>
        <time>2013-01-08T10:25:31Z</time>
      </trkpt>
      <trkpt lat="42.93097" lon="-0.35254">
        <ele>2398</ele>
        <time>2013-01-08T10:25:33Z</time>
      </trkpt>
      <trkpt lat="42.93098" lon="-0.35255">
        <ele>2398.6000976562</ele>
        <time>2013-01-08T10:25:34Z</time>
      </trkpt>
      <trkpt lat="42.931" lon="-0.35254">
        <ele>2399</ele>
        <time>2013-01-08T10:25:37Z</time>
      </trkpt>
      <trkpt lat="42.93101" lon="-0.35246">
        <ele>2399.6000976562</ele>
        <time>2013-01-08T10:25:48Z</time>
      </trkpt>
      <trkpt lat="42.93104" lon="-0.35245">
        <ele>2400.6000976562</ele>
        <time>2013-01-08T10:25:52Z</time>
      </trkpt>
      <trkpt lat="42.93107" lon="-0.35248">
        <ele>2401.3999023438</ele>
        <time>2013-01-08T10:25:54Z</time>
      </trkpt>
      <trkpt lat="42.93111" lon="-0.35248">
        <ele>2402.6000976562</ele>
        <time>2013-01-08T10:25:56Z</time>
      </trkpt>
      <trkpt lat="42.93113" lon="-0.35247">
        <ele>2403.1999511719</ele>
        <time>2013-01-08T10:25:57Z</time>
      </trkpt>
      <trkpt lat="42.93115" lon="-0.35249">
        <ele>2404</ele>
        <time>2013-01-08T10:26:00Z</time>
      </trkpt>
      <trkpt lat="42.93118" lon="-0.35251">
        <ele>2404.6000976562</ele>
        <time>2013-01-08T10:26:05Z</time>
      </trkpt>
      <trkpt lat="42.93121" lon="-0.35258">
        <ele>2405</ele>
        <time>2013-01-08T10:26:10Z</time>
      </trkpt>
      <trkpt lat="42.93126" lon="-0.35276">
        <ele>2404</ele>
        <time>2013-01-08T10:26:32Z</time>
      </trkpt>
      <trkpt lat="42.93128" lon="-0.35277">
        <ele>2404.3999023438</ele>
        <time>2013-01-08T10:26:33Z</time>
      </trkpt>
      <trkpt lat="42.93139" lon="-0.35283">
        <ele>2405.1999511719</ele>
        <time>2013-01-08T10:26:37Z</time>
      </trkpt>
      <trkpt lat="42.9314" lon="-0.35277">
        <ele>2406.6000976562</ele>
        <time>2013-01-08T10:26:40Z</time>
      </trkpt>
      <trkpt lat="42.93144" lon="-0.35267">
        <ele>2409.3999023438</ele>
        <time>2013-01-08T10:26:46Z</time>
      </trkpt>
      <trkpt lat="42.93145" lon="-0.35268">
        <ele>2409.6000976562</ele>
        <time>2013-01-08T10:26:50Z</time>
      </trkpt>
      <trkpt lat="42.93148" lon="-0.35271">
        <ele>2409.6000976562</ele>
        <time>2013-01-08T10:26:59Z</time>
      </trkpt>
      <trkpt lat="42.93148" lon="-0.35279">
        <ele>2407.8000488281</ele>
        <time>2013-01-08T10:27:08Z</time>
      </trkpt>
      <trkpt lat="42.93152" lon="-0.35282">
        <ele>2407.8000488281</ele>
        <time>2013-01-08T10:27:15Z</time>
      </trkpt>
      <trkpt lat="42.93154" lon="-0.35288">
        <ele>2406.8000488281</ele>
        <time>2013-01-08T10:27:20Z</time>
      </trkpt>
      <trkpt lat="42.93159" lon="-0.35287">
        <ele>2407.6000976562</ele>
        <time>2013-01-08T10:27:30Z</time>
      </trkpt>
      <trkpt lat="42.93162" lon="-0.35291">
        <ele>2407</ele>
        <time>2013-01-08T10:27:35Z</time>
      </trkpt>
      <trkpt lat="42.93164" lon="-0.35297">
        <ele>2405.3999023438</ele>
        <time>2013-01-08T10:27:40Z</time>
      </trkpt>
      <trkpt lat="42.93172" lon="-0.35313">
        <ele>2404.1999511719</ele>
        <time>2013-01-08T10:27:44Z</time>
      </trkpt>
      <trkpt lat="42.93181" lon="-0.35335">
        <ele>2403.1999511719</ele>
        <time>2013-01-08T10:27:49Z</time>
      </trkpt>
      <trkpt lat="42.93183" lon="-0.35339">
        <ele>2404</ele>
        <time>2013-01-08T10:27:55Z</time>
      </trkpt>
      <trkpt lat="42.93186" lon="-0.35343">
        <ele>2405.3999023438</ele>
        <time>2013-01-08T10:28:00Z</time>
      </trkpt>
      <trkpt lat="42.93188" lon="-0.35346">
        <ele>2406.3999023438</ele>
        <time>2013-01-08T10:28:04Z</time>
      </trkpt>
      <trkpt lat="42.93191" lon="-0.35349">
        <ele>2407.6000976562</ele>
        <time>2013-01-08T10:28:10Z</time>
      </trkpt>
      <trkpt lat="42.93194" lon="-0.35357">
        <ele>2408.6000976562</ele>
        <time>2013-01-08T10:28:21Z</time>
      </trkpt>
      <trkpt lat="42.93193" lon="-0.35363">
        <ele>2407.8000488281</ele>
        <time>2013-01-08T10:28:34Z</time>
      </trkpt>
      <trkpt lat="42.93193" lon="-0.35369">
        <ele>2407</ele>
        <time>2013-01-08T10:28:40Z</time>
      </trkpt>
      <trkpt lat="42.93193" lon="-0.35371">
        <ele>2406.3999023438</ele>
        <time>2013-01-08T10:28:42Z</time>
      </trkpt>
      <trkpt lat="42.93192" lon="-0.35377">
        <ele>2405.3999023438</ele>
        <time>2013-01-08T10:28:48Z</time>
      </trkpt>
      <trkpt lat="42.93191" lon="-0.35387">
        <ele>2403.8000488281</ele>
        <time>2013-01-08T10:28:55Z</time>
      </trkpt>
      <trkpt lat="42.9319" lon="-0.35397">
        <ele>2401.8000488281</ele>
        <time>2013-01-08T10:29:04Z</time>
      </trkpt>
      <trkpt lat="42.93188" lon="-0.35406">
        <ele>2400.1999511719</ele>
        <time>2013-01-08T10:29:14Z</time>
      </trkpt>
      <trkpt lat="42.93187" lon="-0.35414">
        <ele>2398.6000976562</ele>
        <time>2013-01-08T10:29:22Z</time>
      </trkpt>
      <trkpt lat="42.93186" lon="-0.35429">
        <ele>2397.8000488281</ele>
        <time>2013-01-08T10:29:32Z</time>
      </trkpt>
      <trkpt lat="42.93185" lon="-0.35442">
        <ele>2397.1999511719</ele>
        <time>2013-01-08T10:29:41Z</time>
      </trkpt>
      <trkpt lat="42.93184" lon="-0.35451">
        <ele>2397</ele>
        <time>2013-01-08T10:29:46Z</time>
      </trkpt>
      <trkpt lat="42.93183" lon="-0.35458">
        <ele>2396.1999511719</ele>
        <time>2013-01-08T10:29:54Z</time>
      </trkpt>
      <trkpt lat="42.9318" lon="-0.35469">
        <ele>2394.6000976562</ele>
        <time>2013-01-08T10:30:03Z</time>
      </trkpt>
      <trkpt lat="42.93179" lon="-0.35474">
        <ele>2394.1999511719</ele>
        <time>2013-01-08T10:30:08Z</time>
      </trkpt>
      <trkpt lat="42.93178" lon="-0.35479">
        <ele>2394</ele>
        <time>2013-01-08T10:30:13Z</time>
      </trkpt>
      <trkpt lat="42.93178" lon="-0.3548">
        <ele>2394</ele>
        <time>2013-01-08T10:30:14Z</time>
      </trkpt>
      <trkpt lat="42.93178" lon="-0.35481">
        <ele>2394</ele>
        <time>2013-01-08T10:30:15Z</time>
      </trkpt>
      <trkpt lat="42.93177" lon="-0.35485">
        <ele>2393.3999023438</ele>
        <time>2013-01-08T10:30:19Z</time>
      </trkpt>
      <trkpt lat="42.93176" lon="-0.35488">
        <ele>2392.8000488281</ele>
        <time>2013-01-08T10:30:22Z</time>
      </trkpt>
      <trkpt lat="42.93175" lon="-0.35489">
        <ele>2392.6000976562</ele>
        <time>2013-01-08T10:30:23Z</time>
      </trkpt>
      <trkpt lat="42.93173" lon="-0.35496">
        <ele>2391.3999023438</ele>
        <time>2013-01-08T10:30:31Z</time>
      </trkpt>
      <trkpt lat="42.9317" lon="-0.35503">
        <ele>2390.1999511719</ele>
        <time>2013-01-08T10:30:40Z</time>
      </trkpt>
      <trkpt lat="42.93167" lon="-0.3551">
        <ele>2389.1999511719</ele>
        <time>2013-01-08T10:30:47Z</time>
      </trkpt>
      <trkpt lat="42.93166" lon="-0.35516">
        <ele>2389.1999511719</ele>
        <time>2013-01-08T10:30:54Z</time>
      </trkpt>
      <trkpt lat="42.93165" lon="-0.3552">
        <ele>2389.6000976562</ele>
        <time>2013-01-08T10:30:59Z</time>
      </trkpt>
      <trkpt lat="42.93165" lon="-0.35526">
        <ele>2390</ele>
        <time>2013-01-08T10:31:04Z</time>
      </trkpt>
      <trkpt lat="42.93164" lon="-0.35527">
        <ele>2390</ele>
        <time>2013-01-08T10:31:05Z</time>
      </trkpt>
      <trkpt lat="42.93162" lon="-0.35531">
        <ele>2390.1999511719</ele>
        <time>2013-01-08T10:31:09Z</time>
      </trkpt>
      <trkpt lat="42.9316" lon="-0.35535">
        <ele>2390.3999023438</ele>
        <time>2013-01-08T10:31:13Z</time>
      </trkpt>
      <trkpt lat="42.93156" lon="-0.3554">
        <ele>2390.6000976562</ele>
        <time>2013-01-08T10:31:23Z</time>
      </trkpt>
      <trkpt lat="42.93152" lon="-0.35544">
        <ele>2390.6000976562</ele>
        <time>2013-01-08T10:31:32Z</time>
      </trkpt>
      <trkpt lat="42.9315" lon="-0.35546">
        <ele>2390.6000976562</ele>
        <time>2013-01-08T10:31:38Z</time>
      </trkpt>
      <trkpt lat="42.93139" lon="-0.35551">
        <ele>2390.1999511719</ele>
        <time>2013-01-08T10:32:09Z</time>
      </trkpt>
      <trkpt lat="42.9314" lon="-0.3555">
        <ele>2390.1999511719</ele>
        <time>2013-01-08T10:32:13Z</time>
      </trkpt>
      <trkpt lat="42.9314" lon="-0.35554">
        <ele>2390.3999023438</ele>
        <time>2013-01-08T10:32:25Z</time>
      </trkpt>
      <trkpt lat="42.93138" lon="-0.35556">
        <ele>2390.3999023438</ele>
        <time>2013-01-08T10:32:52Z</time>
      </trkpt>
      <trkpt lat="42.9314" lon="-0.35556">
        <ele>2390.6000976562</ele>
        <time>2013-01-08T10:33:00Z</time>
      </trkpt>
      <trkpt lat="42.9314" lon="-0.35555">
        <ele>2390.6000976562</ele>
        <time>2013-01-08T10:33:03Z</time>
      </trkpt>
      <trkpt lat="42.9314" lon="-0.35554">
        <ele>2390.3999023438</ele>
        <time>2013-01-08T10:33:18Z</time>
      </trkpt>
      <trkpt lat="42.9314" lon="-0.35554">
        <ele>2390.3999023438</ele>
        <time>2013-01-08T10:33:41Z</time>
      </trkpt>
      <trkpt lat="42.93139" lon="-0.35554">
        <ele>2390.3999023438</ele>
        <time>2013-01-08T10:33:46Z</time>
      </trkpt>
      <trkpt lat="42.93139" lon="-0.35558">
        <ele>2390.6000976562</ele>
        <time>2013-01-08T10:34:03Z</time>
      </trkpt>
      <trkpt lat="42.93134" lon="-0.35562">
        <ele>2390.6000976562</ele>
        <time>2013-01-08T10:34:18Z</time>
      </trkpt>
      <trkpt lat="42.93131" lon="-0.35564">
        <ele>2390.3999023438</ele>
        <time>2013-01-08T10:34:25Z</time>
      </trkpt>
      <trkpt lat="42.93128" lon="-0.35564">
        <ele>2390.1999511719</ele>
        <time>2013-01-08T10:34:31Z</time>
      </trkpt>
      <trkpt lat="42.93125" lon="-0.35568">
        <ele>2390</ele>
        <time>2013-01-08T10:34:39Z</time>
      </trkpt>
      <trkpt lat="42.93124" lon="-0.35571">
        <ele>2390.1999511719</ele>
        <time>2013-01-08T10:34:45Z</time>
      </trkpt>
      <trkpt lat="42.93122" lon="-0.35578">
        <ele>2390.3999023438</ele>
        <time>2013-01-08T10:34:55Z</time>
      </trkpt>
      <trkpt lat="42.9312" lon="-0.35585">
        <ele>2390.3999023438</ele>
        <time>2013-01-08T10:35:04Z</time>
      </trkpt>
      <trkpt lat="42.9312" lon="-0.35589">
        <ele>2390</ele>
        <time>2013-01-08T10:35:11Z</time>
      </trkpt>
      <trkpt lat="42.93119" lon="-0.35594">
        <ele>2389.3999023438</ele>
        <time>2013-01-08T10:35:17Z</time>
      </trkpt>
      <trkpt lat="42.93117" lon="-0.35601">
        <ele>2388.8000488281</ele>
        <time>2013-01-08T10:35:27Z</time>
      </trkpt>
      <trkpt lat="42.93117" lon="-0.35609">
        <ele>2388</ele>
        <time>2013-01-08T10:35:37Z</time>
      </trkpt>
      <trkpt lat="42.93116" lon="-0.35615">
        <ele>2387.6000976562</ele>
        <time>2013-01-08T10:35:44Z</time>
      </trkpt>
      <trkpt lat="42.93117" lon="-0.35621">
        <ele>2387</ele>
        <time>2013-01-08T10:35:52Z</time>
      </trkpt>
      <trkpt lat="42.93116" lon="-0.35625">
        <ele>2386.6000976562</ele>
        <time>2013-01-08T10:36:01Z</time>
      </trkpt>
      <trkpt lat="42.93117" lon="-0.35628">
        <ele>2386.6000976562</ele>
        <time>2013-01-08T10:36:07Z</time>
      </trkpt>
      <trkpt lat="42.93119" lon="-0.35629">
        <ele>2386.6000976562</ele>
        <time>2013-01-08T10:36:13Z</time>
      </trkpt>
      <trkpt lat="42.93121" lon="-0.35626">
        <ele>2387.1999511719</ele>
        <time>2013-01-08T10:36:21Z</time>
      </trkpt>
      <trkpt lat="42.93123" lon="-0.35624">
        <ele>2387.6000976562</ele>
        <time>2013-01-08T10:36:26Z</time>
      </trkpt>
      <trkpt lat="42.93126" lon="-0.35622">
        <ele>2388</ele>
        <time>2013-01-08T10:36:33Z</time>
      </trkpt>
      <trkpt lat="42.9313" lon="-0.35622">
        <ele>2388.3999023438</ele>
        <time>2013-01-08T10:36:42Z</time>
      </trkpt>
      <trkpt lat="42.93132" lon="-0.35623">
        <ele>2388.6000976562</ele>
        <time>2013-01-08T10:36:48Z</time>
      </trkpt>
      <trkpt lat="42.93143" lon="-0.35629">
        <ele>2389.3999023438</ele>
        <time>2013-01-08T10:37:20Z</time>
      </trkpt>
      <trkpt lat="42.93149" lon="-0.35635">
        <ele>2389.8000488281</ele>
        <time>2013-01-08T10:37:50Z</time>
      </trkpt>
      <trkpt lat="42.93151" lon="-0.35634">
        <ele>2390</ele>
        <time>2013-01-08T10:37:55Z</time>
      </trkpt>
      <trkpt lat="42.93154" lon="-0.35635">
        <ele>2390.3999023438</ele>
        <time>2013-01-08T10:38:02Z</time>
      </trkpt>
      <trkpt lat="42.93159" lon="-0.35633">
        <ele>2391</ele>
        <time>2013-01-08T10:38:11Z</time>
      </trkpt>
      <trkpt lat="42.93162" lon="-0.35632">
        <ele>2391.3999023438</ele>
        <time>2013-01-08T10:38:17Z</time>
      </trkpt>
      <trkpt lat="42.93165" lon="-0.35632">
        <ele>2391.8000488281</ele>
        <time>2013-01-08T10:38:24Z</time>
      </trkpt>
      <trkpt lat="42.93171" lon="-0.35631">
        <ele>2393.1999511719</ele>
        <time>2013-01-08T10:38:35Z</time>
      </trkpt>
      <trkpt lat="42.93174" lon="-0.35629">
        <ele>2394.3999023438</ele>
        <time>2013-01-08T10:38:42Z</time>
      </trkpt>
      <trkpt lat="42.93177" lon="-0.35629">
        <ele>2395.3999023438</ele>
        <time>2013-01-08T10:38:48Z</time>
      </trkpt>
      <trkpt lat="42.93179" lon="-0.35628">
        <ele>2396</ele>
        <time>2013-01-08T10:38:54Z</time>
      </trkpt>
      <trkpt lat="42.93183" lon="-0.35628">
        <ele>2397.1999511719</ele>
        <time>2013-01-08T10:39:29Z</time>
      </trkpt>
      <trkpt lat="42.93186" lon="-0.35627">
        <ele>2398.3999023438</ele>
        <time>2013-01-08T10:39:38Z</time>
      </trkpt>
      <trkpt lat="42.9319" lon="-0.35626">
        <ele>2399.6000976562</ele>
        <time>2013-01-08T10:39:46Z</time>
      </trkpt>
      <trkpt lat="42.93194" lon="-0.35624">
        <ele>2401.1999511719</ele>
        <time>2013-01-08T10:39:54Z</time>
      </trkpt>
      <trkpt lat="42.93198" lon="-0.35622">
        <ele>2402.8000488281</ele>
        <time>2013-01-08T10:40:04Z</time>
      </trkpt>
      <trkpt lat="42.93201" lon="-0.3562">
        <ele>2403.8000488281</ele>
        <time>2013-01-08T10:40:14Z</time>
      </trkpt>
      <trkpt lat="42.93204" lon="-0.3562">
        <ele>2405</ele>
        <time>2013-01-08T10:40:38Z</time>
      </trkpt>
      <trkpt lat="42.93208" lon="-0.35618">
        <ele>2406.3999023438</ele>
        <time>2013-01-08T10:40:47Z</time>
      </trkpt>
      <trkpt lat="42.93213" lon="-0.35615">
        <ele>2408.6000976562</ele>
        <time>2013-01-08T10:40:58Z</time>
      </trkpt>
      <trkpt lat="42.93216" lon="-0.35614">
        <ele>2409.8000488281</ele>
        <time>2013-01-08T10:41:05Z</time>
      </trkpt>
      <trkpt lat="42.93219" lon="-0.35613">
        <ele>2410.8000488281</ele>
        <time>2013-01-08T10:41:12Z</time>
      </trkpt>
      <trkpt lat="42.93221" lon="-0.35612">
        <ele>2411.8000488281</ele>
        <time>2013-01-08T10:41:19Z</time>
      </trkpt>
      <trkpt lat="42.93229" lon="-0.35611">
        <ele>2414.6000976562</ele>
        <time>2013-01-08T10:42:06Z</time>
      </trkpt>
      <trkpt lat="42.93231" lon="-0.35609">
        <ele>2416</ele>
        <time>2013-01-08T10:42:12Z</time>
      </trkpt>
      <trkpt lat="42.93238" lon="-0.35607">
        <ele>2418.8000488281</ele>
        <time>2013-01-08T10:42:30Z</time>
      </trkpt>
      <trkpt lat="42.93242" lon="-0.35606">
        <ele>2420.3999023438</ele>
        <time>2013-01-08T10:42:39Z</time>
      </trkpt>
      <trkpt lat="42.93244" lon="-0.35605">
        <ele>2421.1999511719</ele>
        <time>2013-01-08T10:42:44Z</time>
      </trkpt>
      <trkpt lat="42.93247" lon="-0.35606">
        <ele>2422</ele>
        <time>2013-01-08T10:42:53Z</time>
      </trkpt>
      <trkpt lat="42.93248" lon="-0.35607">
        <ele>2422.1999511719</ele>
        <time>2013-01-08T10:43:28Z</time>
      </trkpt>
      <trkpt lat="42.93248" lon="-0.35607">
        <ele>2422.1999511719</ele>
        <time>2013-01-08T10:43:36Z</time>
      </trkpt>
      <trkpt lat="42.93248" lon="-0.35608">
        <ele>2422</ele>
        <time>2013-01-08T10:43:48Z</time>
      </trkpt>
      <trkpt lat="42.93248" lon="-0.35608">
        <ele>2422</ele>
        <time>2013-01-08T10:43:50Z</time>
      </trkpt>
      <trkpt lat="42.93248" lon="-0.35607">
        <ele>2422</ele>
        <time>2013-01-08T10:43:55Z</time>
      </trkpt>
      <trkpt lat="42.93248" lon="-0.35608">
        <ele>2422</ele>
        <time>2013-01-08T10:43:58Z</time>
      </trkpt>
      <trkpt lat="42.93248" lon="-0.35607">
        <ele>2422.1999511719</ele>
        <time>2013-01-08T10:44:06Z</time>
      </trkpt>
      <trkpt lat="42.93249" lon="-0.35607">
        <ele>2422.3999023438</ele>
        <time>2013-01-08T10:44:15Z</time>
      </trkpt>
      <trkpt lat="42.9325" lon="-0.35608">
        <ele>2422.6000976562</ele>
        <time>2013-01-08T10:44:40Z</time>
      </trkpt>
      <trkpt lat="42.9325" lon="-0.35601">
        <ele>2424.6000976562</ele>
        <time>2013-01-08T10:45:32Z</time>
      </trkpt>
      <trkpt lat="42.9325" lon="-0.35601">
        <ele>2424.6000976562</ele>
        <time>2013-01-08T10:45:36Z</time>
      </trkpt>
      <trkpt lat="42.9325" lon="-0.35601">
        <ele>2424.3999023438</ele>
        <time>2013-01-08T10:45:45Z</time>
      </trkpt>
      <trkpt lat="42.9325" lon="-0.35601">
        <ele>2424.3999023438</ele>
        <time>2013-01-08T10:46:15Z</time>
      </trkpt>
      <trkpt lat="42.9325" lon="-0.35601">
        <ele>2424.3999023438</ele>
        <time>2013-01-08T10:46:32Z</time>
      </trkpt>
      <trkpt lat="42.9325" lon="-0.35602">
        <ele>2424.1999511719</ele>
        <time>2013-01-08T10:47:08Z</time>
      </trkpt>
      <trkpt lat="42.9325" lon="-0.35603">
        <ele>2424</ele>
        <time>2013-01-08T10:47:18Z</time>
      </trkpt>
      <trkpt lat="42.9325" lon="-0.35606">
        <ele>2423.1999511719</ele>
        <time>2013-01-08T10:47:50Z</time>
      </trkpt>
      <trkpt lat="42.9325" lon="-0.35606">
        <ele>2423.1999511719</ele>
        <time>2013-01-08T10:47:55Z</time>
      </trkpt>
      <trkpt lat="42.93248" lon="-0.35607">
        <ele>2422.1999511719</ele>
        <time>2013-01-08T10:48:12Z</time>
      </trkpt>
      <trkpt lat="42.9325" lon="-0.35604">
        <ele>2423.3999023438</ele>
        <time>2013-01-08T10:48:59Z</time>
      </trkpt>
      <trkpt lat="42.9325" lon="-0.35604">
        <ele>2423.6000976562</ele>
        <time>2013-01-08T10:49:04Z</time>
      </trkpt>
      <trkpt lat="42.93252" lon="-0.35603">
        <ele>2424</ele>
        <time>2013-01-08T10:49:19Z</time>
      </trkpt>
      <trkpt lat="42.93253" lon="-0.35604">
        <ele>2424</ele>
        <time>2013-01-08T10:49:23Z</time>
      </trkpt>
      <trkpt lat="42.93254" lon="-0.35605">
        <ele>2423.8000488281</ele>
        <time>2013-01-08T10:49:44Z</time>
      </trkpt>
      <trkpt lat="42.93254" lon="-0.35605">
        <ele>2423.8000488281</ele>
        <time>2013-01-08T10:49:59Z</time>
      </trkpt>
      <trkpt lat="42.93257" lon="-0.35603">
        <ele>2424.6000976562</ele>
        <time>2013-01-08T10:50:08Z</time>
      </trkpt>
      <trkpt lat="42.93258" lon="-0.35603">
        <ele>2424.6000976562</ele>
        <time>2013-01-08T10:50:09Z</time>
      </trkpt>
      <trkpt lat="42.93262" lon="-0.35601">
        <ele>2425.3999023438</ele>
        <time>2013-01-08T10:50:19Z</time>
      </trkpt>
      <trkpt lat="42.93264" lon="-0.35599">
        <ele>2426</ele>
        <time>2013-01-08T10:50:26Z</time>
      </trkpt>
      <trkpt lat="42.93267" lon="-0.35598">
        <ele>2426.6000976562</ele>
        <time>2013-01-08T10:50:34Z</time>
      </trkpt>
      <trkpt lat="42.93269" lon="-0.35598">
        <ele>2426.8000488281</ele>
        <time>2013-01-08T10:50:37Z</time>
      </trkpt>
      <trkpt lat="42.9327" lon="-0.35597">
        <ele>2427</ele>
        <time>2013-01-08T10:50:41Z</time>
      </trkpt>
      <trkpt lat="42.93271" lon="-0.35597">
        <ele>2427.1999511719</ele>
        <time>2013-01-08T10:50:44Z</time>
      </trkpt>
      <trkpt lat="42.93275" lon="-0.35596">
        <ele>2427.8000488281</ele>
        <time>2013-01-08T10:50:51Z</time>
      </trkpt>
      <trkpt lat="42.93278" lon="-0.35595">
        <ele>2428.3999023438</ele>
        <time>2013-01-08T10:50:57Z</time>
      </trkpt>
      <trkpt lat="42.9328" lon="-0.35594">
        <ele>2428.8000488281</ele>
        <time>2013-01-08T10:51:01Z</time>
      </trkpt>
      <trkpt lat="42.93286" lon="-0.35592">
        <ele>2429.6000976562</ele>
        <time>2013-01-08T10:51:12Z</time>
      </trkpt>
      <trkpt lat="42.93289" lon="-0.35592">
        <ele>2430.1999511719</ele>
        <time>2013-01-08T10:51:20Z</time>
      </trkpt>
      <trkpt lat="42.93293" lon="-0.35592">
        <ele>2430.1999511719</ele>
        <time>2013-01-08T10:51:27Z</time>
      </trkpt>
      <trkpt lat="42.93297" lon="-0.35593">
        <ele>2430.3999023438</ele>
        <time>2013-01-08T10:51:35Z</time>
      </trkpt>
      <trkpt lat="42.93302" lon="-0.35594">
        <ele>2430.6000976562</ele>
        <time>2013-01-08T10:51:44Z</time>
      </trkpt>
      <trkpt lat="42.93306" lon="-0.35593">
        <ele>2431.1999511719</ele>
        <time>2013-01-08T10:51:51Z</time>
      </trkpt>
      <trkpt lat="42.93311" lon="-0.35591">
        <ele>2432</ele>
        <time>2013-01-08T10:51:59Z</time>
      </trkpt>
      <trkpt lat="42.93314" lon="-0.35591">
        <ele>2432.3999023438</ele>
        <time>2013-01-08T10:52:05Z</time>
      </trkpt>
      <trkpt lat="42.93317" lon="-0.3559">
        <ele>2433</ele>
        <time>2013-01-08T10:52:12Z</time>
      </trkpt>
      <trkpt lat="42.93319" lon="-0.35588">
        <ele>2433.3999023438</ele>
        <time>2013-01-08T10:52:19Z</time>
      </trkpt>
      <trkpt lat="42.93323" lon="-0.35587">
        <ele>2434</ele>
        <time>2013-01-08T10:52:25Z</time>
      </trkpt>
      <trkpt lat="42.93326" lon="-0.35585">
        <ele>2435</ele>
        <time>2013-01-08T10:52:34Z</time>
      </trkpt>
      <trkpt lat="42.93325" lon="-0.35586">
        <ele>2434.3999023438</ele>
        <time>2013-01-08T10:53:01Z</time>
      </trkpt>
      <trkpt lat="42.93328" lon="-0.35584">
        <ele>2435.3999023438</ele>
        <time>2013-01-08T10:53:10Z</time>
      </trkpt>
      <trkpt lat="42.93331" lon="-0.35584">
        <ele>2435.3999023438</ele>
        <time>2013-01-08T10:53:15Z</time>
      </trkpt>
      <trkpt lat="42.93338" lon="-0.35586">
        <ele>2435.6000976562</ele>
        <time>2013-01-08T10:53:23Z</time>
      </trkpt>
      <trkpt lat="42.93346" lon="-0.35587">
        <ele>2435.6000976562</ele>
        <time>2013-01-08T10:53:32Z</time>
      </trkpt>
      <trkpt lat="42.93351" lon="-0.35589">
        <ele>2435.6000976562</ele>
        <time>2013-01-08T10:53:42Z</time>
      </trkpt>
      <trkpt lat="42.93355" lon="-0.3559">
        <ele>2435.3999023438</ele>
        <time>2013-01-08T10:53:48Z</time>
      </trkpt>
      <trkpt lat="42.93362" lon="-0.35592">
        <ele>2435.3999023438</ele>
        <time>2013-01-08T10:53:56Z</time>
      </trkpt>
      <trkpt lat="42.93368" lon="-0.35594">
        <ele>2435.3999023438</ele>
        <time>2013-01-08T10:54:05Z</time>
      </trkpt>
      <trkpt lat="42.93373" lon="-0.35596">
        <ele>2435.1999511719</ele>
        <time>2013-01-08T10:54:14Z</time>
      </trkpt>
      <trkpt lat="42.9338" lon="-0.35603">
        <ele>2434.3999023438</ele>
        <time>2013-01-08T10:54:24Z</time>
      </trkpt>
      <trkpt lat="42.93386" lon="-0.3561">
        <ele>2433.8000488281</ele>
        <time>2013-01-08T10:54:33Z</time>
      </trkpt>
      <trkpt lat="42.93391" lon="-0.35615">
        <ele>2433.3999023438</ele>
        <time>2013-01-08T10:54:42Z</time>
      </trkpt>
      <trkpt lat="42.93394" lon="-0.35614">
        <ele>2433.8000488281</ele>
        <time>2013-01-08T10:54:47Z</time>
      </trkpt>
      <trkpt lat="42.93397" lon="-0.35613">
        <ele>2434.1999511719</ele>
        <time>2013-01-08T10:54:53Z</time>
      </trkpt>
      <trkpt lat="42.93402" lon="-0.35612">
        <ele>2434.6000976562</ele>
        <time>2013-01-08T10:55:00Z</time>
      </trkpt>
      <trkpt lat="42.93407" lon="-0.35611">
        <ele>2435.3999023438</ele>
        <time>2013-01-08T10:55:10Z</time>
      </trkpt>
      <trkpt lat="42.9341" lon="-0.3561">
        <ele>2435.8000488281</ele>
        <time>2013-01-08T10:55:15Z</time>
      </trkpt>
      <trkpt lat="42.93413" lon="-0.35609">
        <ele>2436.1999511719</ele>
        <time>2013-01-08T10:55:21Z</time>
      </trkpt>
      <trkpt lat="42.93417" lon="-0.35609">
        <ele>2436.3999023438</ele>
        <time>2013-01-08T10:55:28Z</time>
      </trkpt>
      <trkpt lat="42.93421" lon="-0.35611">
        <ele>2437.6000976562</ele>
        <time>2013-01-08T10:55:34Z</time>
      </trkpt>
      <trkpt lat="42.93425" lon="-0.35613">
        <ele>2438.6000976562</ele>
        <time>2013-01-08T10:55:43Z</time>
      </trkpt>
      <trkpt lat="42.93433" lon="-0.3562">
        <ele>2440.1999511719</ele>
        <time>2013-01-08T10:56:00Z</time>
      </trkpt>
      <trkpt lat="42.93438" lon="-0.35625">
        <ele>2440.6000976562</ele>
        <time>2013-01-08T10:56:09Z</time>
      </trkpt>
      <trkpt lat="42.93439" lon="-0.35628">
        <ele>2440.6000976562</ele>
        <time>2013-01-08T10:56:14Z</time>
      </trkpt>
      <trkpt lat="42.93442" lon="-0.3563">
        <ele>2441.1999511719</ele>
        <time>2013-01-08T10:56:21Z</time>
      </trkpt>
      <trkpt lat="42.93445" lon="-0.35631">
        <ele>2442</ele>
        <time>2013-01-08T10:56:31Z</time>
      </trkpt>
      <trkpt lat="42.93447" lon="-0.35625">
        <ele>2443.1999511719</ele>
        <time>2013-01-08T10:56:39Z</time>
      </trkpt>
      <trkpt lat="42.93449" lon="-0.35616">
        <ele>2445.3999023438</ele>
        <time>2013-01-08T10:56:57Z</time>
      </trkpt>
      <trkpt lat="42.93449" lon="-0.35617">
        <ele>2445.1999511719</ele>
        <time>2013-01-08T10:57:01Z</time>
      </trkpt>
      <trkpt lat="42.93447" lon="-0.35619">
        <ele>2444.1999511719</ele>
        <time>2013-01-08T10:57:07Z</time>
      </trkpt>
      <trkpt lat="42.93449" lon="-0.35615">
        <ele>2445.3999023438</ele>
        <time>2013-01-08T10:57:13Z</time>
      </trkpt>
      <trkpt lat="42.93452" lon="-0.35609">
        <ele>2447.1999511719</ele>
        <time>2013-01-08T10:57:17Z</time>
      </trkpt>
      <trkpt lat="42.93451" lon="-0.35609">
        <ele>2447</ele>
        <time>2013-01-08T10:57:21Z</time>
      </trkpt>
      <trkpt lat="42.9345" lon="-0.35609">
        <ele>2446.8000488281</ele>
        <time>2013-01-08T10:57:28Z</time>
      </trkpt>
      <trkpt lat="42.93453" lon="-0.35614">
        <ele>2446.8000488281</ele>
        <time>2013-01-08T10:57:56Z</time>
      </trkpt>
      <trkpt lat="42.93453" lon="-0.35614">
        <ele>2446.8000488281</ele>
        <time>2013-01-08T10:57:59Z</time>
      </trkpt>
      <trkpt lat="42.93454" lon="-0.35614">
        <ele>2447</ele>
        <time>2013-01-08T10:58:03Z</time>
      </trkpt>
      <trkpt lat="42.93455" lon="-0.35608">
        <ele>2448.3999023438</ele>
        <time>2013-01-08T10:58:49Z</time>
      </trkpt>
      <trkpt lat="42.93457" lon="-0.35607">
        <ele>2449</ele>
        <time>2013-01-08T10:58:58Z</time>
      </trkpt>
      <trkpt lat="42.93459" lon="-0.35604">
        <ele>2450.1999511719</ele>
        <time>2013-01-08T10:59:04Z</time>
      </trkpt>
      <trkpt lat="42.9346" lon="-0.356">
        <ele>2451.1999511719</ele>
        <time>2013-01-08T10:59:10Z</time>
      </trkpt>
      <trkpt lat="42.9346" lon="-0.356">
        <ele>2451.3999023438</ele>
        <time>2013-01-08T10:59:11Z</time>
      </trkpt>
      <trkpt lat="42.93461" lon="-0.35598">
        <ele>2452</ele>
        <time>2013-01-08T10:59:15Z</time>
      </trkpt>
      <trkpt lat="42.93462" lon="-0.35596">
        <ele>2452.3999023438</ele>
        <time>2013-01-08T10:59:17Z</time>
      </trkpt>
      <trkpt lat="42.93462" lon="-0.35601">
        <ele>2451.6000976562</ele>
        <time>2013-01-08T10:59:24Z</time>
      </trkpt>
      <trkpt lat="42.93462" lon="-0.35604">
        <ele>2451.1999511719</ele>
        <time>2013-01-08T10:59:28Z</time>
      </trkpt>
      <trkpt lat="42.93463" lon="-0.35604">
        <ele>2451.1999511719</ele>
        <time>2013-01-08T10:59:29Z</time>
      </trkpt>
      <trkpt lat="42.93464" lon="-0.35607">
        <ele>2451.1999511719</ele>
        <time>2013-01-08T10:59:34Z</time>
      </trkpt>
      <trkpt lat="42.93467" lon="-0.3561">
        <ele>2451.6000976562</ele>
        <time>2013-01-08T10:59:44Z</time>
      </trkpt>
      <trkpt lat="42.9347" lon="-0.35613">
        <ele>2452</ele>
        <time>2013-01-08T10:59:54Z</time>
      </trkpt>
      <trkpt lat="42.93473" lon="-0.35615">
        <ele>2452.6000976562</ele>
        <time>2013-01-08T11:00:05Z</time>
      </trkpt>
      <trkpt lat="42.93473" lon="-0.35611">
        <ele>2453.6000976562</ele>
        <time>2013-01-08T11:00:11Z</time>
      </trkpt>
      <trkpt lat="42.93473" lon="-0.35604">
        <ele>2454.6000976562</ele>
        <time>2013-01-08T11:00:20Z</time>
      </trkpt>
      <trkpt lat="42.93474" lon="-0.35599">
        <ele>2455.8000488281</ele>
        <time>2013-01-08T11:00:28Z</time>
      </trkpt>
      <trkpt lat="42.93475" lon="-0.35593">
        <ele>2457</ele>
        <time>2013-01-08T11:00:34Z</time>
      </trkpt>
      <trkpt lat="42.93475" lon="-0.35589">
        <ele>2457.8000488281</ele>
        <time>2013-01-08T11:00:41Z</time>
      </trkpt>
      <trkpt lat="42.93475" lon="-0.35583">
        <ele>2458.8000488281</ele>
        <time>2013-01-08T11:00:52Z</time>
      </trkpt>
      <trkpt lat="42.93475" lon="-0.35579">
        <ele>2459.8000488281</ele>
        <time>2013-01-08T11:00:58Z</time>
      </trkpt>
      <trkpt lat="42.93475" lon="-0.35575">
        <ele>2460.3999023438</ele>
        <time>2013-01-08T11:01:06Z</time>
      </trkpt>
      <trkpt lat="42.93475" lon="-0.35571">
        <ele>2461.1999511719</ele>
        <time>2013-01-08T11:01:13Z</time>
      </trkpt>
      <trkpt lat="42.9348" lon="-0.35576">
        <ele>2462</ele>
        <time>2013-01-08T11:01:35Z</time>
      </trkpt>
      <trkpt lat="42.93483" lon="-0.35577">
        <ele>2462.8000488281</ele>
        <time>2013-01-08T11:01:43Z</time>
      </trkpt>
      <trkpt lat="42.93485" lon="-0.35584">
        <ele>2461.8000488281</ele>
        <time>2013-01-08T11:02:12Z</time>
      </trkpt>
      <trkpt lat="42.93484" lon="-0.35586">
        <ele>2461.3999023438</ele>
        <time>2013-01-08T11:02:18Z</time>
      </trkpt>
      <trkpt lat="42.93484" lon="-0.35586">
        <ele>2461.1999511719</ele>
        <time>2013-01-08T11:02:27Z</time>
      </trkpt>
      <trkpt lat="42.93484" lon="-0.35585">
        <ele>2461.3999023438</ele>
        <time>2013-01-08T11:02:35Z</time>
      </trkpt>
      <trkpt lat="42.93484" lon="-0.35585">
        <ele>2461.6000976562</ele>
        <time>2013-01-08T11:02:38Z</time>
      </trkpt>
      <trkpt lat="42.93484" lon="-0.35585">
        <ele>2461.6000976562</ele>
        <time>2013-01-08T11:02:41Z</time>
      </trkpt>
      <trkpt lat="42.93484" lon="-0.35585">
        <ele>2461.6000976562</ele>
        <time>2013-01-08T11:02:45Z</time>
      </trkpt>
      <trkpt lat="42.93486" lon="-0.35586">
        <ele>2461.8000488281</ele>
        <time>2013-01-08T11:02:52Z</time>
      </trkpt>
      <trkpt lat="42.93486" lon="-0.35587">
        <ele>2461.8000488281</ele>
        <time>2013-01-08T11:03:00Z</time>
      </trkpt>
      <trkpt lat="42.93487" lon="-0.35587">
        <ele>2462</ele>
        <time>2013-01-08T11:03:04Z</time>
      </trkpt>
      <trkpt lat="42.93488" lon="-0.35587">
        <ele>2462.1999511719</ele>
        <time>2013-01-08T11:03:13Z</time>
      </trkpt>
      <trkpt lat="42.93491" lon="-0.35586">
        <ele>2463.3999023438</ele>
        <time>2013-01-08T11:03:38Z</time>
      </trkpt>
      <trkpt lat="42.93492" lon="-0.35586">
        <ele>2463.8000488281</ele>
        <time>2013-01-08T11:03:41Z</time>
      </trkpt>
      <trkpt lat="42.93493" lon="-0.35588">
        <ele>2464</ele>
        <time>2013-01-08T11:03:47Z</time>
      </trkpt>
      <trkpt lat="42.93495" lon="-0.35589">
        <ele>2464.1999511719</ele>
        <time>2013-01-08T11:03:52Z</time>
      </trkpt>
      <trkpt lat="42.93495" lon="-0.3559">
        <ele>2464</ele>
        <time>2013-01-08T11:03:55Z</time>
      </trkpt>
      <trkpt lat="42.93497" lon="-0.35593">
        <ele>2464</ele>
        <time>2013-01-08T11:04:00Z</time>
      </trkpt>
      <trkpt lat="42.93498" lon="-0.35594">
        <ele>2464.1999511719</ele>
        <time>2013-01-08T11:04:04Z</time>
      </trkpt>
      <trkpt lat="42.93499" lon="-0.35594">
        <ele>2464.3999023438</ele>
        <time>2013-01-08T11:04:05Z</time>
      </trkpt>
      <trkpt lat="42.93502" lon="-0.35592">
        <ele>2466</ele>
        <time>2013-01-08T11:04:13Z</time>
      </trkpt>
      <trkpt lat="42.93504" lon="-0.35591">
        <ele>2467</ele>
        <time>2013-01-08T11:04:20Z</time>
      </trkpt>
      <trkpt lat="42.93504" lon="-0.3559">
        <ele>2467.3999023438</ele>
        <time>2013-01-08T11:04:24Z</time>
      </trkpt>
      <trkpt lat="42.93504" lon="-0.35591">
        <ele>2467</ele>
        <time>2013-01-08T11:04:46Z</time>
      </trkpt>
      <trkpt lat="42.93506" lon="-0.35588">
        <ele>2468.1999511719</ele>
        <time>2013-01-08T11:05:00Z</time>
      </trkpt>
      <trkpt lat="42.93506" lon="-0.35589">
        <ele>2468.1999511719</ele>
        <time>2013-01-08T11:05:04Z</time>
      </trkpt>
      <trkpt lat="42.93506" lon="-0.35589">
        <ele>2468</ele>
        <time>2013-01-08T11:05:12Z</time>
      </trkpt>
      <trkpt lat="42.93508" lon="-0.35588">
        <ele>2469.6000976562</ele>
        <time>2013-01-08T11:05:33Z</time>
      </trkpt>
      <trkpt lat="42.9351" lon="-0.35586">
        <ele>2470.6000976562</ele>
        <time>2013-01-08T11:05:42Z</time>
      </trkpt>
      <trkpt lat="42.93508" lon="-0.35586">
        <ele>2469.8000488281</ele>
        <time>2013-01-08T11:06:09Z</time>
      </trkpt>
      <trkpt lat="42.9351" lon="-0.35578">
        <ele>2472.3999023438</ele>
        <time>2013-01-08T11:06:37Z</time>
      </trkpt>
      <trkpt lat="42.93512" lon="-0.35585">
        <ele>2471.6000976562</ele>
        <time>2013-01-08T11:07:12Z</time>
      </trkpt>
      <trkpt lat="42.9351" lon="-0.35592">
        <ele>2469.1999511719</ele>
        <time>2013-01-08T11:07:46Z</time>
      </trkpt>
      <trkpt lat="42.93515" lon="-0.3559">
        <ele>2471.8000488281</ele>
        <time>2013-01-08T11:08:18Z</time>
      </trkpt>
      <trkpt lat="42.93517" lon="-0.35591">
        <ele>2472.3999023438</ele>
        <time>2013-01-08T11:08:25Z</time>
      </trkpt>
      <trkpt lat="42.9352" lon="-0.35592">
        <ele>2473.1999511719</ele>
        <time>2013-01-08T11:08:30Z</time>
      </trkpt>
      <trkpt lat="42.93521" lon="-0.35592">
        <ele>2473.6000976562</ele>
        <time>2013-01-08T11:08:32Z</time>
      </trkpt>
      <trkpt lat="42.93524" lon="-0.35591">
        <ele>2475.1999511719</ele>
        <time>2013-01-08T11:08:40Z</time>
      </trkpt>
      <trkpt lat="42.93524" lon="-0.35591">
        <ele>2475.1999511719</ele>
        <time>2013-01-08T11:08:41Z</time>
      </trkpt>
      <trkpt lat="42.93526" lon="-0.35592">
        <ele>2476</ele>
        <time>2013-01-08T11:08:47Z</time>
      </trkpt>
      <trkpt lat="42.93528" lon="-0.35588">
        <ele>2477.3999023438</ele>
        <time>2013-01-08T11:08:53Z</time>
      </trkpt>
      <trkpt lat="42.93528" lon="-0.35585">
        <ele>2478.3999023438</ele>
        <time>2013-01-08T11:08:59Z</time>
      </trkpt>
      <trkpt lat="42.93529" lon="-0.35582">
        <ele>2479.6000976562</ele>
        <time>2013-01-08T11:09:06Z</time>
      </trkpt>
      <trkpt lat="42.93529" lon="-0.35582">
        <ele>2479.6000976562</ele>
        <time>2013-01-08T11:09:07Z</time>
      </trkpt>
      <trkpt lat="42.93532" lon="-0.35575">
        <ele>2482.6000976562</ele>
        <time>2013-01-08T11:09:23Z</time>
      </trkpt>
      <trkpt lat="42.93532" lon="-0.35571">
        <ele>2483.8000488281</ele>
        <time>2013-01-08T11:09:30Z</time>
      </trkpt>
      <trkpt lat="42.93533" lon="-0.35569">
        <ele>2484.3999023438</ele>
        <time>2013-01-08T11:09:37Z</time>
      </trkpt>
      <trkpt lat="42.93535" lon="-0.35564">
        <ele>2486.6000976562</ele>
        <time>2013-01-08T11:09:44Z</time>
      </trkpt>
      <trkpt lat="42.93537" lon="-0.35564">
        <ele>2487.3999023438</ele>
        <time>2013-01-08T11:09:50Z</time>
      </trkpt>
      <trkpt lat="42.93538" lon="-0.35567">
        <ele>2487</ele>
        <time>2013-01-08T11:09:56Z</time>
      </trkpt>
      <trkpt lat="42.9354" lon="-0.3557">
        <ele>2487.1999511719</ele>
        <time>2013-01-08T11:10:05Z</time>
      </trkpt>
      <trkpt lat="42.93544" lon="-0.35574">
        <ele>2488.3999023438</ele>
        <time>2013-01-08T11:10:26Z</time>
      </trkpt>
      <trkpt lat="42.93547" lon="-0.35567">
        <ele>2491</ele>
        <time>2013-01-08T11:10:45Z</time>
      </trkpt>
      <trkpt lat="42.93549" lon="-0.35558">
        <ele>2494.1999511719</ele>
        <time>2013-01-08T11:11:02Z</time>
      </trkpt>
      <trkpt lat="42.93551" lon="-0.35549">
        <ele>2497.6000976562</ele>
        <time>2013-01-08T11:11:13Z</time>
      </trkpt>
      <trkpt lat="42.93551" lon="-0.35547">
        <ele>2498</ele>
        <time>2013-01-08T11:11:17Z</time>
      </trkpt>
      <trkpt lat="42.93551" lon="-0.35546">
        <ele>2498.3999023438</ele>
        <time>2013-01-08T11:11:27Z</time>
      </trkpt>
      <trkpt lat="42.93548" lon="-0.35553">
        <ele>2495</ele>
        <time>2013-01-08T11:11:53Z</time>
      </trkpt>
      <trkpt lat="42.93548" lon="-0.35549">
        <ele>2496.1999511719</ele>
        <time>2013-01-08T11:12:05Z</time>
      </trkpt>
      <trkpt lat="42.9355" lon="-0.35547">
        <ele>2497.3999023438</ele>
        <time>2013-01-08T11:12:10Z</time>
      </trkpt>
      <trkpt lat="42.93548" lon="-0.35551">
        <ele>2495.6000976562</ele>
        <time>2013-01-08T11:12:39Z</time>
      </trkpt>
      <trkpt lat="42.9355" lon="-0.35547">
        <ele>2497.3999023438</ele>
        <time>2013-01-08T11:12:49Z</time>
      </trkpt>
      <trkpt lat="42.93549" lon="-0.35548">
        <ele>2496.6000976562</ele>
        <time>2013-01-08T11:13:00Z</time>
      </trkpt>
      <trkpt lat="42.93551" lon="-0.35543">
        <ele>2498.8000488281</ele>
        <time>2013-01-08T11:13:10Z</time>
      </trkpt>
      <trkpt lat="42.93551" lon="-0.35539">
        <ele>2500</ele>
        <time>2013-01-08T11:13:26Z</time>
      </trkpt>
      <trkpt lat="42.9355" lon="-0.35538">
        <ele>2500</ele>
        <time>2013-01-08T11:13:35Z</time>
      </trkpt>
      <trkpt lat="42.93551" lon="-0.35536">
        <ele>2500.6000976562</ele>
        <time>2013-01-08T11:13:37Z</time>
      </trkpt>
      <trkpt lat="42.93551" lon="-0.35533">
        <ele>2501.6000976562</ele>
        <time>2013-01-08T11:13:44Z</time>
      </trkpt>
      <trkpt lat="42.93551" lon="-0.35529">
        <ele>2502.1999511719</ele>
        <time>2013-01-08T11:13:56Z</time>
      </trkpt>
      <trkpt lat="42.93552" lon="-0.35524">
        <ele>2504</ele>
        <time>2013-01-08T11:14:06Z</time>
      </trkpt>
      <trkpt lat="42.93551" lon="-0.35522">
        <ele>2504.3999023438</ele>
        <time>2013-01-08T11:14:17Z</time>
      </trkpt>
      <trkpt lat="42.93552" lon="-0.3552">
        <ele>2505</ele>
        <time>2013-01-08T11:14:27Z</time>
      </trkpt>
      <trkpt lat="42.93553" lon="-0.35518">
        <ele>2506.1999511719</ele>
        <time>2013-01-08T11:14:34Z</time>
      </trkpt>
      <trkpt lat="42.93554" lon="-0.35512">
        <ele>2508.1999511719</ele>
        <time>2013-01-08T11:14:45Z</time>
      </trkpt>
      <trkpt lat="42.93561" lon="-0.35496">
        <ele>2513.8000488281</ele>
        <time>2013-01-08T11:15:00Z</time>
      </trkpt>
      <trkpt lat="42.93559" lon="-0.35495">
        <ele>2513</ele>
        <time>2013-01-08T11:15:08Z</time>
      </trkpt>
      <trkpt lat="42.9356" lon="-0.35492">
        <ele>2512.6000976562</ele>
        <time>2013-01-08T11:15:24Z</time>
      </trkpt>
      <trkpt lat="42.93562" lon="-0.35486">
        <ele>2512.6000976562</ele>
        <time>2013-01-08T11:15:31Z</time>
      </trkpt>
      <trkpt lat="42.9356" lon="-0.35485">
        <ele>2511.6000976562</ele>
        <time>2013-01-08T11:15:46Z</time>
      </trkpt>
      <trkpt lat="42.93559" lon="-0.35484">
        <ele>2511.1999511719</ele>
        <time>2013-01-08T11:15:54Z</time>
      </trkpt>
      <trkpt lat="42.93559" lon="-0.35478">
        <ele>2510.3999023438</ele>
        <time>2013-01-08T11:16:05Z</time>
      </trkpt>
      <trkpt lat="42.9356" lon="-0.35472">
        <ele>2509.8000488281</ele>
        <time>2013-01-08T11:16:18Z</time>
      </trkpt>
      <trkpt lat="42.93562" lon="-0.35464">
        <ele>2508.6000976562</ele>
        <time>2013-01-08T11:16:35Z</time>
      </trkpt>
      <trkpt lat="42.93565" lon="-0.35459">
        <ele>2508.1999511719</ele>
        <time>2013-01-08T11:16:39Z</time>
      </trkpt>
      <trkpt lat="42.93565" lon="-0.35457">
        <ele>2508</ele>
        <time>2013-01-08T11:16:43Z</time>
      </trkpt>
      <trkpt lat="42.93564" lon="-0.35457">
        <ele>2508</ele>
        <time>2013-01-08T11:16:44Z</time>
      </trkpt>
      <trkpt lat="42.93564" lon="-0.35452">
        <ele>2507</ele>
        <time>2013-01-08T11:16:57Z</time>
      </trkpt>
      <trkpt lat="42.93565" lon="-0.35447">
        <ele>2506</ele>
        <time>2013-01-08T11:17:08Z</time>
      </trkpt>
      <trkpt lat="42.93564" lon="-0.35445">
        <ele>2505.6000976562</ele>
        <time>2013-01-08T11:17:18Z</time>
      </trkpt>
      <trkpt lat="42.93563" lon="-0.35443">
        <ele>2505.1999511719</ele>
        <time>2013-01-08T11:17:24Z</time>
      </trkpt>
      <trkpt lat="42.93561" lon="-0.35445">
        <ele>2505.6000976562</ele>
        <time>2013-01-08T11:17:30Z</time>
      </trkpt>
      <trkpt lat="42.9356" lon="-0.35449">
        <ele>2506</ele>
        <time>2013-01-08T11:17:32Z</time>
      </trkpt>
      <trkpt lat="42.93559" lon="-0.35453">
        <ele>2506.6000976562</ele>
        <time>2013-01-08T11:17:37Z</time>
      </trkpt>
      <trkpt lat="42.93559" lon="-0.35456">
        <ele>2507</ele>
        <time>2013-01-08T11:17:41Z</time>
      </trkpt>
      <trkpt lat="42.9356" lon="-0.35463">
        <ele>2508.3999023438</ele>
        <time>2013-01-08T11:17:59Z</time>
      </trkpt>
      <trkpt lat="42.93561" lon="-0.35464">
        <ele>2508.6000976562</ele>
        <time>2013-01-08T11:18:11Z</time>
      </trkpt>
      <trkpt lat="42.93563" lon="-0.35466">
        <ele>2509.3999023438</ele>
        <time>2013-01-08T11:18:17Z</time>
      </trkpt>
      <trkpt lat="42.93564" lon="-0.3547">
        <ele>2510.3999023438</ele>
        <time>2013-01-08T11:18:26Z</time>
      </trkpt>
      <trkpt lat="42.93564" lon="-0.35465">
        <ele>2509.3999023438</ele>
        <time>2013-01-08T11:18:42Z</time>
      </trkpt>
      <trkpt lat="42.93565" lon="-0.35464">
        <ele>2509.3999023438</ele>
        <time>2013-01-08T11:18:49Z</time>
      </trkpt>
      <trkpt lat="42.93569" lon="-0.35468">
        <ele>2511.1999511719</ele>
        <time>2013-01-08T11:19:15Z</time>
      </trkpt>
      <trkpt lat="42.9357" lon="-0.35469">
        <ele>2511.6000976562</ele>
        <time>2013-01-08T11:19:26Z</time>
      </trkpt>
      <trkpt lat="42.93571" lon="-0.3547">
        <ele>2512.1999511719</ele>
        <time>2013-01-08T11:19:36Z</time>
      </trkpt>
      <trkpt lat="42.93572" lon="-0.35469">
        <ele>2512.1999511719</ele>
        <time>2013-01-08T11:19:47Z</time>
      </trkpt>
      <trkpt lat="42.93575" lon="-0.35473">
        <ele>2514</ele>
        <time>2013-01-08T11:20:32Z</time>
      </trkpt>
      <trkpt lat="42.93578" lon="-0.35471">
        <ele>2514</ele>
        <time>2013-01-08T11:20:46Z</time>
      </trkpt>
      <trkpt lat="42.93581" lon="-0.35471">
        <ele>2515</ele>
        <time>2013-01-08T11:20:59Z</time>
      </trkpt>
      <trkpt lat="42.93585" lon="-0.35475">
        <ele>2516.3999023438</ele>
        <time>2013-01-08T11:21:15Z</time>
      </trkpt>
      <trkpt lat="42.93589" lon="-0.35477">
        <ele>2515.1999511719</ele>
        <time>2013-01-08T11:21:30Z</time>
      </trkpt>
      <trkpt lat="42.93592" lon="-0.35478">
        <ele>2514.6000976562</ele>
        <time>2013-01-08T11:21:43Z</time>
      </trkpt>
      <trkpt lat="42.9359" lon="-0.35475">
        <ele>2514.3999023438</ele>
        <time>2013-01-08T11:21:58Z</time>
      </trkpt>
      <trkpt lat="42.93589" lon="-0.35472">
        <ele>2513.3999023438</ele>
        <time>2013-01-08T11:22:04Z</time>
      </trkpt>
      <trkpt lat="42.93588" lon="-0.35469">
        <ele>2513</ele>
        <time>2013-01-08T11:22:11Z</time>
      </trkpt>
      <trkpt lat="42.93587" lon="-0.35465">
        <ele>2512</ele>
        <time>2013-01-08T11:22:19Z</time>
      </trkpt>
      <trkpt lat="42.93587" lon="-0.35463">
        <ele>2511.3999023438</ele>
        <time>2013-01-08T11:22:26Z</time>
      </trkpt>
      <trkpt lat="42.93586" lon="-0.3546">
        <ele>2510.6000976562</ele>
        <time>2013-01-08T11:22:32Z</time>
      </trkpt>
      <trkpt lat="42.93585" lon="-0.35455">
        <ele>2509.1999511719</ele>
        <time>2013-01-08T11:22:46Z</time>
      </trkpt>
      <trkpt lat="42.93584" lon="-0.35453">
        <ele>2508.8000488281</ele>
        <time>2013-01-08T11:22:54Z</time>
      </trkpt>
      <trkpt lat="42.93582" lon="-0.35451">
        <ele>2508</ele>
        <time>2013-01-08T11:23:05Z</time>
      </trkpt>
      <trkpt lat="42.93582" lon="-0.35447">
        <ele>2507</ele>
        <time>2013-01-08T11:23:12Z</time>
      </trkpt>
      <trkpt lat="42.93582" lon="-0.35444">
        <ele>2505.8000488281</ele>
        <time>2013-01-08T11:23:18Z</time>
      </trkpt>
      <trkpt lat="42.93581" lon="-0.35441">
        <ele>2504.6000976562</ele>
        <time>2013-01-08T11:23:25Z</time>
      </trkpt>
      <trkpt lat="42.93581" lon="-0.35438">
        <ele>2503.8000488281</ele>
        <time>2013-01-08T11:23:31Z</time>
      </trkpt>
      <trkpt lat="42.93581" lon="-0.35436">
        <ele>2503</ele>
        <time>2013-01-08T11:23:37Z</time>
      </trkpt>
      <trkpt lat="42.9358" lon="-0.35433">
        <ele>2502</ele>
        <time>2013-01-08T11:23:43Z</time>
      </trkpt>
      <trkpt lat="42.9358" lon="-0.35429">
        <ele>2500.8000488281</ele>
        <time>2013-01-08T11:23:50Z</time>
      </trkpt>
      <trkpt lat="42.93579" lon="-0.35423">
        <ele>2498.6000976562</ele>
        <time>2013-01-08T11:24:18Z</time>
      </trkpt>
      <trkpt lat="42.93579" lon="-0.3542">
        <ele>2497.8000488281</ele>
        <time>2013-01-08T11:24:24Z</time>
      </trkpt>
      <trkpt lat="42.93578" lon="-0.35418">
        <ele>2497.3999023438</ele>
        <time>2013-01-08T11:24:29Z</time>
      </trkpt>
      <trkpt lat="42.93578" lon="-0.35415">
        <ele>2496.6000976562</ele>
        <time>2013-01-08T11:24:39Z</time>
      </trkpt>
      <trkpt lat="42.93576" lon="-0.35411">
        <ele>2496.1999511719</ele>
        <time>2013-01-08T11:24:51Z</time>
      </trkpt>
      <trkpt lat="42.93575" lon="-0.3541">
        <ele>2496.1999511719</ele>
        <time>2013-01-08T11:24:56Z</time>
      </trkpt>
      <trkpt lat="42.93575" lon="-0.35404">
        <ele>2494.6000976562</ele>
        <time>2013-01-08T11:25:13Z</time>
      </trkpt>
      <trkpt lat="42.93575" lon="-0.35402">
        <ele>2494.1999511719</ele>
        <time>2013-01-08T11:25:17Z</time>
      </trkpt>
      <trkpt lat="42.93575" lon="-0.35399">
        <ele>2493.6000976562</ele>
        <time>2013-01-08T11:25:22Z</time>
      </trkpt>
      <trkpt lat="42.93576" lon="-0.35398">
        <ele>2493</ele>
        <time>2013-01-08T11:25:31Z</time>
      </trkpt>
      <trkpt lat="42.93577" lon="-0.35402">
        <ele>2493.8000488281</ele>
        <time>2013-01-08T11:25:39Z</time>
      </trkpt>
      <trkpt lat="42.93576" lon="-0.35403">
        <ele>2494.1999511719</ele>
        <time>2013-01-08T11:25:52Z</time>
      </trkpt>
      <trkpt lat="42.93578" lon="-0.35403">
        <ele>2494</ele>
        <time>2013-01-08T11:26:04Z</time>
      </trkpt>
      <trkpt lat="42.93579" lon="-0.35402">
        <ele>2493.3999023438</ele>
        <time>2013-01-08T11:26:19Z</time>
      </trkpt>
      <trkpt lat="42.93579" lon="-0.35402">
        <ele>2493.3999023438</ele>
        <time>2013-01-08T11:26:26Z</time>
      </trkpt>
      <trkpt lat="42.93579" lon="-0.35403">
        <ele>2493.6000976562</ele>
        <time>2013-01-08T11:26:33Z</time>
      </trkpt>
      <trkpt lat="42.93579" lon="-0.35403">
        <ele>2493.6000976562</ele>
        <time>2013-01-08T11:26:43Z</time>
      </trkpt>
      <trkpt lat="42.93579" lon="-0.35403">
        <ele>2493.6000976562</ele>
        <time>2013-01-08T11:26:48Z</time>
      </trkpt>
      <trkpt lat="42.9358" lon="-0.35404">
        <ele>2493.6000976562</ele>
        <time>2013-01-08T11:26:55Z</time>
      </trkpt>
      <trkpt lat="42.93585" lon="-0.35407">
        <ele>2493.3999023438</ele>
        <time>2013-01-08T11:27:34Z</time>
      </trkpt>
      <trkpt lat="42.93586" lon="-0.35408">
        <ele>2493.3999023438</ele>
        <time>2013-01-08T11:27:51Z</time>
      </trkpt>
      <trkpt lat="42.93585" lon="-0.35408">
        <ele>2493.6000976562</ele>
        <time>2013-01-08T11:28:03Z</time>
      </trkpt>
      <trkpt lat="42.93585" lon="-0.35409">
        <ele>2493.6000976562</ele>
        <time>2013-01-08T11:28:39Z</time>
      </trkpt>
      <trkpt lat="42.93585" lon="-0.35409">
        <ele>2493.6000976562</ele>
        <time>2013-01-08T11:28:53Z</time>
      </trkpt>
      <trkpt lat="42.93585" lon="-0.35408">
        <ele>2493.6000976562</ele>
        <time>2013-01-08T11:28:57Z</time>
      </trkpt>
      <trkpt lat="42.93587" lon="-0.35408">
        <ele>2493.1999511719</ele>
        <time>2013-01-08T11:29:03Z</time>
      </trkpt>
      <trkpt lat="42.93589" lon="-0.35409">
        <ele>2493</ele>
        <time>2013-01-08T11:29:10Z</time>
      </trkpt>
      <trkpt lat="42.9359" lon="-0.35409">
        <ele>2493</ele>
        <time>2013-01-08T11:29:13Z</time>
      </trkpt>
      <trkpt lat="42.93591" lon="-0.3541">
        <ele>2493.1999511719</ele>
        <time>2013-01-08T11:29:22Z</time>
      </trkpt>
      <trkpt lat="42.93591" lon="-0.3541">
        <ele>2493.1999511719</ele>
        <time>2013-01-08T11:29:26Z</time>
      </trkpt>
      <trkpt lat="42.93596" lon="-0.35413">
        <ele>2493.1999511719</ele>
        <time>2013-01-08T11:29:41Z</time>
      </trkpt>
      <trkpt lat="42.93597" lon="-0.35415">
        <ele>2493.3999023438</ele>
        <time>2013-01-08T11:29:48Z</time>
      </trkpt>
      <trkpt lat="42.93599" lon="-0.35417">
        <ele>2493.6000976562</ele>
        <time>2013-01-08T11:29:56Z</time>
      </trkpt>
      <trkpt lat="42.936" lon="-0.35418">
        <ele>2493.8000488281</ele>
        <time>2013-01-08T11:30:01Z</time>
      </trkpt>
      <trkpt lat="42.93601" lon="-0.3542">
        <ele>2494</ele>
        <time>2013-01-08T11:30:06Z</time>
      </trkpt>
      <trkpt lat="42.93602" lon="-0.35421">
        <ele>2494.1999511719</ele>
        <time>2013-01-08T11:30:12Z</time>
      </trkpt>
      <trkpt lat="42.93604" lon="-0.35425">
        <ele>2494.8000488281</ele>
        <time>2013-01-08T11:30:22Z</time>
      </trkpt>
      <trkpt lat="42.93605" lon="-0.35427">
        <ele>2495.1999511719</ele>
        <time>2013-01-08T11:30:28Z</time>
      </trkpt>
      <trkpt lat="42.93606" lon="-0.35428">
        <ele>2495.6000976562</ele>
        <time>2013-01-08T11:30:44Z</time>
      </trkpt>
      <trkpt lat="42.93608" lon="-0.35426">
        <ele>2494.3999023438</ele>
        <time>2013-01-08T11:30:57Z</time>
      </trkpt>
      <trkpt lat="42.9361" lon="-0.3542">
        <ele>2492.6000976562</ele>
        <time>2013-01-08T11:31:13Z</time>
      </trkpt>
      <trkpt lat="42.93609" lon="-0.35417">
        <ele>2492</ele>
        <time>2013-01-08T11:31:20Z</time>
      </trkpt>
      <trkpt lat="42.93608" lon="-0.35415">
        <ele>2491.6000976562</ele>
        <time>2013-01-08T11:31:25Z</time>
      </trkpt>
      <trkpt lat="42.93608" lon="-0.35412">
        <ele>2491</ele>
        <time>2013-01-08T11:31:31Z</time>
      </trkpt>
      <trkpt lat="42.93607" lon="-0.35409">
        <ele>2490.3999023438</ele>
        <time>2013-01-08T11:31:37Z</time>
      </trkpt>
      <trkpt lat="42.93607" lon="-0.35407">
        <ele>2489.8000488281</ele>
        <time>2013-01-08T11:31:42Z</time>
      </trkpt>
      <trkpt lat="42.93604" lon="-0.35412">
        <ele>2491.6000976562</ele>
        <time>2013-01-08T11:31:49Z</time>
      </trkpt>
      <trkpt lat="42.93604" lon="-0.3541">
        <ele>2491.1999511719</ele>
        <time>2013-01-08T11:31:59Z</time>
      </trkpt>
      <trkpt lat="42.93602" lon="-0.35409">
        <ele>2491</ele>
        <time>2013-01-08T11:32:14Z</time>
      </trkpt>
      <trkpt lat="42.93604" lon="-0.35409">
        <ele>2490.8000488281</ele>
        <time>2013-01-08T11:32:24Z</time>
      </trkpt>
      <trkpt lat="42.93606" lon="-0.3541">
        <ele>2490.8000488281</ele>
        <time>2013-01-08T11:32:38Z</time>
      </trkpt>
      <trkpt lat="42.93607" lon="-0.35406">
        <ele>2489.6000976562</ele>
        <time>2013-01-08T11:32:49Z</time>
      </trkpt>
      <trkpt lat="42.9361" lon="-0.35413">
        <ele>2491</ele>
        <time>2013-01-08T11:33:07Z</time>
      </trkpt>
      <trkpt lat="42.93611" lon="-0.35415">
        <ele>2491.1999511719</ele>
        <time>2013-01-08T11:33:13Z</time>
      </trkpt>
      <trkpt lat="42.93612" lon="-0.35416">
        <ele>2491.1999511719</ele>
        <time>2013-01-08T11:33:22Z</time>
      </trkpt>
      <trkpt lat="42.93614" lon="-0.35418">
        <ele>2491.3999023438</ele>
        <time>2013-01-08T11:33:28Z</time>
      </trkpt>
      <trkpt lat="42.93616" lon="-0.35419">
        <ele>2491.3999023438</ele>
        <time>2013-01-08T11:33:33Z</time>
      </trkpt>
      <trkpt lat="42.93617" lon="-0.35422">
        <ele>2491.8000488281</ele>
        <time>2013-01-08T11:33:42Z</time>
      </trkpt>
      <trkpt lat="42.93614" lon="-0.35424">
        <ele>2492.8000488281</ele>
        <time>2013-01-08T11:34:14Z</time>
      </trkpt>
      <trkpt lat="42.93615" lon="-0.3542">
        <ele>2491.6000976562</ele>
        <time>2013-01-08T11:34:29Z</time>
      </trkpt>
      <trkpt lat="42.93615" lon="-0.35418">
        <ele>2491.1999511719</ele>
        <time>2013-01-08T11:35:01Z</time>
      </trkpt>
      <trkpt lat="42.93614" lon="-0.35423">
        <ele>2492.6000976562</ele>
        <time>2013-01-08T11:35:18Z</time>
      </trkpt>
      <trkpt lat="42.93613" lon="-0.35423">
        <ele>2492.8000488281</ele>
        <time>2013-01-08T11:35:23Z</time>
      </trkpt>
      <trkpt lat="42.93614" lon="-0.35423">
        <ele>2492.6000976562</ele>
        <time>2013-01-08T11:35:28Z</time>
      </trkpt>
      <trkpt lat="42.93614" lon="-0.35421">
        <ele>2492.1999511719</ele>
        <time>2013-01-08T11:35:31Z</time>
      </trkpt>
      <trkpt lat="42.93615" lon="-0.3542">
        <ele>2491.6000976562</ele>
        <time>2013-01-08T11:35:35Z</time>
      </trkpt>
      <trkpt lat="42.93616" lon="-0.35419">
        <ele>2491.3999023438</ele>
        <time>2013-01-08T11:35:38Z</time>
      </trkpt>
      <trkpt lat="42.93617" lon="-0.35416">
        <ele>2490.6000976562</ele>
        <time>2013-01-08T11:35:54Z</time>
      </trkpt>
      <trkpt lat="42.93616" lon="-0.35415">
        <ele>2490.3999023438</ele>
        <time>2013-01-08T11:36:20Z</time>
      </trkpt>
      <trkpt lat="42.93619" lon="-0.35413">
        <ele>2489.3999023438</ele>
        <time>2013-01-08T11:36:51Z</time>
      </trkpt>
      <trkpt lat="42.93622" lon="-0.3541">
        <ele>2488.1999511719</ele>
        <time>2013-01-08T11:37:04Z</time>
      </trkpt>
      <trkpt lat="42.93623" lon="-0.35408">
        <ele>2487.8000488281</ele>
        <time>2013-01-08T11:37:13Z</time>
      </trkpt>
      <trkpt lat="42.93626" lon="-0.35405">
        <ele>2486.3999023438</ele>
        <time>2013-01-08T11:37:25Z</time>
      </trkpt>
      <trkpt lat="42.9362" lon="-0.35409">
        <ele>2488.3999023438</ele>
        <time>2013-01-08T11:38:09Z</time>
      </trkpt>
      <trkpt lat="42.93618" lon="-0.35409">
        <ele>2488.6000976562</ele>
        <time>2013-01-08T11:38:18Z</time>
      </trkpt>
      <trkpt lat="42.93618" lon="-0.35405">
        <ele>2487.6000976562</ele>
        <time>2013-01-08T11:38:52Z</time>
      </trkpt>
      <trkpt lat="42.93619" lon="-0.35401">
        <ele>2486.6000976562</ele>
        <time>2013-01-08T11:39:20Z</time>
      </trkpt>
      <trkpt lat="42.93622" lon="-0.35399">
        <ele>2485.6000976562</ele>
        <time>2013-01-08T11:39:32Z</time>
      </trkpt>
      <trkpt lat="42.93623" lon="-0.35397">
        <ele>2485</ele>
        <time>2013-01-08T11:39:36Z</time>
      </trkpt>
      <trkpt lat="42.93621" lon="-0.35401">
        <ele>2486.1999511719</ele>
        <time>2013-01-08T11:40:10Z</time>
      </trkpt>
      <trkpt lat="42.93621" lon="-0.354">
        <ele>2486</ele>
        <time>2013-01-08T11:40:15Z</time>
      </trkpt>
      <trkpt lat="42.93626" lon="-0.35395">
        <ele>2484.1999511719</ele>
        <time>2013-01-08T11:40:37Z</time>
      </trkpt>
      <trkpt lat="42.93625" lon="-0.35395">
        <ele>2484</ele>
        <time>2013-01-08T11:40:46Z</time>
      </trkpt>
      <trkpt lat="42.93625" lon="-0.35394">
        <ele>2484</ele>
        <time>2013-01-08T11:40:52Z</time>
      </trkpt>
      <trkpt lat="42.93629" lon="-0.35403">
        <ele>2485.3999023438</ele>
        <time>2013-01-08T11:41:15Z</time>
      </trkpt>
      <trkpt lat="42.9363" lon="-0.35406">
        <ele>2486</ele>
        <time>2013-01-08T11:41:22Z</time>
      </trkpt>
      <trkpt lat="42.93634" lon="-0.35411">
        <ele>2486.6000976562</ele>
        <time>2013-01-08T11:41:53Z</time>
      </trkpt>
      <trkpt lat="42.93647" lon="-0.35417">
        <ele>2485.8000488281</ele>
        <time>2013-01-08T11:42:45Z</time>
      </trkpt>
      <trkpt lat="42.93647" lon="-0.35417">
        <ele>2486</ele>
        <time>2013-01-08T11:42:57Z</time>
      </trkpt>
    </trkseg>
  </trk>
</gpx>